Wetterdaten: Dienstag, 03.04.2018
Datum Zeit Temp. A. Pool Temp. Feuchte A. Luftdruck Regen Wind Richtung Richtung Sonnenschein ET UV Solar Taupunkt Windchill Windben Empfang
03.04.2018 00:00 6,1 C 6,7 C 87 % 1008,2 hPa 0,0 l/m 0,0 km/h (0 Bft) O-SO 109 0 min 0,000 mm 0,0 UV-I 0 W/m 4,1 C 6,1 C 0,0 km/h (0 Bft) 100,00 %
03.04.2018 00:01 6,0 C 6,7 C 87 % 1008,1 hPa 0,0 l/m 0,0 km/h (0 Bft) O-SO 109 0 min 0,000 mm 0,0 UV-I 0 W/m 4,0 C 6,0 C 0,0 km/h (0 Bft) 100,00 %
03.04.2018 00:02 6,0 C 6,7 C 88 % 1008,2 hPa 0,0 l/m 0,0 km/h (0 Bft) O-SO 109 0 min 0,000 mm 0,0 UV-I 0 W/m 4,2 C 6,0 C 0,0 km/h (0 Bft) 100,00 %
03.04.2018 00:03 6,0 C 6,7 C 88 % 1008,1 hPa 0,0 l/m 0,0 km/h (0 Bft) O-SO 109 0 min 0,000 mm 0,0 UV-I 0 W/m 4,2 C 6,0 C 0,0 km/h (0 Bft) 100,00 %
03.04.2018 00:04 6,0 C 6,7 C 88 % 1008,1 hPa 0,0 l/m 0,0 km/h (0 Bft) O-SO 109 0 min 0,000 mm 0,0 UV-I 0 W/m 4,2 C 6,0 C 0,0 km/h (0 Bft) 100,00 %
03.04.2018 00:05 6,0 C 6,7 C 87 % 1008,1 hPa 0,0 l/m 0,0 km/h (0 Bft) O-SO 109 0 min 0,000 mm 0,0 UV-I 0 W/m 4,0 C 6,0 C 0,0 km/h (0 Bft) 100,00 %
03.04.2018 00:06 6,0 C 6,7 C 87 % 1008,1 hPa 0,0 l/m 0,0 km/h (0 Bft) O-SO 109 0 min 0,000 mm 0,0 UV-I 0 W/m 4,0 C 6,0 C 0,0 km/h (0 Bft) 100,00 %
03.04.2018 00:07 6,0 C 6,7 C 87 % 1008,1 hPa 0,0 l/m 0,0 km/h (0 Bft) O-SO 109 0 min 0,000 mm 0,0 UV-I 0 W/m 4,0 C 6,0 C 0,0 km/h (0 Bft) 100,00 %
03.04.2018 00:08 5,9 C 6,7 C 88 % 1008,1 hPa 0,0 l/m 0,0 km/h (0 Bft) O-SO 109 0 min 0,000 mm 0,0 UV-I 0 W/m 4,1 C 5,9 C 0,0 km/h (0 Bft) 100,00 %
03.04.2018 00:09 5,8 C 6,7 C 88 % 1008,1 hPa 0,0 l/m 0,0 km/h (0 Bft) O-SO 109 0 min 0,000 mm 0,0 UV-I 0 W/m 4,0 C 5,8 C 0,0 km/h (0 Bft) 100,00 %
03.04.2018 00:10 5,8 C 6,7 C 88 % 1008,1 hPa 0,0 l/m 0,0 km/h (0 Bft) O-SO 109 0 min 0,000 mm 0,0 UV-I 0 W/m 4,0 C 5,8 C 0,0 km/h (0 Bft) 100,00 %
03.04.2018 00:11 5,7 C 6,7 C 88 % 1008,1 hPa 0,0 l/m 0,0 km/h (0 Bft) O-SO 109 0 min 0,000 mm 0,0 UV-I 0 W/m 3,9 C 5,7 C 0,0 km/h (0 Bft) 100,00 %
03.04.2018 00:12 5,7 C 6,7 C 88 % 1008,1 hPa 0,0 l/m 1,0 km/h (0 Bft) O-SO 109 0 min 0,000 mm 0,0 UV-I 0 W/m 3,9 C 5,7 C 1,6 km/h (1 Bft) 100,00 %
03.04.2018 00:13 5,7 C 6,7 C 88 % 1008,1 hPa 0,0 l/m 0,5 km/h (0 Bft) O-SO 109 0 min 0,000 mm 0,0 UV-I 0 W/m 3,9 C 5,7 C 1,6 km/h (1 Bft) 95,65 %
03.04.2018 00:14 5,7 C 6,7 C 87 % 1008,0 hPa 0,0 l/m 1,7 km/h (1 Bft) O-SO 109 0 min 0,000 mm 0,0 UV-I 0 W/m 3,7 C 5,7 C 3,2 km/h (1 Bft) 100,00 %
03.04.2018 00:15 5,7 C 6,7 C 87 % 1008,0 hPa 0,0 l/m 1,9 km/h (1 Bft) O-SO 109 0 min 0,000 mm 0,0 UV-I 0 W/m 3,7 C 5,7 C 3,2 km/h (1 Bft) 100,00 %
03.04.2018 00:16 5,8 C 6,7 C 86 % 1008,0 hPa 0,0 l/m 2,0 km/h (1 Bft) O-SO 109 0 min 0,000 mm 0,0 UV-I 0 W/m 3,6 C 5,8 C 3,2 km/h (1 Bft) 100,00 %
03.04.2018 00:17 5,9 C 6,7 C 85 % 1008,1 hPa 0,0 l/m 1,1 km/h (1 Bft) O-SO 109 0 min 0,000 mm 0,0 UV-I 0 W/m 3,6 C 5,9 C 3,2 km/h (1 Bft) 100,00 %
03.04.2018 00:18 6,0 C 6,7 C 85 % 1008,1 hPa 0,0 l/m 1,1 km/h (1 Bft) O-SO 109 0 min 0,000 mm 0,0 UV-I 0 W/m 3,7 C 6,0 C 1,6 km/h (1 Bft) 100,00 %
03.04.2018 00:19 6,0 C 6,7 C 85 % 1008,1 hPa 0,0 l/m 0,1 km/h (0 Bft) O-SO 109 0 min 0,000 mm 0,0 UV-I 0 W/m 3,7 C 6,0 C 1,6 km/h (1 Bft) 100,00 %
03.04.2018 00:20 6,0 C 6,7 C 84 % 1008,0 hPa 0,0 l/m 0,0 km/h (0 Bft) O-SO 109 0 min 0,000 mm 0,0 UV-I 0 W/m 3,5 C 6,0 C 0,0 km/h (0 Bft) 95,83 %
03.04.2018 00:21 5,9 C 6,7 C 85 % 1008,1 hPa 0,0 l/m 0,0 km/h (0 Bft) O-SO 109 0 min 0,000 mm 0,0 UV-I 0 W/m 3,6 C 5,9 C 0,0 km/h (0 Bft) 92,86 %
03.04.2018 00:22 5,8 C 6,7 C 85 % 1008,1 hPa 0,0 l/m 0,0 km/h (0 Bft) O-SO 109 0 min 0,000 mm 0,0 UV-I 0 W/m 3,5 C 5,8 C 0,0 km/h (0 Bft) 100,00 %
03.04.2018 00:23 5,7 C 6,7 C 85 % 1008,0 hPa 0,0 l/m 0,0 km/h (0 Bft) O-SO 109 0 min 0,000 mm 0,0 UV-I 0 W/m 3,4 C 5,7 C 0,0 km/h (0 Bft) 100,00 %
03.04.2018 00:24 5,7 C 6,7 C 86 % 1008,0 hPa 0,0 l/m 0,0 km/h (0 Bft) O-SO 109 0 min 0,000 mm 0,0 UV-I 0 W/m 3,5 C 5,7 C 0,0 km/h (0 Bft) 95,83 %
03.04.2018 00:25 5,7 C 6,7 C 86 % 1008,1 hPa 0,0 l/m 0,0 km/h (0 Bft) O-SO 109 0 min 0,000 mm 0,0 UV-I 0 W/m 3,5 C 5,7 C 0,0 km/h (0 Bft) 91,30 %
03.04.2018 00:26 5,6 C 6,7 C 86 % 1008,0 hPa 0,0 l/m 0,0 km/h (0 Bft) O-SO 109 0 min 0,000 mm 0,0 UV-I 0 W/m 3,4 C 5,6 C 0,0 km/h (0 Bft) 100,00 %
03.04.2018 00:27 5,6 C 6,7 C 86 % 1008,1 hPa 0,0 l/m 0,0 km/h (0 Bft) O-SO 109 0 min 0,000 mm 0,0 UV-I 0 W/m 3,4 C 5,6 C 0,0 km/h (0 Bft) 95,65 %
03.04.2018 00:28 5,6 C 6,7 C 87 % 1008,1 hPa 0,0 l/m 0,0 km/h (0 Bft) O-SO 109 0 min 0,000 mm 0,0 UV-I 0 W/m 3,6 C 5,6 C 0,0 km/h (0 Bft) 100,00 %
03.04.2018 00:29 5,6 C 6,7 C 86 % 1008,2 hPa 0,0 l/m 0,0 km/h (0 Bft) O-SO 109 0 min 0,000 mm 0,0 UV-I 0 W/m 3,4 C 5,6 C 0,0 km/h (0 Bft) 100,00 %
03.04.2018 00:30 5,6 C 6,7 C 86 % 1008,2 hPa 0,0 l/m 0,0 km/h (0 Bft) O-SO 109 0 min 0,000 mm 0,0 UV-I 0 W/m 3,4 C 5,6 C 0,0 km/h (0 Bft) 100,00 %
03.04.2018 00:31 5,6 C 6,7 C 86 % 1008,2 hPa 0,0 l/m 0,0 km/h (0 Bft) O-SO 109 0 min 0,000 mm 0,0 UV-I 0 W/m 3,4 C 5,6 C 0,0 km/h (0 Bft) 100,00 %
03.04.2018 00:32 5,6 C 6,7 C 86 % 1008,2 hPa 0,0 l/m 0,0 km/h (0 Bft) O-SO 109 0 min 0,000 mm 0,0 UV-I 0 W/m 3,4 C 5,6 C 0,0 km/h (0 Bft) 100,00 %
03.04.2018 00:33 5,7 C 6,7 C 86 % 1008,2 hPa 0,0 l/m 0,1 km/h (0 Bft) O-SO 109 0 min 0,000 mm 0,0 UV-I 0 W/m 3,5 C 5,7 C 1,6 km/h (1 Bft) 100,00 %
03.04.2018 00:34 5,8 C 6,7 C 85 % 1008,2 hPa 0,0 l/m 3,4 km/h (1 Bft) S-SO 161 0 min 0,000 mm 0,0 UV-I 0 W/m 3,5 C 5,8 C 6,4 km/h (2 Bft) 100,00 %
03.04.2018 00:35 5,8 C 6,7 C 84 % 1008,2 hPa 0,0 l/m 5,1 km/h (1 Bft) S 188 0 min 0,000 mm 0,0 UV-I 0 W/m 3,3 C 5,8 C 6,4 km/h (2 Bft) 100,00 %
03.04.2018 00:36 5,8 C 6,7 C 84 % 1008,3 hPa 0,0 l/m 5,0 km/h (1 Bft) S 189 0 min 0,000 mm 0,0 UV-I 0 W/m 3,3 C 5,8 C 6,4 km/h (2 Bft) 100,00 %
03.04.2018 00:37 5,8 C 6,7 C 84 % 1008,3 hPa 0,0 l/m 5,2 km/h (1 Bft) S 190 0 min 0,000 mm 0,0 UV-I 0 W/m 3,3 C 5,8 C 6,4 km/h (2 Bft) 100,00 %
03.04.2018 00:38 5,7 C 6,7 C 84 % 1008,3 hPa 0,0 l/m 5,1 km/h (1 Bft) S-SW 194 0 min 0,000 mm 0,0 UV-I 0 W/m 3,2 C 5,7 C 6,4 km/h (2 Bft) 100,00 %
03.04.2018 00:39 5,6 C 6,7 C 85 % 1008,3 hPa 0,0 l/m 4,8 km/h (1 Bft) SW 221 0 min 0,000 mm 0,0 UV-I 0 W/m 3,3 C 5,6 C 6,4 km/h (2 Bft) 100,00 %
03.04.2018 00:40 5,5 C 6,7 C 85 % 1008,3 hPa 0,0 l/m 5,6 km/h (1 Bft) SW 222 0 min 0,000 mm 0,0 UV-I 0 W/m 3,2 C 5,5 C 8,0 km/h (2 Bft) 100,00 %
03.04.2018 00:41 5,5 C 6,7 C 85 % 1008,3 hPa 0,0 l/m 5,0 km/h (1 Bft) SW 221 0 min 0,000 mm 0,0 UV-I 0 W/m 3,2 C 5,5 C 6,4 km/h (2 Bft) 100,00 %
03.04.2018 00:42 5,4 C 6,7 C 86 % 1008,3 hPa 0,0 l/m 4,6 km/h (1 Bft) SW 221 0 min 0,000 mm 0,0 UV-I 0 W/m 3,3 C 5,4 C 4,8 km/h (1 Bft) 100,00 %
03.04.2018 00:43 5,4 C 6,7 C 87 % 1008,2 hPa 0,0 l/m 3,6 km/h (1 Bft) SW 221 0 min 0,000 mm 0,0 UV-I 0 W/m 3,4 C 5,4 C 4,8 km/h (1 Bft) 100,00 %
03.04.2018 00:44 5,4 C 6,7 C 87 % 1008,2 hPa 0,0 l/m 2,3 km/h (1 Bft) SW 221 0 min 0,000 mm 0,0 UV-I 0 W/m 3,4 C 5,4 C 3,2 km/h (1 Bft) 92,31 %
03.04.2018 00:45 5,4 C 6,7 C 87 % 1008,2 hPa 0,0 l/m 3,4 km/h (1 Bft) SW 221 0 min 0,000 mm 0,0 UV-I 0 W/m 3,4 C 5,4 C 4,8 km/h (1 Bft) 95,83 %
03.04.2018 00:46 5,4 C 6,7 C 87 % 1008,2 hPa 0,0 l/m 3,4 km/h (1 Bft) SW 221 0 min 0,000 mm 0,0 UV-I 0 W/m 3,4 C 5,4 C 4,8 km/h (1 Bft) 95,65 %
03.04.2018 00:47 5,4 C 6,7 C 87 % 1008,2 hPa 0,0 l/m 4,1 km/h (1 Bft) SW 221 0 min 0,000 mm 0,0 UV-I 0 W/m 3,4 C 5,4 C 4,8 km/h (1 Bft) 95,83 %
03.04.2018 00:48 5,4 C 6,7 C 87 % 1008,1 hPa 0,0 l/m 4,1 km/h (1 Bft) SW 221 0 min 0,000 mm 0,0 UV-I 0 W/m 3,4 C 5,4 C 4,8 km/h (1 Bft) 100,00 %
03.04.2018 00:49 5,4 C 6,7 C 87 % 1008,1 hPa 0,0 l/m 3,6 km/h (1 Bft) SW 221 0 min 0,000 mm 0,0 UV-I 0 W/m 3,4 C 5,4 C 4,8 km/h (1 Bft) 96,15 %
03.04.2018 00:50 5,4 C 6,7 C 87 % 1008,2 hPa 0,0 l/m 3,8 km/h (1 Bft) SW 221 0 min 0,000 mm 0,0 UV-I 0 W/m 3,4 C 5,4 C 4,8 km/h (1 Bft) 100,00 %
03.04.2018 00:51 5,4 C 6,7 C 87 % 1008,2 hPa 0,0 l/m 4,0 km/h (1 Bft) SW 221 0 min 0,000 mm 0,0 UV-I 0 W/m 3,4 C 5,4 C 4,8 km/h (1 Bft) 95,83 %
03.04.2018 00:52 5,4 C 6,7 C 87 % 1008,2 hPa 0,0 l/m 3,6 km/h (1 Bft) SW 221 0 min 0,000 mm 0,0 UV-I 0 W/m 3,4 C 5,4 C 4,8 km/h (1 Bft) 100,00 %
03.04.2018 00:53 5,4 C 6,7 C 87 % 1008,2 hPa 0,0 l/m 3,2 km/h (1 Bft) SW 221 0 min 0,000 mm 0,0 UV-I 0 W/m 3,4 C 5,4 C 3,2 km/h (1 Bft) 92,31 %
03.04.2018 00:54 5,4 C 6,7 C 87 % 1008,2 hPa 0,0 l/m 3,0 km/h (1 Bft) SW 221 0 min 0,000 mm 0,0 UV-I 0 W/m 3,4 C 5,4 C 3,2 km/h (1 Bft) 95,83 %
03.04.2018 00:55 5,4 C 6,7 C 87 % 1008,2 hPa 0,0 l/m 3,1 km/h (1 Bft) SW 221 0 min 0,000 mm 0,0 UV-I 0 W/m 3,4 C 5,4 C 3,2 km/h (1 Bft) 92,31 %
03.04.2018 00:56 5,3 C 6,7 C 87 % 1008,2 hPa 0,0 l/m 3,0 km/h (1 Bft) SW 221 0 min 0,000 mm 0,0 UV-I 0 W/m 3,3 C 5,3 C 3,2 km/h (1 Bft) 95,83 %
03.04.2018 00:57 5,3 C 6,7 C 87 % 1008,1 hPa 0,0 l/m 3,0 km/h (1 Bft) SW 221 0 min 0,000 mm 0,0 UV-I 0 W/m 3,3 C 5,3 C 3,2 km/h (1 Bft) 100,00 %
03.04.2018 00:58 5,2 C 6,7 C 87 % 1008,1 hPa 0,0 l/m 2,8 km/h (1 Bft) SW 221 0 min 0,000 mm 0,0 UV-I 0 W/m 3,2 C 5,2 C 3,2 km/h (1 Bft) 97,62 %
03.04.2018 00:59 5,1 C 6,7 C 88 % 1008,1 hPa 0,0 l/m 2,4 km/h (1 Bft) SW 221 0 min 0,000 mm 0,0 UV-I 0 W/m 3,3 C 5,1 C 3,2 km/h (1 Bft) 100,00 %
03.04.2018 01:00 5,1 C 6,7 C 88 % 1008,1 hPa 0,0 l/m 1,4 km/h (1 Bft) SW 221 0 min 0,000 mm 0,0 UV-I 0 W/m 3,3 C 5,1 C 3,2 km/h (1 Bft) 96,67 %
03.04.2018 01:01 5,1 C 6,7 C 89 % 1008,1 hPa 0,0 l/m 1,0 km/h (0 Bft) SW 221 0 min 0,000 mm 0,0 UV-I 0 W/m 3,4 C 5,1 C 1,6 km/h (1 Bft) 96,15 %
03.04.2018 01:02 5,1 C 6,7 C 89 % 1008,1 hPa 0,0 l/m 0,6 km/h (0 Bft) SW 221 0 min 0,000 mm 0,0 UV-I 0 W/m 3,4 C 5,1 C 1,6 km/h (1 Bft) 100,00 %
03.04.2018 01:03 5,2 C 6,7 C 88 % 1008,2 hPa 0,0 l/m 0,4 km/h (0 Bft) SW 221 0 min 0,000 mm 0,0 UV-I 0 W/m 3,4 C 5,2 C 1,6 km/h (1 Bft) 100,00 %
03.04.2018 01:04 5,2 C 6,7 C 88 % 1008,2 hPa 0,0 l/m 3,1 km/h (1 Bft) SW 221 0 min 0,000 mm 0,0 UV-I 0 W/m 3,4 C 5,2 C 3,2 km/h (1 Bft) 96,67 %
03.04.2018 01:05 5,4 C 6,7 C 87 % 1008,2 hPa 0,0 l/m 3,0 km/h (1 Bft) SW 221 0 min 0,000 mm 0,0 UV-I 0 W/m 3,4 C 5,4 C 3,2 km/h (1 Bft) 95,65 %
03.04.2018 01:06 5,5 C 6,7 C 86 % 1008,2 hPa 0,0 l/m 2,1 km/h (1 Bft) SW 221 0 min 0,000 mm 0,0 UV-I 0 W/m 3,3 C 5,5 C 3,2 km/h (1 Bft) 100,00 %
03.04.2018 01:07 5,6 C 6,7 C 86 % 1008,3 hPa 0,0 l/m 1,7 km/h (1 Bft) SW 221 0 min 0,000 mm 0,0 UV-I 0 W/m 3,4 C 5,6 C 3,2 km/h (1 Bft) 95,65 %
03.04.2018 01:08 5,7 C 6,7 C 85 % 1008,2 hPa 0,0 l/m 2,1 km/h (1 Bft) SW 221 0 min 0,000 mm 0,0 UV-I 0 W/m 3,4 C 5,7 C 3,2 km/h (1 Bft) 95,83 %
03.04.2018 01:09 5,7 C 6,7 C 85 % 1008,2 hPa 0,0 l/m 1,4 km/h (1 Bft) SW 221 0 min 0,000 mm 0,0 UV-I 0 W/m 3,4 C 5,7 C 1,6 km/h (1 Bft) 96,15 %
03.04.2018 01:10 5,7 C 6,7 C 85 % 1008,2 hPa 0,0 l/m 1,4 km/h (1 Bft) SW 221 0 min 0,000 mm 0,0 UV-I 0 W/m 3,4 C 5,7 C 1,6 km/h (1 Bft) 95,83 %
03.04.2018 01:11 5,7 C 6,7 C 86 % 1008,2 hPa 0,0 l/m 0,5 km/h (0 Bft) SW 221 0 min 0,000 mm 0,0 UV-I 0 W/m 3,5 C 5,7 C 1,6 km/h (1 Bft) 100,00 %
03.04.2018 01:12 5,7 C 6,7 C 85 % 1008,3 hPa 0,0 l/m 0,0 km/h (0 Bft) SW 221 0 min 0,000 mm 0,0 UV-I 0 W/m 3,4 C 5,7 C 0,0 km/h (0 Bft) 100,00 %
03.04.2018 01:13 5,7 C 6,7 C 86 % 1008,2 hPa 0,0 l/m 0,0 km/h (0 Bft) SW 221 0 min 0,000 mm 0,0 UV-I 0 W/m 3,5 C 5,7 C 0,0 km/h (0 Bft) 96,30 %
03.04.2018 01:14 5,6 C 6,7 C 85 % 1008,2 hPa 0,0 l/m 0,0 km/h (0 Bft) SW 221 0 min 0,000 mm 0,0 UV-I 0 W/m 3,3 C 5,6 C 0,0 km/h (0 Bft) 95,65 %
03.04.2018 01:15 5,5 C 6,7 C 85 % 1008,2 hPa 0,0 l/m 0,0 km/h (0 Bft) SW 221 0 min 0,000 mm 0,0 UV-I 0 W/m 3,2 C 5,5 C 0,0 km/h (0 Bft) 100,00 %
03.04.2018 01:16 5,4 C 6,7 C 85 % 1008,2 hPa 0,0 l/m 0,0 km/h (0 Bft) SW 221 0 min 0,000 mm 0,0 UV-I 0 W/m 3,1 C 5,4 C 0,0 km/h (0 Bft) 92,31 %
03.04.2018 01:17 5,3 C 6,7 C 86 % 1008,1 hPa 0,0 l/m 0,0 km/h (0 Bft) SW 221 0 min 0,000 mm 0,0 UV-I 0 W/m 3,2 C 5,3 C 0,0 km/h (0 Bft) 100,00 %
03.04.2018 01:18 5,2 C 6,7 C 86 % 1008,1 hPa 0,0 l/m 0,0 km/h (0 Bft) SW 221 0 min 0,000 mm 0,0 UV-I 0 W/m 3,1 C 5,2 C 0,0 km/h (0 Bft) 92,86 %
03.04.2018 01:19 5,2 C 6,7 C 86 % 1008,1 hPa 0,0 l/m 0,0 km/h (0 Bft) SW 221 0 min 0,000 mm 0,0 UV-I 0 W/m 3,1 C 5,2 C 0,0 km/h (0 Bft) 100,00 %
03.04.2018 01:20 5,2 C 6,7 C 86 % 1008,1 hPa 0,0 l/m 0,0 km/h (0 Bft) SW 221 0 min 0,000 mm 0,0 UV-I 0 W/m 3,1 C 5,2 C 0,0 km/h (0 Bft) 96,15 %
03.04.2018 01:21 5,3 C 6,7 C 86 % 1008,1 hPa 0,0 l/m 0,0 km/h (0 Bft) SW 221 0 min 0,000 mm 0,0 UV-I 0 W/m 3,2 C 5,3 C 0,0 km/h (0 Bft) 95,83 %
03.04.2018 01:22 5,3 C 6,7 C 86 % 1008,1 hPa 0,0 l/m 1,3 km/h (1 Bft) SW 221 0 min 0,000 mm 0,0 UV-I 0 W/m 3,2 C 5,3 C 3,2 km/h (1 Bft) 100,00 %
03.04.2018 01:23 5,3 C 6,7 C 85 % 1008,0 hPa 0,0 l/m 3,8 km/h (1 Bft) SW 221 0 min 0,000 mm 0,0 UV-I 0 W/m 3,0 C 5,3 C 4,8 km/h (1 Bft) 93,33 %
03.04.2018 01:24 5,2 C 6,7 C 85 % 1008,0 hPa 0,0 l/m 3,8 km/h (1 Bft) SW 221 0 min 0,000 mm 0,0 UV-I 0 W/m 2,9 C 5,2 C 4,8 km/h (1 Bft) 100,00 %
03.04.2018 01:25 5,0 C 6,7 C 86 % 1008,0 hPa 0,0 l/m 4,9 km/h (1 Bft) SO 124 0 min 0,000 mm 0,0 UV-I 0 W/m 2,9 C 5,0 C 6,4 km/h (2 Bft) 98,11 %
03.04.2018 01:26 5,1 C 6,7 C 87 % 1007,9 hPa 0,0 l/m 5,1 km/h (1 Bft) O-SO 117 0 min 0,000 mm 0,0 UV-I 0 W/m 3,1 C 5,1 C 6,4 km/h (2 Bft) 95,45 %
03.04.2018 01:27 5,3 C 6,7 C 86 % 1007,9 hPa 0,0 l/m 4,4 km/h (1 Bft) O-SO 117 0 min 0,000 mm 0,0 UV-I 0 W/m 3,2 C 5,3 C 4,8 km/h (1 Bft) 93,33 %
03.04.2018 01:28 5,6 C 6,7 C 85 % 1007,9 hPa 0,0 l/m 3,4 km/h (1 Bft) O-SO 117 0 min 0,000 mm 0,0 UV-I 0 W/m 3,3 C 5,6 C 4,8 km/h (1 Bft) 100,00 %
03.04.2018 01:29 5,7 C 6,7 C 83 % 1007,9 hPa 0,0 l/m 3,1 km/h (1 Bft) O-SO 117 0 min 0,000 mm 0,0 UV-I 0 W/m 3,0 C 5,7 C 4,8 km/h (1 Bft) 100,00 %
03.04.2018 01:30 5,7 C 6,7 C 83 % 1007,9 hPa 0,0 l/m 3,0 km/h (1 Bft) O-SO 117 0 min 0,000 mm 0,0 UV-I 0 W/m 3,0 C 5,7 C 4,8 km/h (1 Bft) 92,59 %
03.04.2018 01:31 5,8 C 6,7 C 83 % 1007,9 hPa 0,0 l/m 3,1 km/h (1 Bft) O-SO 117 0 min 0,000 mm 0,0 UV-I 0 W/m 3,1 C 5,8 C 4,8 km/h (1 Bft) 100,00 %
03.04.2018 01:32 5,8 C 6,7 C 83 % 1007,9 hPa 0,0 l/m 2,5 km/h (1 Bft) O-SO 117 0 min 0,000 mm 0,0 UV-I 0 W/m 3,1 C 5,8 C 3,2 km/h (1 Bft) 94,87 %
03.04.2018 01:33 5,8 C 6,7 C 82 % 1007,9 hPa 0,0 l/m 2,4 km/h (1 Bft) O-SO 117 0 min 0,000 mm 0,0 UV-I 0 W/m 3,0 C 5,8 C 4,8 km/h (1 Bft) 95,65 %
03.04.2018 01:34 5,8 C 6,7 C 82 % 1008,0 hPa 0,0 l/m 1,3 km/h (1 Bft) O-SO 117 0 min 0,000 mm 0,0 UV-I 0 W/m 3,0 C 5,8 C 1,6 km/h (1 Bft) 96,30 %
03.04.2018 01:35 5,7 C 6,7 C 83 % 1008,0 hPa 0,0 l/m 1,7 km/h (1 Bft) O-SO 117 0 min 0,000 mm 0,0 UV-I 0 W/m 3,0 C 5,7 C 3,2 km/h (1 Bft) 95,65 %
03.04.2018 01:36 5,6 C 6,7 C 83 % 1008,0 hPa 0,0 l/m 0,1 km/h (0 Bft) O-SO 117 0 min 0,000 mm 0,0 UV-I 0 W/m 2,9 C 5,6 C 1,6 km/h (1 Bft) 100,00 %
03.04.2018 01:37 5,4 C 6,7 C 83 % 1008,0 hPa 0,0 l/m 0,0 km/h (0 Bft) O-SO 117 0 min 0,000 mm 0,0 UV-I 0 W/m 2,7 C 5,4 C 0,0 km/h (0 Bft) 91,30 %
03.04.2018 01:38 5,3 C 6,7 C 84 % 1008,0 hPa 0,0 l/m 0,0 km/h (0 Bft) O-SO 117 0 min 0,000 mm 0,0 UV-I 0 W/m 2,8 C 5,3 C 0,0 km/h (0 Bft) 96,30 %
03.04.2018 01:39 5,2 C 6,7 C 84 % 1008,0 hPa 0,0 l/m 0,0 km/h (0 Bft) O-SO 117 0 min 0,000 mm 0,0 UV-I 0 W/m 2,7 C 5,2 C 0,0 km/h (0 Bft) 100,00 %
03.04.2018 01:40 5,1 C 6,7 C 85 % 1008,0 hPa 0,0 l/m 0,0 km/h (0 Bft) O-SO 117 0 min 0,000 mm 0,0 UV-I 0 W/m 2,8 C 5,1 C 0,0 km/h (0 Bft) 100,00 %
03.04.2018 01:41 5,0 C 6,7 C 86 % 1007,9 hPa 0,0 l/m 0,0 km/h (0 Bft) O-SO 117 0 min 0,000 mm 0,0 UV-I 0 W/m 2,9 C 5,0 C 0,0 km/h (0 Bft) 83,33 %
03.04.2018 01:42 4,9 C 6,7 C 86 % 1007,9 hPa 0,0 l/m 0,0 km/h (0 Bft) O-SO 117 0 min 0,000 mm 0,0 UV-I 0 W/m 2,8 C 4,9 C 0,0 km/h (0 Bft) 100,00 %
03.04.2018 01:43 4,8 C 6,7 C 86 % 1007,9 hPa 0,0 l/m 0,4 km/h (0 Bft) O-SO 117 0 min 0,000 mm 0,0 UV-I 0 W/m 2,7 C 4,8 C 3,2 km/h (1 Bft) 95,65 %
03.04.2018 01:44 4,8 C 6,7 C 87 % 1007,9 hPa 0,0 l/m 2,7 km/h (1 Bft) O-SO 117 0 min 0,000 mm 0,0 UV-I 0 W/m 2,8 C 4,8 C 3,2 km/h (1 Bft) 100,00 %
03.04.2018 01:45 4,7 C 6,7 C 87 % 1007,9 hPa 0,0 l/m 3,1 km/h (1 Bft) O-SO 117 0 min 0,000 mm 0,0 UV-I 0 W/m 2,7 C 4,7 C 4,8 km/h (1 Bft) 96,15 %
03.04.2018 01:46 4,6 C 6,7 C 87 % 1007,9 hPa 0,0 l/m 2,3 km/h (1 Bft) O-SO 117 0 min 0,000 mm 0,0 UV-I 0 W/m 2,6 C 4,6 C 3,2 km/h (1 Bft) 95,83 %
03.04.2018 01:47 4,5 C 6,7 C 87 % 1007,9 hPa 0,0 l/m 1,9 km/h (1 Bft) O-SO 117 0 min 0,000 mm 0,0 UV-I 0 W/m 2,5 C 4,5 C 3,2 km/h (1 Bft) 100,00 %
03.04.2018 01:48 4,4 C 6,7 C 88 % 1007,9 hPa 0,0 l/m 2,1 km/h (1 Bft) O-SO 117 0 min 0,000 mm 0,0 UV-I 0 W/m 2,6 C 4,4 C 3,2 km/h (1 Bft) 96,30 %
03.04.2018 01:49 4,3 C 6,7 C 88 % 1007,9 hPa 0,0 l/m 1,1 km/h (1 Bft) O-SO 117 0 min 0,000 mm 0,0 UV-I 0 W/m 2,5 C 4,3 C 3,2 km/h (1 Bft) 100,00 %
03.04.2018 01:50 4,3 C 6,7 C 89 % 1007,9 hPa 0,0 l/m 0,0 km/h (0 Bft) O-SO 117 0 min 0,000 mm 0,0 UV-I 0 W/m 2,7 C 4,3 C 0,0 km/h (0 Bft) 93,33 %
03.04.2018 01:51 4,4 C 6,7 C 89 % 1007,9 hPa 0,0 l/m 1,9 km/h (1 Bft) O-SO 117 0 min 0,000 mm 0,0 UV-I 0 W/m 2,7 C 4,4 C 3,2 km/h (1 Bft) 100,00 %
03.04.2018 01:52 4,4 C 6,7 C 88 % 1007,9 hPa 0,0 l/m 3,2 km/h (1 Bft) O-SO 116 0 min 0,000 mm 0,0 UV-I 0 W/m 2,6 C 4,4 C 3,2 km/h (1 Bft) 91,30 %
03.04.2018 01:53 4,5 C 6,7 C 89 % 1007,9 hPa 0,0 l/m 2,3 km/h (1 Bft) O-SO 116 0 min 0,000 mm 0,0 UV-I 0 W/m 2,8 C 4,5 C 3,2 km/h (1 Bft) 100,00 %
03.04.2018 01:54 4,6 C 6,7 C 89 % 1007,9 hPa 0,0 l/m 2,1 km/h (1 Bft) O-SO 116 0 min 0,000 mm 0,0 UV-I 0 W/m 2,9 C 4,6 C 3,2 km/h (1 Bft) 95,65 %
03.04.2018 01:55 4,5 C 6,7 C 88 % 1007,9 hPa 0,0 l/m 1,9 km/h (1 Bft) O-SO 116 0 min 0,000 mm 0,0 UV-I 0 W/m 2,7 C 4,5 C 3,2 km/h (1 Bft) 100,00 %
03.04.2018 01:56 4,4 C 6,7 C 89 % 1007,9 hPa 0,0 l/m 1,1 km/h (1 Bft) O-SO 116 0 min 0,000 mm 0,0 UV-I 0 W/m 2,7 C 4,4 C 1,6 km/h (1 Bft) 96,15 %
03.04.2018 01:57 4,4 C 6,7 C 88 % 1007,8 hPa 0,0 l/m 2,0 km/h (1 Bft) O-SO 116 0 min 0,000 mm 0,0 UV-I 0 W/m 2,6 C 4,4 C 3,2 km/h (1 Bft) 100,00 %
03.04.2018 01:58 4,3 C 6,7 C 89 % 1007,8 hPa 0,0 l/m 4,0 km/h (1 Bft) O-SO 116 0 min 0,000 mm 0,0 UV-I 0 W/m 2,7 C 4,3 C 4,8 km/h (1 Bft) 96,55 %
03.04.2018 01:59 4,4 C 6,7 C 89 % 1007,7 hPa 0,0 l/m 4,8 km/h (1 Bft) O-NO 75 0 min 0,000 mm 0,0 UV-I 0 W/m 2,7 C 4,4 C 6,4 km/h (2 Bft) 100,00 %
03.04.2018 02:00 4,4 C 6,7 C 89 % 1007,7 hPa 0,0 l/m 5,9 km/h (2 Bft) O-NO 65 0 min 0,000 mm 0,0 UV-I 0 W/m 2,7 C 4,4 C 6,4 km/h (2 Bft) 96,15 %
03.04.2018 02:01 4,4 C 6,7 C 89 % 1007,7 hPa 0,0 l/m 5,9 km/h (2 Bft) NO 55 0 min 0,000 mm 0,0 UV-I 0 W/m 2,7 C 4,4 C 6,4 km/h (2 Bft) 91,67 %
03.04.2018 02:02 4,7 C 6,7 C 89 % 1007,7 hPa 0,0 l/m 5,9 km/h (2 Bft) O-NO 63 0 min 0,000 mm 0,0 UV-I 0 W/m 3,0 C 4,7 C 8,0 km/h (2 Bft) 100,00 %
03.04.2018 02:03 4,9 C 6,7 C 88 % 1007,7 hPa 0,0 l/m 5,7 km/h (1 Bft) O-NO 69 0 min 0,000 mm 0,0 UV-I 0 W/m 3,1 C 4,9 C 6,4 km/h (2 Bft) 96,30 %
03.04.2018 02:04 5,1 C 6,7 C 86 % 1007,7 hPa 0,0 l/m 5,6 km/h (1 Bft) O-NO 72 0 min 0,000 mm 0,0 UV-I 0 W/m 3,0 C 5,1 C 6,4 km/h (2 Bft) 95,65 %
03.04.2018 02:05 5,3 C 6,7 C 86 % 1007,6 hPa 0,0 l/m 7,8 km/h (2 Bft) O-NO 69 0 min 0,000 mm 0,0 UV-I 0 W/m 3,2 C 4,1 C 9,7 km/h (2 Bft) 95,83 %
03.04.2018 02:06 5,3 C 6,7 C 85 % 1007,5 hPa 0,0 l/m 8,0 km/h (2 Bft) O-NO 76 0 min 0,000 mm 0,0 UV-I 0 W/m 3,0 C 3,9 C 11,3 km/h (2 Bft) 100,00 %
03.04.2018 02:07 5,4 C 6,7 C 85 % 1007,5 hPa 0,0 l/m 8,1 km/h (2 Bft) O 100 0 min 0,000 mm 0,0 UV-I 0 W/m 3,1 C 3,9 C 11,3 km/h (2 Bft) 95,83 %
03.04.2018 02:08 5,4 C 6,7 C 85 % 1007,5 hPa 0,0 l/m 9,1 km/h (2 Bft) O 99 0 min 0,000 mm 0,0 UV-I 0 W/m 3,1 C 3,2 C 11,3 km/h (2 Bft) 100,00 %
03.04.2018 02:09 5,4 C 6,7 C 84 % 1007,5 hPa 0,0 l/m 11,1 km/h (2 Bft) O 98 0 min 0,000 mm 0,0 UV-I 0 W/m 2,9 C 1,8 C 12,9 km/h (3 Bft) 95,65 %
03.04.2018 02:10 5,4 C 6,7 C 84 % 1007,5 hPa 0,0 l/m 10,2 km/h (2 Bft) O 101 0 min 0,000 mm 0,0 UV-I 0 W/m 2,9 C 2,4 C 11,3 km/h (2 Bft) 100,00 %
03.04.2018 02:11 5,4 C 6,7 C 84 % 1007,5 hPa 0,0 l/m 9,1 km/h (2 Bft) O 98 0 min 0,000 mm 0,0 UV-I 0 W/m 2,9 C 3,2 C 11,3 km/h (2 Bft) 96,15 %
03.04.2018 02:12 5,3 C 6,7 C 84 % 1007,6 hPa 0,0 l/m 5,2 km/h (1 Bft) O 97 0 min 0,000 mm 0,0 UV-I 0 W/m 2,8 C 5,3 C 9,7 km/h (2 Bft) 95,83 %
03.04.2018 02:13 5,3 C 6,7 C 84 % 1007,7 hPa 0,0 l/m 2,3 km/h (1 Bft) S-SO 163 0 min 0,000 mm 0,0 UV-I 0 W/m 2,8 C 5,3 C 4,8 km/h (1 Bft) 100,00 %
03.04.2018 02:14 5,4 C 6,7 C 85 % 1007,8 hPa 0,0 l/m 1,4 km/h (1 Bft) S-SO 163 0 min 0,000 mm 0,0 UV-I 0 W/m 3,1 C 5,4 C 3,2 km/h (1 Bft) 96,30 %
03.04.2018 02:15 5,4 C 6,7 C 84 % 1007,8 hPa 0,0 l/m 1,2 km/h (1 Bft) S-SO 163 0 min 0,000 mm 0,0 UV-I 0 W/m 2,9 C 5,4 C 3,2 km/h (1 Bft) 100,00 %
03.04.2018 02:16 5,6 C 6,7 C 83 % 1007,8 hPa 0,0 l/m 3,1 km/h (1 Bft) S-SO 163 0 min 0,000 mm 0,0 UV-I 0 W/m 2,9 C 5,6 C 3,2 km/h (1 Bft) 95,83 %
03.04.2018 02:17 5,5 C 6,7 C 83 % 1007,8 hPa 0,0 l/m 4,6 km/h (1 Bft) SW 225 0 min 0,000 mm 0,0 UV-I 0 W/m 2,8 C 5,5 C 6,4 km/h (2 Bft) 100,00 %
03.04.2018 02:18 5,3 C 6,7 C 83 % 1007,8 hPa 0,0 l/m 5,2 km/h (1 Bft) SW 230 0 min 0,000 mm 0,0 UV-I 0 W/m 2,7 C 5,3 C 6,4 km/h (2 Bft) 95,83 %
03.04.2018 02:19 5,1 C 6,7 C 84 % 1007,7 hPa 0,0 l/m 3,5 km/h (1 Bft) SW 230 0 min 0,000 mm 0,0 UV-I 0 W/m 2,6 C 5,1 C 4,8 km/h (1 Bft) 100,00 %
03.04.2018 02:20 5,0 C 6,7 C 84 % 1007,7 hPa 0,0 l/m 1,3 km/h (1 Bft) SW 230 0 min 0,000 mm 0,0 UV-I 0 W/m 2,5 C 5,0 C 3,2 km/h (1 Bft) 97,56 %
03.04.2018 02:21 4,9 C 6,7 C 85 % 1007,7 hPa 0,0 l/m 0,2 km/h (0 Bft) SW 230 0 min 0,000 mm 0,0 UV-I 0 W/m 2,6 C 4,9 C 1,6 km/h (1 Bft) 96,15 %
03.04.2018 02:22 4,8 C 6,7 C 85 % 1007,7 hPa 0,0 l/m 1,7 km/h (1 Bft) SO 138 0 min 0,000 mm 0,0 UV-I 0 W/m 2,5 C 4,8 C 3,2 km/h (1 Bft) 100,00 %
03.04.2018 02:23 4,8 C 6,7 C 86 % 1007,7 hPa 0,0 l/m 4,0 km/h (1 Bft) O-SO 123 0 min 0,000 mm 0,0 UV-I 0 W/m 2,7 C 4,8 C 4,8 km/h (1 Bft) 100,00 %
03.04.2018 02:24 4,9 C 6,7 C 86 % 1007,7 hPa 0,0 l/m 3,6 km/h (1 Bft) O-SO 123 0 min 0,000 mm 0,0 UV-I 0 W/m 2,8 C 4,9 C 4,8 km/h (1 Bft) 96,15 %
03.04.2018 02:25 5,1 C 6,7 C 86 % 1007,7 hPa 0,0 l/m 4,3 km/h (1 Bft) O 91 0 min 0,000 mm 0,0 UV-I 0 W/m 3,0 C 5,1 C 6,4 km/h (2 Bft) 95,83 %
03.04.2018 02:26 5,3 C 6,7 C 85 % 1007,7 hPa 0,0 l/m 4,4 km/h (1 Bft) O 90 0 min 0,000 mm 0,0 UV-I 0 W/m 3,0 C 5,3 C 4,8 km/h (1 Bft) 100,00 %
03.04.2018 02:27 5,3 C 6,7 C 84 % 1007,6 hPa 0,0 l/m 4,1 km/h (1 Bft) O 90 0 min 0,000 mm 0,0 UV-I 0 W/m 2,8 C 5,3 C 4,8 km/h (1 Bft) 96,15 %
03.04.2018 02:28 5,3 C 6,7 C 84 % 1007,6 hPa 0,0 l/m 4,2 km/h (1 Bft) O 90 0 min 0,000 mm 0,0 UV-I 0 W/m 2,8 C 5,3 C 4,8 km/h (1 Bft) 100,00 %
03.04.2018 02:29 5,3 C 6,7 C 84 % 1007,6 hPa 0,0 l/m 3,4 km/h (1 Bft) O 90 0 min 0,000 mm 0,0 UV-I 0 W/m 2,8 C 5,3 C 4,8 km/h (1 Bft) 96,30 %
03.04.2018 02:30 5,2 C 6,7 C 84 % 1007,6 hPa 0,0 l/m 3,4 km/h (1 Bft) O 90 0 min 0,000 mm 0,0 UV-I 0 W/m 2,7 C 5,2 C 4,8 km/h (1 Bft) 96,15 %
03.04.2018 02:31 5,1 C 6,7 C 84 % 1007,7 hPa 0,0 l/m 3,9 km/h (1 Bft) O 90 0 min 0,000 mm 0,0 UV-I 0 W/m 2,6 C 5,1 C 4,8 km/h (1 Bft) 95,83 %
03.04.2018 02:32 4,9 C 6,7 C 85 % 1007,6 hPa 0,0 l/m 3,5 km/h (1 Bft) O 90 0 min 0,000 mm 0,0 UV-I 0 W/m 2,6 C 4,9 C 4,8 km/h (1 Bft) 96,55 %
03.04.2018 02:33 4,7 C 6,7 C 86 % 1007,6 hPa 0,0 l/m 3,6 km/h (1 Bft) O 90 0 min 0,000 mm 0,0 UV-I 0 W/m 2,6 C 4,7 C 4,8 km/h (1 Bft) 100,00 %
03.04.2018 02:34 4,7 C 6,7 C 86 % 1007,6 hPa 0,0 l/m 4,0 km/h (1 Bft) O 90 0 min 0,000 mm 0,0 UV-I 0 W/m 2,6 C 4,7 C 4,8 km/h (1 Bft) 92,86 %
03.04.2018 02:35 4,7 C 6,7 C 86 % 1007,6 hPa 0,0 l/m 4,3 km/h (1 Bft) O 90 0 min 0,000 mm 0,0 UV-I 0 W/m 2,6 C 4,7 C 4,8 km/h (1 Bft) 96,30 %
03.04.2018 02:36 4,7 C 6,7 C 87 % 1007,6 hPa 0,0 l/m 2,8 km/h (1 Bft) O 90 0 min 0,000 mm 0,0 UV-I 0 W/m 2,7 C 4,7 C 4,8 km/h (1 Bft) 92,31 %
03.04.2018 02:37 4,7 C 6,7 C 87 % 1007,6 hPa 0,0 l/m 2,7 km/h (1 Bft) O 90 0 min 0,000 mm 0,0 UV-I 0 W/m 2,7 C 4,7 C 4,8 km/h (1 Bft) 100,00 %
03.04.2018 02:38 4,9 C 6,7 C 87 % 1007,6 hPa 0,0 l/m 3,4 km/h (1 Bft) O 90 0 min 0,000 mm 0,0 UV-I 0 W/m 2,9 C 4,9 C 4,8 km/h (1 Bft) 96,15 %
03.04.2018 02:39 4,9 C 6,7 C 86 % 1007,6 hPa 0,0 l/m 4,2 km/h (1 Bft) O 90 0 min 0,000 mm 0,0 UV-I 0 W/m 2,8 C 4,9 C 4,8 km/h (1 Bft) 100,00 %
03.04.2018 02:40 4,8 C 6,7 C 85 % 1007,6 hPa 0,0 l/m 5,0 km/h (1 Bft) O 90 0 min 0,000 mm 0,0 UV-I 0 W/m 2,5 C 4,8 C 6,4 km/h (2 Bft) 100,00 %
03.04.2018 02:41 4,7 C 6,7 C 86 % 1007,5 hPa 0,0 l/m 5,5 km/h (1 Bft) O 90 0 min 0,000 mm 0,0 UV-I 0 W/m 2,6 C 4,7 C 6,4 km/h (2 Bft) 96,00 %
03.04.2018 02:42 4,7 C 6,7 C 87 % 1007,5 hPa 0,0 l/m 4,7 km/h (1 Bft) O 90 0 min 0,000 mm 0,0 UV-I 0 W/m 2,7 C 4,7 C 6,4 km/h (2 Bft) 100,00 %
03.04.2018 02:43 4,8 C 6,7 C 87 % 1007,5 hPa 0,0 l/m 4,3 km/h (1 Bft) O 90 0 min 0,000 mm 0,0 UV-I 0 W/m 2,8 C 4,8 C 4,8 km/h (1 Bft) 100,00 %
03.04.2018 02:44 4,9 C 6,7 C 87 % 1007,5 hPa 0,0 l/m 2,9 km/h (1 Bft) O 90 0 min 0,000 mm 0,0 UV-I 0 W/m 2,9 C 4,9 C 4,8 km/h (1 Bft) 96,15 %
03.04.2018 02:45 4,9 C 6,7 C 86 % 1007,5 hPa 0,0 l/m 1,9 km/h (1 Bft) O 90 0 min 0,000 mm 0,0 UV-I 0 W/m 2,8 C 4,9 C 3,2 km/h (1 Bft) 100,00 %
03.04.2018 02:46 5,1 C 6,7 C 86 % 1007,6 hPa 0,0 l/m 1,5 km/h (1 Bft) O 90 0 min 0,000 mm 0,0 UV-I 0 W/m 3,0 C 5,1 C 1,6 km/h (1 Bft) 100,00 %
03.04.2018 02:47 5,2 C 6,7 C 86 % 1007,5 hPa 0,0 l/m 1,2 km/h (1 Bft) O 90 0 min 0,000 mm 0,0 UV-I 0 W/m 3,1 C 5,2 C 1,6 km/h (1 Bft) 100,00 %
03.04.2018 02:48 5,2 C 6,7 C 85 % 1007,5 hPa 0,0 l/m 1,3 km/h (1 Bft) O 90 0 min 0,000 mm 0,0 UV-I 0 W/m 2,9 C 5,2 C 1,6 km/h (1 Bft) 100,00 %
03.04.2018 02:49 5,1 C 6,7 C 85 % 1007,5 hPa 0,0 l/m 1,9 km/h (1 Bft) O 90 0 min 0,000 mm 0,0 UV-I 0 W/m 2,8 C 5,1 C 3,2 km/h (1 Bft) 96,67 %
03.04.2018 02:50 4,9 C 6,7 C 85 % 1007,5 hPa 0,0 l/m 2,9 km/h (1 Bft) O 90 0 min 0,000 mm 0,0 UV-I 0 W/m 2,6 C 4,9 C 3,2 km/h (1 Bft) 100,00 %
03.04.2018 02:51 4,8 C 6,7 C 85 % 1007,5 hPa 0,0 l/m 2,8 km/h (1 Bft) O 90 0 min 0,000 mm 0,0 UV-I 0 W/m 2,5 C 4,8 C 4,8 km/h (1 Bft) 100,00 %
03.04.2018 02:52 4,6 C 6,7 C 86 % 1007,4 hPa 0,0 l/m 4,2 km/h (1 Bft) O 94 0 min 0,000 mm 0,0 UV-I 0 W/m 2,5 C 4,6 C 6,4 km/h (2 Bft) 100,00 %
03.04.2018 02:53 4,3 C 6,7 C 86 % 1007,5 hPa 0,0 l/m 2,5 km/h (1 Bft) O 94 0 min 0,000 mm 0,0 UV-I 0 W/m 2,2 C 4,3 C 3,2 km/h (1 Bft) 100,00 %
03.04.2018 02:54 4,2 C 6,7 C 87 % 1007,5 hPa 0,0 l/m 3,8 km/h (1 Bft) O 95 0 min 0,000 mm 0,0 UV-I 0 W/m 2,2 C 4,2 C 4,8 km/h (1 Bft) 100,00 %
03.04.2018 02:55 4,0 C 6,7 C 87 % 1007,4 hPa 0,0 l/m 4,0 km/h (1 Bft) O 95 0 min 0,000 mm 0,0 UV-I 0 W/m 2,0 C 4,0 C 4,8 km/h (1 Bft) 100,00 %
03.04.2018 02:56 3,8 C 6,7 C 88 % 1007,4 hPa 0,0 l/m 4,5 km/h (1 Bft) O 98 0 min 0,000 mm 0,0 UV-I 0 W/m 2,0 C 3,8 C 4,8 km/h (1 Bft) 100,00 %
03.04.2018 02:57 3,7 C 6,7 C 88 % 1007,3 hPa 0,0 l/m 5,4 km/h (1 Bft) SO 130 0 min 0,000 mm 0,0 UV-I 0 W/m 1,9 C 3,7 C 6,4 km/h (2 Bft) 100,00 %
03.04.2018 02:58 3,6 C 6,7 C 89 % 1007,3 hPa 0,0 l/m 6,3 km/h (2 Bft) SO 134 0 min 0,000 mm 0,0 UV-I 0 W/m 2,0 C 3,6 C 8,0 km/h (2 Bft) 100,00 %
03.04.2018 02:59 3,7 C 6,7 C 90 % 1007,3 hPa 0,0 l/m 5,3 km/h (1 Bft) SO 137 0 min 0,000 mm 0,0 UV-I 0 W/m 2,2 C 3,7 C 6,4 km/h (2 Bft) 100,00 %
03.04.2018 03:00 3,7 C 6,7 C 90 % 1007,3 hPa 0,0 l/m 7,3 km/h (2 Bft) O-SO 103 0 min 0,000 mm 0,0 UV-I 0 W/m 2,2 C 2,9 C 11,3 km/h (2 Bft) 96,30 %
03.04.2018 03:01 3,7 C 6,7 C 90 % 1007,3 hPa 0,0 l/m 7,4 km/h (2 Bft) O-SO 112 0 min 0,000 mm 0,0 UV-I 0 W/m 2,2 C 2,8 C 11,3 km/h (2 Bft) 100,00 %
03.04.2018 03:02 3,8 C 6,7 C 91 % 1007,3 hPa 0,0 l/m 10,0 km/h (2 Bft) O-SO 117 0 min 0,000 mm 0,0 UV-I 0 W/m 2,5 C 0,7 C 12,9 km/h (3 Bft) 100,00 %
03.04.2018 03:03 4,3 C 6,7 C 90 % 1007,3 hPa 0,0 l/m 5,9 km/h (2 Bft) O-SO 114 0 min 0,000 mm 0,0 UV-I 0 W/m 2,8 C 4,3 C 9,7 km/h (2 Bft) 100,00 %
03.04.2018 03:04 4,8 C 6,7 C 89 % 1007,4 hPa 0,0 l/m 2,1 km/h (1 Bft) SO 126 0 min 0,000 mm 0,0 UV-I 0 W/m 3,1 C 4,8 C 6,4 km/h (2 Bft) 100,00 %
03.04.2018 03:05 5,2 C 6,7 C 87 % 1007,4 hPa 0,0 l/m 5,6 km/h (1 Bft) O 98 0 min 0,000 mm 0,0 UV-I 0 W/m 3,2 C 5,2 C 9,7 km/h (2 Bft) 100,00 %
03.04.2018 03:06 5,6 C 6,7 C 85 % 1007,3 hPa 0,0 l/m 7,6 km/h (2 Bft) O-SO 120 0 min 0,000 mm 0,0 UV-I 0 W/m 3,3 C 4,6 C 11,3 km/h (2 Bft) 100,00 %
03.04.2018 03:07 5,8 C 6,7 C 84 % 1007,4 hPa 0,0 l/m 3,9 km/h (1 Bft) O-SO 110 0 min 0,000 mm 0,0 UV-I 0 W/m 3,3 C 5,8 C 6,4 km/h (2 Bft) 100,00 %
03.04.2018 03:08 5,9 C 6,7 C 81 % 1007,4 hPa 0,0 l/m 4,6 km/h (1 Bft) O-SO 121 0 min 0,000 mm 0,0 UV-I 0 W/m 2,9 C 5,9 C 6,4 km/h (2 Bft) 100,00 %
03.04.2018 03:09 5,7 C 6,7 C 81 % 1007,3 hPa 0,0 l/m 1,7 km/h (1 Bft) O-SO 122 0 min 0,000 mm 0,0 UV-I 0 W/m 2,7 C 5,7 C 3,2 km/h (1 Bft) 100,00 %
03.04.2018 03:10 5,5 C 6,7 C 81 % 1007,4 hPa 0,0 l/m 1,7 km/h (1 Bft) O-SO 122 0 min 0,000 mm 0,0 UV-I 0 W/m 2,5 C 5,5 C 3,2 km/h (1 Bft) 100,00 %
03.04.2018 03:11 5,2 C 6,7 C 82 % 1007,4 hPa 0,0 l/m 1,7 km/h (1 Bft) O-SO 122 0 min 0,000 mm 0,0 UV-I 0 W/m 2,4 C 5,2 C 3,2 km/h (1 Bft) 100,00 %
03.04.2018 03:12 4,8 C 6,7 C 83 % 1007,4 hPa 0,0 l/m 1,8 km/h (1 Bft) O-SO 122 0 min 0,000 mm 0,0 UV-I 0 W/m 2,2 C 4,8 C 3,2 km/h (1 Bft) 100,00 %
03.04.2018 03:14 4,2 C 6,7 C 86 % 1007,4 hPa 0,0 l/m 2,4 km/h (1 Bft) O-SO 122 0 min 0,000 mm 0,0 UV-I 0 W/m 2,1 C 4,2 C 4,8 km/h (1 Bft) 98,00 %
03.04.2018 03:15 4,0 C 6,7 C 87 % 1007,4 hPa 0,0 l/m 3,6 km/h (1 Bft) SO 134 0 min 0,000 mm 0,0 UV-I 0 W/m 2,0 C 4,0 C 4,8 km/h (1 Bft) 100,00 %
03.04.2018 03:16 3,9 C 6,7 C 87 % 1007,5 hPa 0,0 l/m 3,1 km/h (1 Bft) SO 134 0 min 0,000 mm 0,0 UV-I 0 W/m 1,9 C 3,9 C 3,2 km/h (1 Bft) 96,15 %
03.04.2018 03:17 3,8 C 6,7 C 88 % 1007,4 hPa 0,0 l/m 2,7 km/h (1 Bft) SO 134 0 min 0,000 mm 0,0 UV-I 0 W/m 2,0 C 3,8 C 4,8 km/h (1 Bft) 100,00 %
03.04.2018 03:18 3,8 C 6,7 C 88 % 1007,4 hPa 0,0 l/m 1,5 km/h (1 Bft) SO 133 0 min 0,000 mm 0,0 UV-I 0 W/m 2,0 C 3,8 C 3,2 km/h (1 Bft) 93,33 %
03.04.2018 03:19 4,0 C 6,7 C 89 % 1007,4 hPa 0,0 l/m 0,6 km/h (0 Bft) SO 134 0 min 0,000 mm 0,0 UV-I 0 W/m 2,4 C 4,0 C 1,6 km/h (1 Bft) 100,00 %
03.04.2018 03:20 4,1 C 6,7 C 89 % 1007,4 hPa 0,0 l/m 1,8 km/h (1 Bft) SO 130 0 min 0,000 mm 0,0 UV-I 0 W/m 2,5 C 4,1 C 4,8 km/h (1 Bft) 95,65 %
03.04.2018 03:21 4,3 C 6,7 C 89 % 1007,3 hPa 0,0 l/m 1,6 km/h (1 Bft) SO 130 0 min 0,000 mm 0,0 UV-I 0 W/m 2,7 C 4,3 C 3,2 km/h (1 Bft) 100,00 %
03.04.2018 03:22 4,4 C 6,7 C 88 % 1007,3 hPa 0,0 l/m 4,4 km/h (1 Bft) O 94 0 min 0,000 mm 0,0 UV-I 0 W/m 2,6 C 4,4 C 9,7 km/h (2 Bft) 94,74 %
03.04.2018 03:23 4,6 C 6,7 C 87 % 1007,3 hPa 0,0 l/m 2,9 km/h (1 Bft) O 94 0 min 0,000 mm 0,0 UV-I 0 W/m 2,6 C 4,6 C 4,8 km/h (1 Bft) 95,83 %
03.04.2018 03:24 4,6 C 6,7 C 87 % 1007,4 hPa 0,0 l/m 2,1 km/h (1 Bft) O 94 0 min 0,000 mm 0,0 UV-I 0 W/m 2,6 C 4,6 C 3,2 km/h (1 Bft) 100,00 %
03.04.2018 03:25 4,7 C 6,7 C 87 % 1007,3 hPa 0,0 l/m 0,7 km/h (0 Bft) O 94 0 min 0,000 mm 0,0 UV-I 0 W/m 2,7 C 4,7 C 1,6 km/h (1 Bft) 92,31 %
03.04.2018 03:26 4,7 C 6,7 C 86 % 1007,3 hPa 0,0 l/m 2,3 km/h (1 Bft) O 94 0 min 0,000 mm 0,0 UV-I 0 W/m 2,6 C 4,7 C 3,2 km/h (1 Bft) 100,00 %
03.04.2018 03:27 4,7 C 6,7 C 86 % 1007,3 hPa 0,0 l/m 1,8 km/h (1 Bft) O 94 0 min 0,000 mm 0,0 UV-I 0 W/m 2,6 C 4,7 C 3,2 km/h (1 Bft) 91,30 %
03.04.2018 03:28 4,7 C 6,7 C 86 % 1007,2 hPa 0,0 l/m 1,7 km/h (1 Bft) O 94 0 min 0,000 mm 0,0 UV-I 0 W/m 2,6 C 4,7 C 3,2 km/h (1 Bft) 95,83 %
03.04.2018 03:29 4,6 C 6,7 C 86 % 1007,2 hPa 0,0 l/m 0,6 km/h (0 Bft) O 94 0 min 0,000 mm 0,0 UV-I 0 W/m 2,5 C 4,6 C 1,6 km/h (1 Bft) 100,00 %
03.04.2018 03:30 4,6 C 6,7 C 86 % 1007,2 hPa 0,0 l/m 1,1 km/h (1 Bft) O 94 0 min 0,000 mm 0,0 UV-I 0 W/m 2,5 C 4,6 C 3,2 km/h (1 Bft) 100,00 %
03.04.2018 03:31 4,5 C 6,7 C 86 % 1007,2 hPa 0,0 l/m 2,9 km/h (1 Bft) O 94 0 min 0,000 mm 0,0 UV-I 0 W/m 2,4 C 4,5 C 3,2 km/h (1 Bft) 96,15 %
03.04.2018 03:32 4,4 C 6,7 C 87 % 1007,2 hPa 0,0 l/m 3,9 km/h (1 Bft) O 93 0 min 0,000 mm 0,0 UV-I 0 W/m 2,4 C 4,4 C 4,8 km/h (1 Bft) 96,30 %
03.04.2018 03:33 4,2 C 6,7 C 87 % 1007,2 hPa 0,0 l/m 3,0 km/h (1 Bft) O 93 0 min 0,000 mm 0,0 UV-I 0 W/m 2,2 C 4,2 C 4,8 km/h (1 Bft) 100,00 %
03.04.2018 03:34 4,2 C 6,7 C 87 % 1007,2 hPa 0,0 l/m 3,7 km/h (1 Bft) O 93 0 min 0,000 mm 0,0 UV-I 0 W/m 2,2 C 4,2 C 4,8 km/h (1 Bft) 96,30 %
03.04.2018 03:35 4,1 C 6,7 C 88 % 1007,2 hPa 0,0 l/m 3,7 km/h (1 Bft) O 93 0 min 0,000 mm 0,0 UV-I 0 W/m 2,3 C 4,1 C 4,8 km/h (1 Bft) 100,00 %
03.04.2018 03:36 4,2 C 6,7 C 88 % 1007,2 hPa 0,0 l/m 3,5 km/h (1 Bft) O 93 0 min 0,000 mm 0,0 UV-I 0 W/m 2,4 C 4,2 C 4,8 km/h (1 Bft) 95,83 %
03.04.2018 03:37 4,2 C 6,7 C 88 % 1007,2 hPa 0,0 l/m 2,5 km/h (1 Bft) O 93 0 min 0,000 mm 0,0 UV-I 0 W/m 2,4 C 4,2 C 3,2 km/h (1 Bft) 92,86 %
03.04.2018 03:38 4,3 C 6,7 C 88 % 1007,2 hPa 0,0 l/m 2,4 km/h (1 Bft) O 93 0 min 0,000 mm 0,0 UV-I 0 W/m 2,5 C 4,3 C 3,2 km/h (1 Bft) 95,83 %
03.04.2018 03:39 4,4 C 6,7 C 88 % 1007,2 hPa 0,0 l/m 2,0 km/h (1 Bft) O 93 0 min 0,000 mm 0,0 UV-I 0 W/m 2,6 C 4,4 C 3,2 km/h (1 Bft) 95,65 %
03.04.2018 03:40 4,4 C 6,7 C 87 % 1007,3 hPa 0,0 l/m 1,9 km/h (1 Bft) O 93 0 min 0,000 mm 0,0 UV-I 0 W/m 2,4 C 4,4 C 3,2 km/h (1 Bft) 100,00 %
03.04.2018 03:41 4,4 C 6,7 C 87 % 1007,3 hPa 0,0 l/m 0,2 km/h (0 Bft) O 93 0 min 0,000 mm 0,0 UV-I 0 W/m 2,4 C 4,4 C 1,6 km/h (1 Bft) 96,15 %
03.04.2018 03:42 4,3 C 6,7 C 86 % 1007,3 hPa 0,0 l/m 0,2 km/h (0 Bft) O 93 0 min 0,000 mm 0,0 UV-I 0 W/m 2,2 C 4,3 C 1,6 km/h (1 Bft) 100,00 %
03.04.2018 03:43 4,2 C 6,7 C 87 % 1007,3 hPa 0,0 l/m 3,2 km/h (1 Bft) S-SO 155 0 min 0,000 mm 0,0 UV-I 0 W/m 2,2 C 4,2 C 4,8 km/h (1 Bft) 95,83 %
03.04.2018 03:44 4,1 C 6,7 C 87 % 1007,4 hPa 0,0 l/m 4,5 km/h (1 Bft) S-SO 155 0 min 0,000 mm 0,0 UV-I 0 W/m 2,1 C 4,1 C 4,8 km/h (1 Bft) 100,00 %
03.04.2018 03:45 4,0 C 6,7 C 88 % 1007,4 hPa 0,0 l/m 3,8 km/h (1 Bft) S-SO 155 0 min 0,000 mm 0,0 UV-I 0 W/m 2,2 C 4,0 C 4,8 km/h (1 Bft) 97,83 %
03.04.2018 03:46 3,9 C 6,7 C 88 % 1007,4 hPa 0,0 l/m 3,3 km/h (1 Bft) S-SO 155 0 min 0,000 mm 0,0 UV-I 0 W/m 2,1 C 3,9 C 4,8 km/h (1 Bft) 95,45 %
03.04.2018 03:47 3,9 C 6,7 C 88 % 1007,4 hPa 0,0 l/m 2,6 km/h (1 Bft) S-SO 155 0 min 0,000 mm 0,0 UV-I 0 W/m 2,1 C 3,9 C 3,2 km/h (1 Bft) 100,00 %
03.04.2018 03:48 3,8 C 6,7 C 89 % 1007,4 hPa 0,0 l/m 3,1 km/h (1 Bft) S-SO 155 0 min 0,000 mm 0,0 UV-I 0 W/m 2,2 C 3,8 C 3,2 km/h (1 Bft) 95,65 %
03.04.2018 03:49 3,8 C 6,7 C 88 % 1007,4 hPa 0,0 l/m 3,7 km/h (1 Bft) S-SO 155 0 min 0,000 mm 0,0 UV-I 0 W/m 2,0 C 3,8 C 4,8 km/h (1 Bft) 100,00 %
03.04.2018 03:50 3,6 C 6,7 C 88 % 1007,4 hPa 0,0 l/m 3,9 km/h (1 Bft) S-SO 155 0 min 0,000 mm 0,0 UV-I 0 W/m 1,8 C 3,6 C 4,8 km/h (1 Bft) 96,15 %
03.04.2018 03:51 3,4 C 6,7 C 88 % 1007,4 hPa 0,0 l/m 4,6 km/h (1 Bft) S-SO 157 0 min 0,000 mm 0,0 UV-I 0 W/m 1,6 C 3,4 C 4,8 km/h (1 Bft) 100,00 %
03.04.2018 03:52 3,2 C 6,7 C 89 % 1007,4 hPa 0,0 l/m 4,6 km/h (1 Bft) S-SO 157 0 min 0,000 mm 0,0 UV-I 0 W/m 1,6 C 3,2 C 4,8 km/h (1 Bft) 96,15 %
03.04.2018 03:53 3,2 C 6,7 C 90 % 1007,4 hPa 0,0 l/m 3,8 km/h (1 Bft) S-SO 157 0 min 0,000 mm 0,0 UV-I 0 W/m 1,7 C 3,2 C 4,8 km/h (1 Bft) 100,00 %
03.04.2018 03:54 3,2 C 6,7 C 90 % 1007,4 hPa 0,0 l/m 3,1 km/h (1 Bft) S-SO 157 0 min 0,000 mm 0,0 UV-I 0 W/m 1,7 C 3,2 C 3,2 km/h (1 Bft) 95,65 %
03.04.2018 03:55 3,2 C 6,7 C 90 % 1007,3 hPa 0,0 l/m 3,1 km/h (1 Bft) S-SO 157 0 min 0,000 mm 0,0 UV-I 0 W/m 1,7 C 3,2 C 3,2 km/h (1 Bft) 100,00 %
03.04.2018 03:56 3,1 C 6,7 C 90 % 1007,4 hPa 0,0 l/m 3,2 km/h (1 Bft) S-SO 157 0 min 0,000 mm 0,0 UV-I 0 W/m 1,6 C 3,1 C 3,2 km/h (1 Bft) 96,30 %
03.04.2018 03:57 3,1 C 6,7 C 91 % 1007,4 hPa 0,0 l/m 3,4 km/h (1 Bft) S-SO 157 0 min 0,000 mm 0,0 UV-I 0 W/m 1,8 C 3,1 C 4,8 km/h (1 Bft) 100,00 %
03.04.2018 03:58 3,2 C 6,7 C 91 % 1007,4 hPa 0,0 l/m 3,0 km/h (1 Bft) S-SO 157 0 min 0,000 mm 0,0 UV-I 0 W/m 1,9 C 3,2 C 4,8 km/h (1 Bft) 100,00 %
03.04.2018 03:59 3,2 C 6,7 C 91 % 1007,4 hPa 0,0 l/m 2,5 km/h (1 Bft) S-SO 157 0 min 0,000 mm 0,0 UV-I 0 W/m 1,9 C 3,2 C 3,2 km/h (1 Bft) 100,00 %
03.04.2018 04:00 3,3 C 6,7 C 91 % 1007,4 hPa 0,0 l/m 2,0 km/h (1 Bft) S-SO 157 0 min 0,000 mm 0,0 UV-I 0 W/m 2,0 C 3,3 C 3,2 km/h (1 Bft) 96,30 %
03.04.2018 04:01 3,4 C 6,7 C 91 % 1007,5 hPa 0,0 l/m 2,0 km/h (1 Bft) S-SO 157 0 min 0,000 mm 0,0 UV-I 0 W/m 2,1 C 3,4 C 3,2 km/h (1 Bft) 100,00 %
03.04.2018 04:02 3,6 C 6,7 C 91 % 1007,5 hPa 0,0 l/m 2,9 km/h (1 Bft) S-SO 157 0 min 0,000 mm 0,0 UV-I 0 W/m 2,3 C 3,6 C 3,2 km/h (1 Bft) 100,00 %
03.04.2018 04:03 3,7 C 6,7 C 91 % 1007,5 hPa 0,0 l/m 2,7 km/h (1 Bft) S-SO 157 0 min 0,000 mm 0,0 UV-I 0 W/m 2,4 C 3,7 C 3,2 km/h (1 Bft) 97,37 %
03.04.2018 04:04 3,8 C 6,7 C 91 % 1007,5 hPa 0,0 l/m 2,9 km/h (1 Bft) S-SO 157 0 min 0,000 mm 0,0 UV-I 0 W/m 2,5 C 3,8 C 3,2 km/h (1 Bft) 100,00 %
03.04.2018 04:05 3,9 C 6,7 C 90 % 1007,5 hPa 0,0 l/m 2,8 km/h (1 Bft) S-SO 157 0 min 0,000 mm 0,0 UV-I 0 W/m 2,4 C 3,9 C 3,2 km/h (1 Bft) 100,00 %
03.04.2018 04:06 3,9 C 6,7 C 90 % 1007,4 hPa 0,0 l/m 2,9 km/h (1 Bft) S-SO 157 0 min 0,000 mm 0,0 UV-I 0 W/m 2,4 C 3,9 C 3,2 km/h (1 Bft) 100,00 %
03.04.2018 04:07 3,8 C 6,7 C 89 % 1007,4 hPa 0,0 l/m 3,0 km/h (1 Bft) S-SO 157 0 min 0,000 mm 0,0 UV-I 0 W/m 2,2 C 3,8 C 3,2 km/h (1 Bft) 100,00 %
03.04.2018 04:08 3,7 C 6,7 C 88 % 1007,5 hPa 0,0 l/m 2,1 km/h (1 Bft) S-SO 157 0 min 0,000 mm 0,0 UV-I 0 W/m 1,9 C 3,7 C 3,2 km/h (1 Bft) 95,83 %
03.04.2018 04:09 3,6 C 6,7 C 89 % 1007,4 hPa 0,0 l/m 2,2 km/h (1 Bft) S-SO 157 0 min 0,000 mm 0,0 UV-I 0 W/m 2,0 C 3,6 C 3,2 km/h (1 Bft) 100,00 %
03.04.2018 04:10 3,7 C 6,7 C 90 % 1007,4 hPa 0,0 l/m 3,0 km/h (1 Bft) S-SO 157 0 min 0,000 mm 0,0 UV-I 0 W/m 2,2 C 3,7 C 3,2 km/h (1 Bft) 100,00 %
03.04.2018 04:11 3,8 C 6,7 C 91 % 1007,4 hPa 0,0 l/m 3,9 km/h (1 Bft) S-SO 157 0 min 0,000 mm 0,0 UV-I 0 W/m 2,5 C 3,8 C 4,8 km/h (1 Bft) 95,65 %
03.04.2018 04:12 3,7 C 6,7 C 89 % 1007,4 hPa 0,0 l/m 4,2 km/h (1 Bft) S-SO 157 0 min 0,000 mm 0,0 UV-I 0 W/m 2,1 C 3,7 C 4,8 km/h (1 Bft) 96,30 %
03.04.2018 04:13 3,6 C 6,7 C 89 % 1007,3 hPa 0,0 l/m 4,6 km/h (1 Bft) S-SO 158 0 min 0,000 mm 0,0 UV-I 0 W/m 2,0 C 3,6 C 4,8 km/h (1 Bft) 100,00 %
03.04.2018 04:14 3,4 C 6,7 C 89 % 1007,3 hPa 0,0 l/m 4,0 km/h (1 Bft) S-SO 158 0 min 0,000 mm 0,0 UV-I 0 W/m 1,8 C 3,4 C 4,8 km/h (1 Bft) 100,00 %
03.04.2018 04:15 3,2 C 6,7 C 90 % 1007,3 hPa 0,0 l/m 3,4 km/h (1 Bft) S-SO 158 0 min 0,000 mm 0,0 UV-I 0 W/m 1,7 C 3,2 C 4,8 km/h (1 Bft) 95,65 %
03.04.2018 04:16 3,1 C 6,7 C 90 % 1007,3 hPa 0,0 l/m 3,8 km/h (1 Bft) S-SO 158 0 min 0,000 mm 0,0 UV-I 0 W/m 1,6 C 3,1 C 4,8 km/h (1 Bft) 100,00 %
03.04.2018 04:17 3,0 C 6,7 C 90 % 1007,3 hPa 0,0 l/m 3,8 km/h (1 Bft) S-SO 158 0 min 0,000 mm 0,0 UV-I 0 W/m 1,5 C 3,0 C 4,8 km/h (1 Bft) 100,00 %
03.04.2018 04:18 2,9 C 6,7 C 90 % 1007,3 hPa 0,0 l/m 3,0 km/h (1 Bft) S-SO 158 0 min 0,000 mm 0,0 UV-I 0 W/m 1,4 C 2,9 C 4,8 km/h (1 Bft) 100,00 %
03.04.2018 04:19 2,8 C 6,7 C 91 % 1007,3 hPa 0,0 l/m 2,7 km/h (1 Bft) S-SO 158 0 min 0,000 mm 0,0 UV-I 0 W/m 1,5 C 2,8 C 3,2 km/h (1 Bft) 100,00 %
03.04.2018 04:20 2,9 C 6,7 C 91 % 1007,3 hPa 0,0 l/m 2,9 km/h (1 Bft) S-SO 158 0 min 0,000 mm 0,0 UV-I 0 W/m 1,6 C 2,9 C 3,2 km/h (1 Bft) 100,00 %
03.04.2018 04:21 3,0 C 6,7 C 92 % 1007,3 hPa 0,0 l/m 2,4 km/h (1 Bft) S-SO 158 0 min 0,000 mm 0,0 UV-I 0 W/m 1,8 C 3,0 C 3,2 km/h (1 Bft) 100,00 %
03.04.2018 04:22 3,1 C 6,7 C 92 % 1007,3 hPa 0,0 l/m 1,1 km/h (1 Bft) S-SO 158 0 min 0,000 mm 0,0 UV-I 0 W/m 1,9 C 3,1 C 1,6 km/h (1 Bft) 100,00 %
03.04.2018 04:23 3,1 C 6,7 C 92 % 1007,3 hPa 0,0 l/m 0,0 km/h (0 Bft) S-SO 158 0 min 0,000 mm 0,0 UV-I 0 W/m 1,9 C 3,1 C 0,0 km/h (0 Bft) 91,67 %
03.04.2018 04:24 3,2 C 6,7 C 92 % 1007,3 hPa 0,0 l/m 0,0 km/h (0 Bft) S-SO 158 0 min 0,000 mm 0,0 UV-I 0 W/m 2,0 C 3,2 C 0,0 km/h (0 Bft) 100,00 %
03.04.2018 04:25 3,3 C 6,7 C 92 % 1007,3 hPa 0,0 l/m 0,5 km/h (0 Bft) S-SO 158 0 min 0,000 mm 0,0 UV-I 0 W/m 2,1 C 3,3 C 1,6 km/h (1 Bft) 100,00 %
03.04.2018 04:26 3,3 C 6,7 C 91 % 1007,3 hPa 0,0 l/m 1,4 km/h (1 Bft) S-SO 158 0 min 0,000 mm 0,0 UV-I 0 W/m 2,0 C 3,3 C 1,6 km/h (1 Bft) 100,00 %
03.04.2018 04:27 3,3 C 6,7 C 91 % 1007,3 hPa 0,0 l/m 0,2 km/h (0 Bft) S-SO 158 0 min 0,000 mm 0,0 UV-I 0 W/m 2,0 C 3,3 C 1,6 km/h (1 Bft) 100,00 %
03.04.2018 04:28 3,4 C 6,7 C 92 % 1007,2 hPa 0,0 l/m 0,0 km/h (0 Bft) S-SO 158 0 min 0,000 mm 0,0 UV-I 0 W/m 2,2 C 3,4 C 0,0 km/h (0 Bft) 95,65 %
03.04.2018 04:29 3,5 C 6,7 C 91 % 1007,2 hPa 0,0 l/m 0,0 km/h (0 Bft) S-SO 158 0 min 0,000 mm 0,0 UV-I 0 W/m 2,2 C 3,5 C 0,0 km/h (0 Bft) 100,00 %
03.04.2018 04:30 3,5 C 6,7 C 91 % 1007,2 hPa 0,0 l/m 0,0 km/h (0 Bft) S-SO 158 0 min 0,000 mm 0,0 UV-I 0 W/m 2,2 C 3,5 C 0,0 km/h (0 Bft) 100,00 %
03.04.2018 04:31 3,4 C 6,7 C 90 % 1007,1 hPa 0,0 l/m 0,0 km/h (0 Bft) S-SO 158 0 min 0,000 mm 0,0 UV-I 0 W/m 1,9 C 3,4 C 0,0 km/h (0 Bft) 100,00 %
03.04.2018 04:32 3,4 C 6,7 C 91 % 1007,2 hPa 0,0 l/m 0,0 km/h (0 Bft) S-SO 158 0 min 0,000 mm 0,0 UV-I 0 W/m 2,1 C 3,4 C 0,0 km/h (0 Bft) 100,00 %
03.04.2018 04:33 3,4 C 6,7 C 91 % 1007,1 hPa 0,0 l/m 0,4 km/h (0 Bft) S-SO 158 0 min 0,000 mm 0,0 UV-I 0 W/m 2,1 C 3,4 C 1,6 km/h (1 Bft) 100,00 %
03.04.2018 04:34 3,4 C 6,7 C 91 % 1007,1 hPa 0,0 l/m 1,8 km/h (1 Bft) S-SO 157 0 min 0,000 mm 0,0 UV-I 0 W/m 2,1 C 3,4 C 3,2 km/h (1 Bft) 95,65 %
03.04.2018 04:35 3,5 C 6,7 C 91 % 1007,1 hPa 0,0 l/m 2,5 km/h (1 Bft) S-SO 157 0 min 0,000 mm 0,0 UV-I 0 W/m 2,2 C 3,5 C 3,2 km/h (1 Bft) 100,00 %
03.04.2018 04:36 3,5 C 6,7 C 91 % 1007,1 hPa 0,0 l/m 3,1 km/h (1 Bft) S-SO 157 0 min 0,000 mm 0,0 UV-I 0 W/m 2,2 C 3,5 C 3,2 km/h (1 Bft) 100,00 %
03.04.2018 04:37 3,6 C 6,7 C 91 % 1007,1 hPa 0,0 l/m 3,4 km/h (1 Bft) S-SO 157 0 min 0,000 mm 0,0 UV-I 0 W/m 2,3 C 3,6 C 4,8 km/h (1 Bft) 100,00 %
03.04.2018 04:38 3,7 C 6,7 C 91 % 1007,1 hPa 0,0 l/m 3,0 km/h (1 Bft) S-SO 157 0 min 0,000 mm 0,0 UV-I 0 W/m 2,4 C 3,7 C 3,2 km/h (1 Bft) 100,00 %
03.04.2018 04:39 3,8 C 6,7 C 91 % 1007,1 hPa 0,0 l/m 2,2 km/h (1 Bft) S-SO 157 0 min 0,000 mm 0,0 UV-I 0 W/m 2,5 C 3,8 C 3,2 km/h (1 Bft) 96,15 %
03.04.2018 04:40 3,8 C 6,7 C 91 % 1007,1 hPa 0,0 l/m 3,1 km/h (1 Bft) S-SO 157 0 min 0,000 mm 0,0 UV-I 0 W/m 2,5 C 3,8 C 4,8 km/h (1 Bft) 100,00 %
03.04.2018 04:41 3,8 C 6,7 C 90 % 1007,1 hPa 0,0 l/m 1,2 km/h (1 Bft) S-SO 157 0 min 0,000 mm 0,0 UV-I 0 W/m 2,3 C 3,8 C 3,2 km/h (1 Bft) 96,30 %
03.04.2018 04:42 3,8 C 6,7 C 90 % 1007,1 hPa 0,0 l/m 2,6 km/h (1 Bft) S-SO 157 0 min 0,000 mm 0,0 UV-I 0 W/m 2,3 C 3,8 C 3,2 km/h (1 Bft) 100,00 %
03.04.2018 04:43 3,6 C 6,7 C 89 % 1007,1 hPa 0,0 l/m 2,0 km/h (1 Bft) S-SO 157 0 min 0,000 mm 0,0 UV-I 0 W/m 2,0 C 3,6 C 3,2 km/h (1 Bft) 100,00 %
03.04.2018 04:44 3,5 C 6,7 C 90 % 1007,1 hPa 0,0 l/m 1,3 km/h (1 Bft) S-SO 157 0 min 0,000 mm 0,0 UV-I 0 W/m 2,0 C 3,5 C 1,6 km/h (1 Bft) 100,00 %
03.04.2018 04:45 3,3 C 6,7 C 90 % 1007,1 hPa 0,0 l/m 1,9 km/h (1 Bft) S-SO 157 0 min 0,000 mm 0,0 UV-I 0 W/m 1,8 C 3,3 C 3,2 km/h (1 Bft) 100,00 %
03.04.2018 04:46 3,3 C 6,7 C 91 % 1007,1 hPa 0,0 l/m 2,1 km/h (1 Bft) S-SO 157 0 min 0,000 mm 0,0 UV-I 0 W/m 2,0 C 3,3 C 3,2 km/h (1 Bft) 100,00 %
03.04.2018 04:47 3,3 C 6,7 C 91 % 1007,1 hPa 0,0 l/m 3,2 km/h (1 Bft) S-SO 157 0 min 0,000 mm 0,0 UV-I 0 W/m 2,0 C 3,3 C 3,2 km/h (1 Bft) 100,00 %
03.04.2018 04:48 3,3 C 6,7 C 91 % 1007,1 hPa 0,0 l/m 2,7 km/h (1 Bft) S-SO 157 0 min 0,000 mm 0,0 UV-I 0 W/m 2,0 C 3,3 C 3,2 km/h (1 Bft) 100,00 %
03.04.2018 04:49 3,2 C 6,7 C 91 % 1007,1 hPa 0,0 l/m 3,2 km/h (1 Bft) S-SO 157 0 min 0,000 mm 0,0 UV-I 0 W/m 1,9 C 3,2 C 3,2 km/h (1 Bft) 100,00 %
03.04.2018 04:50 3,3 C 6,7 C 91 % 1007,2 hPa 0,0 l/m 2,5 km/h (1 Bft) S-SO 157 0 min 0,000 mm 0,0 UV-I 0 W/m 2,0 C 3,3 C 3,2 km/h (1 Bft) 100,00 %
03.04.2018 04:51 3,3 C 6,7 C 91 % 1007,2 hPa 0,0 l/m 2,6 km/h (1 Bft) S-SO 157 0 min 0,000 mm 0,0 UV-I 0 W/m 2,0 C 3,3 C 3,2 km/h (1 Bft) 100,00 %
03.04.2018 04:52 3,3 C 6,7 C 92 % 1007,2 hPa 0,0 l/m 1,3 km/h (1 Bft) S-SO 157 0 min 0,000 mm 0,0 UV-I 0 W/m 2,1 C 3,3 C 3,2 km/h (1 Bft) 96,30 %
03.04.2018 04:53 3,3 C 6,7 C 92 % 1007,2 hPa 0,0 l/m 0,0 km/h (0 Bft) S-SO 157 0 min 0,000 mm 0,0 UV-I 0 W/m 2,1 C 3,3 C 0,0 km/h (0 Bft) 100,00 %
03.04.2018 04:54 3,3 C 6,7 C 91 % 1007,2 hPa 0,0 l/m 0,0 km/h (0 Bft) S-SO 157 0 min 0,000 mm 0,0 UV-I 0 W/m 2,0 C 3,3 C 0,0 km/h (0 Bft) 100,00 %
03.04.2018 04:55 3,3 C 6,7 C 91 % 1007,3 hPa 0,0 l/m 0,0 km/h (0 Bft) S-SO 157 0 min 0,000 mm 0,0 UV-I 0 W/m 2,0 C 3,3 C 0,0 km/h (0 Bft) 100,00 %
03.04.2018 04:56 3,3 C 6,7 C 91 % 1007,3 hPa 0,0 l/m 0,0 km/h (0 Bft) S-SO 157 0 min 0,000 mm 0,0 UV-I 0 W/m 2,0 C 3,3 C 0,0 km/h (0 Bft) 100,00 %
03.04.2018 04:57 3,3 C 6,7 C 91 % 1007,3 hPa 0,0 l/m 0,1 km/h (0 Bft) S-SO 157 0 min 0,000 mm 0,0 UV-I 0 W/m 2,0 C 3,3 C 1,6 km/h (1 Bft) 100,00 %
03.04.2018 04:58 3,3 C 6,7 C 91 % 1007,3 hPa 0,0 l/m 1,9 km/h (1 Bft) S-SO 157 0 min 0,000 mm 0,0 UV-I 0 W/m 2,0 C 3,3 C 3,2 km/h (1 Bft) 95,83 %
03.04.2018 04:59 3,3 C 6,7 C 92 % 1007,3 hPa 0,0 l/m 3,1 km/h (1 Bft) S-SO 157 0 min 0,000 mm 0,0 UV-I 0 W/m 2,1 C 3,3 C 3,2 km/h (1 Bft) 100,00 %
03.04.2018 05:00 3,3 C 6,7 C 91 % 1007,3 hPa 0,0 l/m 2,5 km/h (1 Bft) S-SO 157 0 min 0,000 mm 0,0 UV-I 0 W/m 2,0 C 3,3 C 3,2 km/h (1 Bft) 100,00 %
03.04.2018 05:01 3,2 C 6,7 C 91 % 1007,4 hPa 0,0 l/m 1,3 km/h (1 Bft) S-SO 157 0 min 0,000 mm 0,0 UV-I 0 W/m 1,9 C 3,2 C 3,2 km/h (1 Bft) 95,83 %
03.04.2018 05:02 3,1 C 6,7 C 91 % 1007,3 hPa 0,0 l/m 0,1 km/h (0 Bft) S-SO 157 0 min 0,000 mm 0,0 UV-I 0 W/m 1,8 C 3,1 C 1,6 km/h (1 Bft) 100,00 %
03.04.2018 05:03 3,0 C 6,7 C 91 % 1007,5 hPa 0,0 l/m 0,0 km/h (0 Bft) S-SO 157 0 min 0,000 mm 0,0 UV-I 0 W/m 1,7 C 3,0 C 0,0 km/h (0 Bft) 100,00 %
03.04.2018 05:04 2,9 C 6,7 C 91 % 1007,6 hPa 0,0 l/m 0,0 km/h (0 Bft) S-SO 157 0 min 0,000 mm 0,0 UV-I 0 W/m 1,6 C 2,9 C 0,0 km/h (0 Bft) 100,00 %
03.04.2018 05:05 2,8 C 6,7 C 91 % 1007,6 hPa 0,0 l/m 0,7 km/h (0 Bft) S-SO 157 0 min 0,000 mm 0,0 UV-I 0 W/m 1,5 C 2,8 C 3,2 km/h (1 Bft) 100,00 %
03.04.2018 05:06 2,8 C 6,7 C 92 % 1007,6 hPa 0,0 l/m 2,4 km/h (1 Bft) S-SO 157 0 min 0,000 mm 0,0 UV-I 0 W/m 1,6 C 2,8 C 3,2 km/h (1 Bft) 100,00 %
03.04.2018 05:07 2,8 C 6,7 C 92 % 1007,6 hPa 0,0 l/m 2,1 km/h (1 Bft) S-SO 158 0 min 0,000 mm 0,0 UV-I 0 W/m 1,6 C 2,8 C 3,2 km/h (1 Bft) 100,00 %
03.04.2018 05:08 2,8 C 6,7 C 92 % 1007,6 hPa 0,0 l/m 1,7 km/h (1 Bft) S-SO 158 0 min 0,000 mm 0,0 UV-I 0 W/m 1,6 C 2,8 C 3,2 km/h (1 Bft) 100,00 %
03.04.2018 05:09 2,8 C 6,7 C 92 % 1007,6 hPa 0,0 l/m 2,1 km/h (1 Bft) S-SO 158 0 min 0,000 mm 0,0 UV-I 0 W/m 1,6 C 2,8 C 3,2 km/h (1 Bft) 100,00 %
03.04.2018 05:10 2,8 C 6,7 C 92 % 1007,6 hPa 0,0 l/m 1,6 km/h (1 Bft) S-SO 158 0 min 0,000 mm 0,0 UV-I 0 W/m 1,6 C 2,8 C 3,2 km/h (1 Bft) 100,00 %
03.04.2018 05:11 2,9 C 6,7 C 92 % 1007,6 hPa 0,0 l/m 0,4 km/h (0 Bft) S-SO 158 0 min 0,000 mm 0,0 UV-I 0 W/m 1,7 C 2,9 C 1,6 km/h (1 Bft) 91,67 %
03.04.2018 05:12 2,9 C 6,7 C 92 % 1007,6 hPa 0,0 l/m 0,0 km/h (0 Bft) S-SO 158 0 min 0,000 mm 0,0 UV-I 0 W/m 1,7 C 2,9 C 0,0 km/h (0 Bft) 96,55 %
03.04.2018 05:13 2,9 C 6,7 C 92 % 1007,5 hPa 0,0 l/m 0,0 km/h (0 Bft) S-SO 158 0 min 0,000 mm 0,0 UV-I 0 W/m 1,7 C 2,9 C 0,0 km/h (0 Bft) 100,00 %
03.04.2018 05:14 2,9 C 6,7 C 92 % 1007,5 hPa 0,0 l/m 0,0 km/h (0 Bft) S-SO 158 0 min 0,000 mm 0,0 UV-I 0 W/m 1,7 C 2,9 C 0,0 km/h (0 Bft) 100,00 %
03.04.2018 05:15 2,8 C 6,7 C 92 % 1007,5 hPa 0,0 l/m 0,0 km/h (0 Bft) S-SO 158 0 min 0,000 mm 0,0 UV-I 0 W/m 1,6 C 2,8 C 0,0 km/h (0 Bft) 100,00 %
03.04.2018 05:16 2,8 C 6,7 C 92 % 1007,5 hPa 0,0 l/m 0,0 km/h (0 Bft) S-SO 158 0 min 0,000 mm 0,0 UV-I 0 W/m 1,6 C 2,8 C 0,0 km/h (0 Bft) 100,00 %
03.04.2018 05:17 2,7 C 6,7 C 92 % 1007,5 hPa 0,0 l/m 0,1 km/h (0 Bft) S-SO 158 0 min 0,000 mm 0,0 UV-I 0 W/m 1,5 C 2,7 C 1,6 km/h (1 Bft) 100,00 %
03.04.2018 05:18 2,7 C 6,7 C 92 % 1007,5 hPa 0,0 l/m 1,3 km/h (1 Bft) S-SO 158 0 min 0,000 mm 0,0 UV-I 0 W/m 1,5 C 2,7 C 1,6 km/h (1 Bft) 100,00 %
03.04.2018 05:19 2,7 C 6,7 C 93 % 1007,5 hPa 0,0 l/m 1,6 km/h (1 Bft) S-SO 158 0 min 0,000 mm 0,0 UV-I 0 W/m 1,7 C 2,7 C 1,6 km/h (1 Bft) 100,00 %
03.04.2018 05:20 2,7 C 6,7 C 93 % 1007,5 hPa 0,0 l/m 0,6 km/h (0 Bft) S-SO 158 0 min 0,000 mm 0,0 UV-I 0 W/m 1,7 C 2,7 C 1,6 km/h (1 Bft) 91,67 %
03.04.2018 05:21 2,7 C 6,7 C 93 % 1007,5 hPa 0,0 l/m 0,0 km/h (0 Bft) S-SO 158 0 min 0,000 mm 0,0 UV-I 0 W/m 1,7 C 2,7 C 0,0 km/h (0 Bft) 95,65 %
03.04.2018 05:22 2,7 C 6,7 C 93 % 1007,5 hPa 0,0 l/m 0,0 km/h (0 Bft) S-SO 158 0 min 0,000 mm 0,0 UV-I 0 W/m 1,7 C 2,7 C 0,0 km/h (0 Bft) 96,30 %
03.04.2018 05:23 2,7 C 6,7 C 93 % 1007,4 hPa 0,0 l/m 0,0 km/h (0 Bft) S-SO 158 0 min 0,000 mm 0,0 UV-I 0 W/m 1,7 C 2,7 C 0,0 km/h (0 Bft) 95,65 %
03.04.2018 05:24 2,7 C 6,7 C 93 % 1007,5 hPa 0,0 l/m 0,2 km/h (0 Bft) S-SO 157 0 min 0,000 mm 0,0 UV-I 0 W/m 1,7 C 2,7 C 1,6 km/h (1 Bft) 96,30 %
03.04.2018 05:25 2,8 C 6,7 C 93 % 1007,4 hPa 0,0 l/m 0,9 km/h (0 Bft) S-SO 157 0 min 0,000 mm 0,0 UV-I 0 W/m 1,8 C 2,8 C 1,6 km/h (1 Bft) 100,00 %
03.04.2018 05:26 2,8 C 6,7 C 93 % 1007,4 hPa 0,0 l/m 1,0 km/h (0 Bft) S-SO 157 0 min 0,000 mm 0,0 UV-I 0 W/m 1,8 C 2,8 C 1,6 km/h (1 Bft) 93,33 %
03.04.2018 05:27 2,8 C 6,7 C 93 % 1007,4 hPa 0,0 l/m 0,0 km/h (0 Bft) S-SO 157 0 min 0,000 mm 0,0 UV-I 0 W/m 1,8 C 2,8 C 0,0 km/h (0 Bft) 100,00 %
03.04.2018 05:28 2,8 C 6,7 C 93 % 1007,3 hPa 0,0 l/m 0,0 km/h (0 Bft) S-SO 157 0 min 0,000 mm 0,0 UV-I 0 W/m 1,8 C 2,8 C 0,0 km/h (0 Bft) 96,30 %
03.04.2018 05:29 2,9 C 6,7 C 93 % 1007,3 hPa 0,0 l/m 0,0 km/h (0 Bft) S-SO 157 0 min 0,000 mm 0,0 UV-I 0 W/m 1,9 C 2,9 C 0,0 km/h (0 Bft) 100,00 %
03.04.2018 05:30 2,9 C 6,7 C 93 % 1007,4 hPa 0,0 l/m 0,0 km/h (0 Bft) S-SO 157 0 min 0,000 mm 0,0 UV-I 0 W/m 1,9 C 2,9 C 0,0 km/h (0 Bft) 95,83 %
03.04.2018 05:31 2,9 C 6,7 C 93 % 1007,4 hPa 0,0 l/m 0,0 km/h (0 Bft) S-SO 157 0 min 0,000 mm 0,0 UV-I 0 W/m 1,9 C 2,9 C 0,0 km/h (0 Bft) 95,65 %
03.04.2018 05:32 2,9 C 6,7 C 93 % 1007,4 hPa 0,0 l/m 0,0 km/h (0 Bft) S-SO 157 0 min 0,000 mm 0,0 UV-I 0 W/m 1,9 C 2,9 C 0,0 km/h (0 Bft) 95,83 %
03.04.2018 05:33 2,9 C 6,7 C 93 % 1007,4 hPa 0,0 l/m 0,0 km/h (0 Bft) S-SO 157 0 min 0,000 mm 0,0 UV-I 0 W/m 1,9 C 2,9 C 0,0 km/h (0 Bft) 95,65 %
03.04.2018 05:34 2,9 C 6,7 C 93 % 1007,4 hPa 0,0 l/m 0,0 km/h (0 Bft) S-SO 157 0 min 0,000 mm 0,0 UV-I 0 W/m 1,9 C 2,9 C 0,0 km/h (0 Bft) 100,00 %
03.04.2018 05:35 2,9 C 6,7 C 93 % 1007,4 hPa 0,0 l/m 0,0 km/h (0 Bft) S-SO 157 0 min 0,000 mm 0,0 UV-I 0 W/m 1,9 C 2,9 C 0,0 km/h (0 Bft) 95,65 %
03.04.2018 05:36 2,9 C 6,7 C 93 % 1007,4 hPa 0,0 l/m 1,6 km/h (1 Bft) S-SO 157 0 min 0,000 mm 0,0 UV-I 0 W/m 1,9 C 2,9 C 3,2 km/h (1 Bft) 100,00 %
03.04.2018 05:37 2,9 C 6,7 C 93 % 1007,4 hPa 0,0 l/m 2,2 km/h (1 Bft) S-SO 157 0 min 0,000 mm 0,0 UV-I 0 W/m 1,9 C 2,9 C 3,2 km/h (1 Bft) 92,59 %
03.04.2018 05:38 2,9 C 6,7 C 93 % 1007,4 hPa 0,0 l/m 2,3 km/h (1 Bft) S-SO 157 0 min 0,000 mm 0,0 UV-I 0 W/m 1,9 C 2,9 C 3,2 km/h (1 Bft) 100,00 %
03.04.2018 05:39 2,8 C 6,7 C 92 % 1007,5 hPa 0,0 l/m 1,2 km/h (1 Bft) S-SO 157 0 min 0,000 mm 0,0 UV-I 0 W/m 1,6 C 2,8 C 1,6 km/h (1 Bft) 96,30 %
03.04.2018 05:40 2,8 C 6,7 C 93 % 1007,6 hPa 0,0 l/m 0,1 km/h (0 Bft) S-SO 157 0 min 0,000 mm 0,0 UV-I 0 W/m 1,8 C 2,8 C 1,6 km/h (1 Bft) 100,00 %
03.04.2018 05:41 2,8 C 6,7 C 93 % 1007,6 hPa 0,0 l/m 0,2 km/h (0 Bft) S-SO 157 0 min 0,000 mm 0,0 UV-I 0 W/m 1,8 C 2,8 C 1,6 km/h (1 Bft) 95,83 %
03.04.2018 05:42 2,8 C 6,7 C 93 % 1007,6 hPa 0,0 l/m 1,5 km/h (1 Bft) S-SO 157 0 min 0,000 mm 0,0 UV-I 0 W/m 1,8 C 2,8 C 1,6 km/h (1 Bft) 88,46 %
03.04.2018 05:43 2,8 C 6,7 C 93 % 1007,6 hPa 0,0 l/m 1,5 km/h (1 Bft) S-SO 157 0 min 0,000 mm 0,0 UV-I 0 W/m 1,8 C 2,8 C 3,2 km/h (1 Bft) 100,00 %
03.04.2018 05:44 2,8 C 6,7 C 93 % 1007,7 hPa 0,0 l/m 1,5 km/h (1 Bft) S-SO 157 0 min 0,000 mm 0,0 UV-I 0 W/m 1,8 C 2,8 C 1,6 km/h (1 Bft) 92,31 %
03.04.2018 05:45 2,8 C 6,7 C 93 % 1007,7 hPa 0,0 l/m 1,5 km/h (1 Bft) S-SO 157 0 min 0,000 mm 0,0 UV-I 0 W/m 1,8 C 2,8 C 1,6 km/h (1 Bft) 100,00 %
03.04.2018 05:46 2,8 C 6,7 C 93 % 1007,8 hPa 0,0 l/m 1,0 km/h (0 Bft) S-SO 157 0 min 0,000 mm 0,0 UV-I 0 W/m 1,8 C 2,8 C 1,6 km/h (1 Bft) 96,15 %
03.04.2018 05:47 2,8 C 6,7 C 93 % 1007,8 hPa 0,0 l/m 0,7 km/h (0 Bft) S-SO 157 0 min 0,000 mm 0,0 UV-I 0 W/m 1,8 C 2,8 C 1,6 km/h (1 Bft) 100,00 %
03.04.2018 05:48 2,7 C 6,7 C 93 % 1007,8 hPa 0,0 l/m 0,1 km/h (0 Bft) S-SO 157 0 min 0,000 mm 0,0 UV-I 0 W/m 1,7 C 2,7 C 1,6 km/h (1 Bft) 91,30 %
03.04.2018 05:49 2,7 C 6,7 C 93 % 1007,8 hPa 0,0 l/m 0,0 km/h (0 Bft) S-SO 157 0 min 0,000 mm 0,0 UV-I 0 W/m 1,7 C 2,7 C 0,0 km/h (0 Bft) 95,83 %
03.04.2018 05:50 2,7 C 6,7 C 93 % 1007,8 hPa 0,0 l/m 0,0 km/h (0 Bft) S-SO 157 0 min 0,000 mm 0,0 UV-I 0 W/m 1,7 C 2,7 C 0,0 km/h (0 Bft) 91,30 %
03.04.2018 05:51 2,7 C 6,7 C 93 % 1007,8 hPa 0,0 l/m 0,0 km/h (0 Bft) S-SO 157 0 min 0,000 mm 0,0 UV-I 0 W/m 1,7 C 2,7 C 0,0 km/h (0 Bft) 100,00 %
03.04.2018 05:52 2,7 C 6,7 C 93 % 1007,8 hPa 0,0 l/m 0,0 km/h (0 Bft) S-SO 157 0 min 0,000 mm 0,0 UV-I 0 W/m 1,7 C 2,7 C 0,0 km/h (0 Bft) 91,30 %
03.04.2018 05:53 2,8 C 6,7 C 93 % 1007,9 hPa 0,0 l/m 0,0 km/h (0 Bft) S-SO 157 0 min 0,000 mm 0,0 UV-I 0 W/m 1,8 C 2,8 C 0,0 km/h (0 Bft) 100,00 %
03.04.2018 05:54 2,8 C 6,7 C 93 % 1008,0 hPa 0,0 l/m 0,0 km/h (0 Bft) S-SO 157 0 min 0,000 mm 0,0 UV-I 0 W/m 1,8 C 2,8 C 0,0 km/h (0 Bft) 86,96 %
03.04.2018 05:55 2,8 C 6,7 C 93 % 1008,0 hPa 0,0 l/m 1,5 km/h (1 Bft) S-SW 213 0 min 0,000 mm 0,0 UV-I 0 W/m 1,8 C 2,8 C 4,8 km/h (1 Bft) 92,59 %
03.04.2018 05:56 2,9 C 6,7 C 93 % 1008,1 hPa 0,0 l/m 4,0 km/h (1 Bft) S-SW 213 0 min 0,000 mm 0,0 UV-I 0 W/m 1,9 C 2,9 C 4,8 km/h (1 Bft) 96,15 %
03.04.2018 05:57 2,9 C 6,7 C 94 % 1008,1 hPa 0,0 l/m 3,7 km/h (1 Bft) S-SW 213 0 min 0,000 mm 0,0 UV-I 0 W/m 2,0 C 2,9 C 4,8 km/h (1 Bft) 91,67 %
03.04.2018 05:58 3,0 C 6,7 C 93 % 1008,1 hPa 0,0 l/m 3,0 km/h (1 Bft) S-SW 213 0 min 0,000 mm 0,0 UV-I 0 W/m 2,0 C 3,0 C 3,2 km/h (1 Bft) 100,00 %
03.04.2018 05:59 3,1 C 6,7 C 93 % 1008,1 hPa 0,0 l/m 2,3 km/h (1 Bft) S-SW 213 0 min 0,000 mm 0,0 UV-I 0 W/m 2,1 C 3,1 C 3,2 km/h (1 Bft) 91,30 %
03.04.2018 06:00 3,1 C 6,7 C 93 % 1008,1 hPa 0,0 l/m 1,8 km/h (1 Bft) S-SW 213 0 min 0,000 mm 0,0 UV-I 0 W/m 2,1 C 3,1 C 3,2 km/h (1 Bft) 100,00 %
03.04.2018 06:01 3,1 C 6,7 C 93 % 1008,1 hPa 0,0 l/m 2,1 km/h (1 Bft) S-SW 213 0 min 0,000 mm 0,0 UV-I 0 W/m 2,1 C 3,1 C 3,2 km/h (1 Bft) 91,30 %
03.04.2018 06:02 3,2 C 6,7 C 93 % 1008,1 hPa 0,0 l/m 1,9 km/h (1 Bft) S-SW 213 0 min 0,000 mm 0,0 UV-I 0 W/m 2,2 C 3,2 C 3,2 km/h (1 Bft) 100,00 %
03.04.2018 06:03 3,2 C 6,7 C 93 % 1008,1 hPa 0,0 l/m 1,5 km/h (1 Bft) S-SW 213 0 min 0,000 mm 0,0 UV-I 0 W/m 2,2 C 3,2 C 3,2 km/h (1 Bft) 92,00 %
03.04.2018 06:04 3,2 C 6,7 C 93 % 1008,1 hPa 0,0 l/m 3,0 km/h (1 Bft) S-SW 213 0 min 0,000 mm 0,0 UV-I 0 W/m 2,2 C 3,2 C 4,8 km/h (1 Bft) 96,30 %
03.04.2018 06:05 3,2 C 6,7 C 92 % 1008,1 hPa 0,0 l/m 2,6 km/h (1 Bft) S-SW 213 0 min 0,000 mm 0,0 UV-I 0 W/m 2,0 C 3,2 C 3,2 km/h (1 Bft) 100,00 %
03.04.2018 06:06 3,2 C 6,7 C 92 % 1008,2 hPa 0,0 l/m 2,6 km/h (1 Bft) S-SW 213 0 min 0,000 mm 0,0 UV-I 0 W/m 2,0 C 3,2 C 3,2 km/h (1 Bft) 100,00 %
03.04.2018 06:07 3,2 C 6,7 C 92 % 1008,3 hPa 0,0 l/m 3,5 km/h (1 Bft) S-SW 213 0 min 0,000 mm 0,0 UV-I 0 W/m 2,0 C 3,2 C 4,8 km/h (1 Bft) 91,30 %
03.04.2018 06:08 3,2 C 6,7 C 92 % 1008,3 hPa 0,0 l/m 4,4 km/h (1 Bft) S-SW 213 0 min 0,000 mm 0,0 UV-I 0 W/m 2,0 C 3,2 C 4,8 km/h (1 Bft) 87,50 %
03.04.2018 06:09 3,2 C 6,7 C 92 % 1008,3 hPa 0,0 l/m 4,0 km/h (1 Bft) S-SW 213 0 min 0,000 mm 0,0 UV-I 0 W/m 2,0 C 3,2 C 4,8 km/h (1 Bft) 100,00 %
03.04.2018 06:10 3,2 C 6,7 C 93 % 1008,3 hPa 0,0 l/m 2,7 km/h (1 Bft) S-SW 213 0 min 0,000 mm 0,0 UV-I 0 W/m 2,2 C 3,2 C 3,2 km/h (1 Bft) 92,59 %
03.04.2018 06:11 3,2 C 6,7 C 93 % 1008,3 hPa 0,0 l/m 1,9 km/h (1 Bft) S-SW 213 0 min 0,000 mm 0,0 UV-I 0 W/m 2,2 C 3,2 C 3,2 km/h (1 Bft) 100,00 %
03.04.2018 06:12 3,2 C 6,7 C 92 % 1008,3 hPa 0,0 l/m 2,6 km/h (1 Bft) S-SW 213 0 min 0,000 mm 0,0 UV-I 0 W/m 2,0 C 3,2 C 3,2 km/h (1 Bft) 91,67 %
03.04.2018 06:13 3,2 C 6,7 C 93 % 1008,3 hPa 0,0 l/m 2,6 km/h (1 Bft) S-SW 213 0 min 0,000 mm 0,0 UV-I 0 W/m 2,2 C 3,2 C 3,2 km/h (1 Bft) 95,65 %
03.04.2018 06:14 3,2 C 6,7 C 93 % 1008,3 hPa 0,0 l/m 2,9 km/h (1 Bft) S-SW 213 0 min 0,000 mm 0,0 UV-I 0 W/m 2,2 C 3,2 C 3,2 km/h (1 Bft) 87,50 %
03.04.2018 06:15 3,2 C 6,7 C 93 % 1008,4 hPa 0,0 l/m 3,6 km/h (1 Bft) S-SW 213 0 min 0,000 mm 0,0 UV-I 0 W/m 2,2 C 3,2 C 4,8 km/h (1 Bft) 95,65 %
03.04.2018 06:16 3,3 C 6,7 C 93 % 1008,4 hPa 0,0 l/m 5,1 km/h (1 Bft) S-SW 213 0 min 0,000 mm 0,0 UV-I 0 W/m 2,3 C 3,3 C 6,4 km/h (2 Bft) 96,30 %
03.04.2018 06:17 3,3 C 6,7 C 93 % 1008,5 hPa 0,0 l/m 5,2 km/h (1 Bft) S-SW 213 0 min 0,000 mm 0,0 UV-I 0 W/m 2,3 C 3,3 C 6,4 km/h (2 Bft) 91,30 %
03.04.2018 06:18 3,3 C 6,7 C 93 % 1008,5 hPa 0,0 l/m 5,6 km/h (1 Bft) S-SW 213 0 min 0,000 mm 0,0 UV-I 0 W/m 2,3 C 3,3 C 6,4 km/h (2 Bft) 96,30 %
03.04.2018 06:19 3,4 C 6,7 C 93 % 1008,5 hPa 0,0 l/m 4,9 km/h (1 Bft) S-SW 213 0 min 0,000 mm 0,0 UV-I 0 W/m 2,4 C 3,4 C 6,4 km/h (2 Bft) 83,33 %
03.04.2018 06:20 3,4 C 6,7 C 93 % 1008,5 hPa 0,0 l/m 4,2 km/h (1 Bft) S-SW 213 0 min 0,000 mm 0,0 UV-I 0 W/m 2,4 C 3,4 C 4,8 km/h (1 Bft) 100,00 %
03.04.2018 06:21 3,5 C 6,7 C 93 % 1008,6 hPa 0,0 l/m 4,2 km/h (1 Bft) S-SW 213 0 min 0,000 mm 0,0 UV-I 0 W/m 2,5 C 3,5 C 4,8 km/h (1 Bft) 93,33 %
03.04.2018 06:22 3,5 C 6,7 C 92 % 1008,6 hPa 0,0 l/m 3,0 km/h (1 Bft) S-SW 213 0 min 0,000 mm 0,0 UV-I 0 W/m 2,3 C 3,5 C 4,8 km/h (1 Bft) 91,30 %
03.04.2018 06:23 3,6 C 6,7 C 92 % 1008,6 hPa 0,0 l/m 3,1 km/h (1 Bft) S-SW 213 0 min 0,000 mm 0,0 UV-I 0 W/m 2,4 C 3,6 C 3,2 km/h (1 Bft) 96,30 %
03.04.2018 06:24 3,6 C 6,7 C 93 % 1008,6 hPa 0,0 l/m 3,5 km/h (1 Bft) S-SW 213 0 min 0,000 mm 0,0 UV-I 0 W/m 2,6 C 3,6 C 4,8 km/h (1 Bft) 92,86 %
03.04.2018 06:25 3,6 C 6,7 C 92 % 1008,7 hPa 0,0 l/m 5,3 km/h (1 Bft) SW 219 0 min 0,000 mm 0,0 UV-I 0 W/m 2,4 C 3,6 C 6,4 km/h (2 Bft) 100,00 %
03.04.2018 06:26 3,6 C 6,7 C 92 % 1008,7 hPa 0,0 l/m 6,1 km/h (2 Bft) SW 223 0 min 0,000 mm 0,0 UV-I 0 W/m 2,4 C 3,6 C 8,0 km/h (2 Bft) 95,65 %
03.04.2018 06:27 3,6 C 6,7 C 92 % 1008,7 hPa 0,0 l/m 4,5 km/h (1 Bft) SW 223 0 min 0,000 mm 0,0 UV-I 0 W/m 2,4 C 3,6 C 6,4 km/h (2 Bft) 100,00 %
03.04.2018 06:28 3,6 C 6,7 C 92 % 1008,8 hPa 0,0 l/m 5,4 km/h (1 Bft) SW 223 0 min 0,000 mm 0,0 UV-I 0 W/m 2,4 C 3,6 C 6,4 km/h (2 Bft) 100,00 %
03.04.2018 06:29 3,6 C 6,7 C 92 % 1008,8 hPa 0,0 l/m 6,0 km/h (2 Bft) SW 236 0 min 0,000 mm 0,0 UV-I 0 W/m 2,4 C 3,6 C 6,4 km/h (2 Bft) 100,00 %
03.04.2018 06:30 3,6 C 6,7 C 92 % 1008,8 hPa 0,0 l/m 6,3 km/h (2 Bft) W-SW 237 0 min 0,000 mm 0,0 UV-I 0 W/m 2,4 C 3,6 C 8,0 km/h (2 Bft) 100,00 %
03.04.2018 06:31 3,6 C 6,7 C 92 % 1008,9 hPa 0,0 l/m 5,3 km/h (1 Bft) W-SW 237 0 min 0,000 mm 0,0 UV-I 0 W/m 2,4 C 3,6 C 6,4 km/h (2 Bft) 100,00 %
03.04.2018 06:32 3,6 C 6,7 C 92 % 1008,9 hPa 0,0 l/m 3,7 km/h (1 Bft) W-SW 237 0 min 0,000 mm 0,0 UV-I 2 W/m 2,4 C 3,6 C 4,8 km/h (1 Bft) 100,00 %
03.04.2018 06:33 3,7 C 6,7 C 92 % 1009,0 hPa 0,0 l/m 5,2 km/h (1 Bft) W-SW 237 0 min 0,000 mm 0,0 UV-I 5 W/m 2,5 C 3,7 C 6,4 km/h (2 Bft) 100,00 %
03.04.2018 06:34 3,6 C 6,7 C 92 % 1009,1 hPa 0,0 l/m 5,8 km/h (2 Bft) SW 226 0 min 0,000 mm 0,0 UV-I 5 W/m 2,4 C 3,6 C 6,4 km/h (2 Bft) 96,55 %
03.04.2018 06:35 3,7 C 6,7 C 92 % 1009,1 hPa 0,0 l/m 5,2 km/h (1 Bft) SW 226 0 min 0,000 mm 0,0 UV-I 5 W/m 2,5 C 3,7 C 6,4 km/h (2 Bft) 95,83 %
03.04.2018 06:36 3,7 C 6,7 C 92 % 1009,1 hPa 0,0 l/m 5,4 km/h (1 Bft) SW 226 0 min 0,000 mm 0,0 UV-I 5 W/m 2,5 C 3,7 C 6,4 km/h (2 Bft) 100,00 %
03.04.2018 06:37 3,7 C 6,7 C 92 % 1009,1 hPa 0,0 l/m 5,1 km/h (1 Bft) SW 219 0 min 0,000 mm 0,0 UV-I 5 W/m 2,5 C 3,7 C 6,4 km/h (2 Bft) 93,33 %
03.04.2018 06:38 3,7 C 6,7 C 92 % 1009,1 hPa 0,0 l/m 5,4 km/h (1 Bft) SW 217 0 min 0,000 mm 0,0 UV-I 5 W/m 2,5 C 3,7 C 6,4 km/h (2 Bft) 100,00 %
03.04.2018 06:39 3,7 C 6,7 C 92 % 1009,1 hPa 0,0 l/m 3,8 km/h (1 Bft) SW 217 0 min 0,000 mm 0,0 UV-I 5 W/m 2,5 C 3,7 C 4,8 km/h (1 Bft) 100,00 %
03.04.2018 06:40 3,8 C 6,7 C 92 % 1009,1 hPa 0,0 l/m 2,9 km/h (1 Bft) SW 217 0 min 0,000 mm 0,0 UV-I 5 W/m 2,6 C 3,8 C 4,8 km/h (1 Bft) 100,00 %
03.04.2018 06:41 3,8 C 6,7 C 92 % 1009,1 hPa 0,0 l/m 3,0 km/h (1 Bft) SW 217 0 min 0,000 mm 0,0 UV-I 5 W/m 2,6 C 3,8 C 4,8 km/h (1 Bft) 100,00 %
03.04.2018 06:42 3,9 C 6,7 C 92 % 1009,1 hPa 0,0 l/m 3,3 km/h (1 Bft) W-SW 237 0 min 0,000 mm 0,0 UV-I 7 W/m 2,7 C 3,9 C 4,8 km/h (1 Bft) 100,00 %
03.04.2018 06:43 3,9 C 6,7 C 91 % 1009,0 hPa 0,0 l/m 3,1 km/h (1 Bft) W-SW 237 0 min 0,000 mm 0,0 UV-I 7 W/m 2,6 C 3,9 C 3,2 km/h (1 Bft) 100,00 %
03.04.2018 06:44 4,0 C 6,7 C 92 % 1009,1 hPa 0,0 l/m 3,4 km/h (1 Bft) S-SW 207 0 min 0,000 mm 0,0 UV-I 7 W/m 2,8 C 4,0 C 4,8 km/h (1 Bft) 100,00 %
03.04.2018 06:45 4,1 C 6,7 C 91 % 1009,0 hPa 0,0 l/m 4,4 km/h (1 Bft) S-SW 203 0 min 0,000 mm 0,0 UV-I 7 W/m 2,8 C 4,1 C 6,4 km/h (2 Bft) 100,00 %
03.04.2018 06:46 4,0 C 6,7 C 91 % 1009,0 hPa 0,0 l/m 4,6 km/h (1 Bft) S-SW 202 0 min 0,000 mm 0,0 UV-I 7 W/m 2,7 C 4,0 C 6,4 km/h (2 Bft) 95,83 %
03.04.2018 06:47 4,0 C 6,7 C 91 % 1009,0 hPa 0,0 l/m 3,8 km/h (1 Bft) S-SW 202 0 min 0,000 mm 0,0 UV-I 7 W/m 2,7 C 4,0 C 4,8 km/h (1 Bft) 100,00 %
03.04.2018 06:48 3,9 C 6,7 C 91 % 1009,0 hPa 0,0 l/m 4,7 km/h (1 Bft) S-SW 202 0 min 0,000 mm 0,0 UV-I 9 W/m 2,6 C 3,9 C 6,4 km/h (2 Bft) 100,00 %
03.04.2018 06:49 3,9 C 6,7 C 91 % 1009,0 hPa 0,0 l/m 6,7 km/h (2 Bft) S-SO 164 0 min 0,000 mm 0,0 UV-I 9 W/m 2,6 C 3,6 C 8,0 km/h (2 Bft) 100,00 %
03.04.2018 06:50 3,9 C 6,7 C 91 % 1008,9 hPa 0,0 l/m 7,6 km/h (2 Bft) S-SO 164 0 min 0,000 mm 0,0 UV-I 9 W/m 2,6 C 2,8 C 8,0 km/h (2 Bft) 100,00 %
03.04.2018 06:51 3,9 C 6,7 C 91 % 1008,9 hPa 0,0 l/m 7,1 km/h (2 Bft) S-SO 164 0 min 0,000 mm 0,0 UV-I 9 W/m 2,6 C 3,3 C 8,0 km/h (2 Bft) 100,00 %
03.04.2018 06:52 3,9 C 6,7 C 91 % 1008,9 hPa 0,0 l/m 7,1 km/h (2 Bft) S-SO 164 0 min 0,000 mm 0,0 UV-I 9 W/m 2,6 C 3,3 C 8,0 km/h (2 Bft) 100,00 %
03.04.2018 06:53 4,0 C 6,7 C 91 % 1009,0 hPa 0,0 l/m 6,2 km/h (2 Bft) S-SO 164 0 min 0,000 mm 0,0 UV-I 9 W/m 2,7 C 4,0 C 8,0 km/h (2 Bft) 95,65 %
03.04.2018 06:54 4,0 C 6,7 C 91 % 1009,1 hPa 0,0 l/m 3,1 km/h (1 Bft) S-SO 164 0 min 0,000 mm 0,0 UV-I 9 W/m 2,7 C 4,0 C 6,4 km/h (2 Bft) 100,00 %
03.04.2018 06:55 4,0 C 6,7 C 91 % 1009,1 hPa 0,0 l/m 3,9 km/h (1 Bft) S-SO 164 0 min 0,000 mm 0,0 UV-I 10 W/m 2,7 C 4,0 C 6,4 km/h (2 Bft) 100,00 %
03.04.2018 06:56 4,0 C 6,7 C 91 % 1009,1 hPa 0,0 l/m 4,8 km/h (1 Bft) S 188 0 min 0,000 mm 0,0 UV-I 11 W/m 2,7 C 4,0 C 6,4 km/h (2 Bft) 100,00 %
03.04.2018 06:57 4,1 C 6,7 C 91 % 1009,1 hPa 0,0 l/m 4,4 km/h (1 Bft) S 188 0 min 0,000 mm 0,0 UV-I 11 W/m 2,8 C 4,1 C 4,8 km/h (1 Bft) 100,00 %
03.04.2018 06:58 4,1 C 6,7 C 91 % 1009,0 hPa 0,0 l/m 4,2 km/h (1 Bft) S 188 0 min 0,000 mm 0,0 UV-I 11 W/m 2,8 C 4,1 C 4,8 km/h (1 Bft) 100,00 %
03.04.2018 06:59 4,1 C 6,7 C 91 % 1008,9 hPa 0,0 l/m 2,9 km/h (1 Bft) S 188 0 min 0,000 mm 0,0 UV-I 12 W/m 2,8 C 4,1 C 3,2 km/h (1 Bft) 100,00 %
03.04.2018 07:00 4,1 C 6,7 C 91 % 1009,0 hPa 0,0 l/m 3,1 km/h (1 Bft) S 188 0 min 0,000 mm 0,0 UV-I 12 W/m 2,8 C 4,1 C 3,2 km/h (1 Bft) 100,00 %
03.04.2018 07:01 4,1 C 6,7 C 91 % 1009,1 hPa 0,0 l/m 3,3 km/h (1 Bft) S 188 0 min 0,000 mm 0,0 UV-I 13 W/m 2,8 C 4,1 C 4,8 km/h (1 Bft) 100,00 %
03.04.2018 07:02 4,1 C 6,7 C 91 % 1009,2 hPa 0,0 l/m 5,2 km/h (1 Bft) SW 214 0 min 0,000 mm 0,0 UV-I 14 W/m 2,8 C 4,1 C 6,4 km/h (2 Bft) 100,00 %
03.04.2018 07:03 4,1 C 6,7 C 91 % 1009,3 hPa 0,0 l/m 7,0 km/h (2 Bft) W-SW 240 0 min 0,000 mm 0,0 UV-I 14 W/m 2,8 C 3,6 C 9,7 km/h (2 Bft) 95,83 %
03.04.2018 07:04 4,1 C 6,7 C 91 % 1009,5 hPa 0,0 l/m 6,4 km/h (2 Bft) W-SW 250 0 min 0,000 mm 0,0 UV-I 14 W/m 2,8 C 4,1 C 8,0 km/h (2 Bft) 100,00 %
03.04.2018 07:05 4,2 C 6,7 C 91 % 1009,5 hPa 0,0 l/m 8,3 km/h (2 Bft) W 266 0 min 0,000 mm 0,0 UV-I 16 W/m 2,9 C 2,5 C 11,3 km/h (2 Bft) 100,00 %
03.04.2018 07:06 4,1 C 6,7 C 91 % 1009,9 hPa 0,0 l/m 10,6 km/h (2 Bft) W 267 0 min 0,000 mm 0,0 UV-I 17 W/m 2,8 C 0,7 C 12,9 km/h (3 Bft) 96,15 %
03.04.2018 07:07 4,1 C 6,7 C 91 % 1009,9 hPa 0,0 l/m 7,9 km/h (2 Bft) W 261 0 min 0,000 mm 0,0 UV-I 18 W/m 2,8 C 2,7 C 12,9 km/h (3 Bft) 100,00 %
03.04.2018 07:08 4,1 C 6,7 C 91 % 1009,7 hPa 0,0 l/m 4,8 km/h (1 Bft) S-SO 161 0 min 0,000 mm 0,0 UV-I 19 W/m 2,8 C 4,1 C 8,0 km/h (2 Bft) 100,00 %
03.04.2018 07:09 4,2 C 6,7 C 91 % 1009,5 hPa 0,0 l/m 5,6 km/h (1 Bft) SO 139 0 min 0,000 mm 0,0 UV-I 20 W/m 2,9 C 4,2 C 6,4 km/h (2 Bft) 100,00 %
03.04.2018 07:10 4,2 C 6,7 C 91 % 1009,4 hPa 0,0 l/m 6,4 km/h (2 Bft) SO 139 0 min 0,000 mm 0,0 UV-I 23 W/m 2,9 C 4,2 C 8,0 km/h (2 Bft) 100,00 %
03.04.2018 07:11 4,2 C 6,7 C 91 % 1009,5 hPa 0,0 l/m 2,7 km/h (1 Bft) SO 140 0 min 0,000 mm 0,0 UV-I 25 W/m 2,9 C 4,2 C 4,8 km/h (1 Bft) 100,00 %
03.04.2018 07:12 4,2 C 6,7 C 91 % 1009,5 hPa 0,0 l/m 1,3 km/h (1 Bft) SO 140 0 min 0,000 mm 0,0 UV-I 25 W/m 2,9 C 4,2 C 3,2 km/h (1 Bft) 100,00 %
03.04.2018 07:13 4,2 C 6,7 C 91 % 1009,4 hPa 0,0 l/m 0,9 km/h (0 Bft) SO 140 0 min 0,000 mm 0,0 UV-I 27 W/m 2,9 C 4,2 C 1,6 km/h (1 Bft) 100,00 %
03.04.2018 07:14 4,2 C 6,7 C 91 % 1009,4 hPa 0,0 l/m 4,0 km/h (1 Bft) SO 140 0 min 0,000 mm 0,0 UV-I 29 W/m 2,9 C 4,2 C 4,8 km/h (1 Bft) 100,00 %
03.04.2018 07:15 4,3 C 6,7 C 91 % 1009,4 hPa 0,0 l/m 4,1 km/h (1 Bft) S-SO 150 0 min 0,000 mm 0,0 UV-I 31 W/m 3,0 C 4,3 C 4,8 km/h (1 Bft) 100,00 %
03.04.2018 07:16 4,3 C 6,7 C 91 % 1009,5 hPa 0,0 l/m 3,1 km/h (1 Bft) S-SO 151 0 min 0,000 mm 0,0 UV-I 32 W/m 3,0 C 4,3 C 4,8 km/h (1 Bft) 100,00 %
03.04.2018 07:17 4,3 C 6,7 C 91 % 1009,5 hPa 0,0 l/m 3,7 km/h (1 Bft) S-SO 151 0 min 0,000 mm 0,0 UV-I 33 W/m 3,0 C 4,3 C 4,8 km/h (1 Bft) 100,00 %
03.04.2018 07:18 4,3 C 6,7 C 91 % 1009,4 hPa 0,0 l/m 3,9 km/h (1 Bft) S-SO 151 0 min 0,000 mm 0,0 UV-I 34 W/m 3,0 C 4,3 C 4,8 km/h (1 Bft) 100,00 %
03.04.2018 07:19 4,3 C 6,7 C 91 % 1009,3 hPa 0,0 l/m 4,8 km/h (1 Bft) S-SO 151 0 min 0,000 mm 0,0 UV-I 36 W/m 3,0 C 4,3 C 6,4 km/h (2 Bft) 100,00 %
03.04.2018 07:20 4,3 C 6,7 C 91 % 1009,3 hPa 0,0 l/m 4,7 km/h (1 Bft) S-SO 151 0 min 0,000 mm 0,0 UV-I 37 W/m 3,0 C 4,3 C 6,4 km/h (2 Bft) 100,00 %
03.04.2018 07:21 4,3 C 6,7 C 91 % 1009,3 hPa 0,0 l/m 5,8 km/h (2 Bft) S-SO 159 0 min 0,000 mm 0,0 UV-I 38 W/m 3,0 C 4,3 C 8,0 km/h (2 Bft) 96,30 %
03.04.2018 07:22 4,3 C 6,7 C 91 % 1009,4 hPa 0,0 l/m 6,5 km/h (2 Bft) S-SO 161 0 min 0,000 mm 0,0 UV-I 39 W/m 3,0 C 4,2 C 8,0 km/h (2 Bft) 100,00 %
03.04.2018 07:23 4,3 C 6,7 C 91 % 1009,3 hPa 0,0 l/m 6,0 km/h (2 Bft) S-SO 161 0 min 0,000 mm 0,0 UV-I 39 W/m 3,0 C 4,3 C 8,0 km/h (2 Bft) 100,00 %
03.04.2018 07:24 4,2 C 6,7 C 91 % 1009,3 hPa 0,0 l/m 5,6 km/h (1 Bft) S-SO 161 0 min 0,000 mm 0,0 UV-I 40 W/m 2,9 C 4,2 C 8,0 km/h (2 Bft) 100,00 %
03.04.2018 07:25 4,2 C 6,7 C 91 % 1009,3 hPa 0,0 l/m 5,0 km/h (1 Bft) S-SO 161 0 min 0,000 mm 0,0 UV-I 41 W/m 2,9 C 4,2 C 6,4 km/h (2 Bft) 100,00 %
03.04.2018 07:26 4,3 C 6,7 C 91 % 1009,4 hPa 0,0 l/m 5,6 km/h (1 Bft) S-SO 161 0 min 0,000 mm 0,0 UV-I 42 W/m 3,0 C 4,3 C 6,4 km/h (2 Bft) 100,00 %
03.04.2018 07:27 4,3 C 6,7 C 91 % 1009,3 hPa 0,0 l/m 6,2 km/h (2 Bft) S-SO 161 0 min 0,000 mm 0,0 UV-I 44 W/m 3,0 C 4,3 C 8,0 km/h (2 Bft) 100,00 %
03.04.2018 07:28 4,3 C 6,7 C 91 % 1009,4 hPa 0,0 l/m 5,1 km/h (1 Bft) S-SO 161 0 min 0,000 mm 0,0 UV-I 44 W/m 3,0 C 4,3 C 6,4 km/h (2 Bft) 100,00 %
03.04.2018 07:29 4,3 C 6,7 C 91 % 1009,4 hPa 0,0 l/m 4,9 km/h (1 Bft) S 190 0 min 0,000 mm 0,0 UV-I 46 W/m 3,0 C 4,3 C 6,4 km/h (2 Bft) 100,00 %
03.04.2018 07:30 4,3 C 6,7 C 91 % 1009,4 hPa 0,0 l/m 3,6 km/h (1 Bft) S 190 0 min 0,000 mm 0,0 UV-I 48 W/m 3,0 C 4,3 C 4,8 km/h (1 Bft) 100,00 %
03.04.2018 07:31 4,3 C 6,7 C 91 % 1009,4 hPa 0,0 l/m 3,1 km/h (1 Bft) S 190 0 min 0,000 mm 0,0 UV-I 50 W/m 3,0 C 4,3 C 4,8 km/h (1 Bft) 100,00 %
03.04.2018 07:32 4,3 C 6,7 C 91 % 1009,3 hPa 0,0 l/m 4,0 km/h (1 Bft) S 190 0 min 0,000 mm 0,0 UV-I 53 W/m 3,0 C 4,3 C 4,8 km/h (1 Bft) 100,00 %
03.04.2018 07:33 4,3 C 6,7 C 91 % 1009,3 hPa 0,0 l/m 2,3 km/h (1 Bft) S 190 0 min 0,000 mm 0,0 UV-I 54 W/m 3,0 C 4,3 C 3,2 km/h (1 Bft) 100,00 %
03.04.2018 07:34 4,3 C 6,7 C 92 % 1009,4 hPa 0,0 l/m 2,5 km/h (1 Bft) S 190 0 min 0,000 mm 0,0 UV-I 55 W/m 3,1 C 4,3 C 3,2 km/h (1 Bft) 100,00 %
03.04.2018 07:35 4,4 C 6,7 C 92 % 1009,3 hPa 0,0 l/m 1,2 km/h (1 Bft) S 190 0 min 0,000 mm 0,0 UV-I 37 W/m 3,2 C 4,4 C 1,6 km/h (1 Bft) 96,30 %
03.04.2018 07:36 4,4 C 6,7 C 92 % 1009,3 hPa 0,0 l/m 2,0 km/h (1 Bft) S 190 0 min 0,000 mm 0,0 UV-I 50 W/m 3,2 C 4,4 C 3,2 km/h (1 Bft) 100,00 %
03.04.2018 07:37 4,4 C 6,7 C 92 % 1009,3 hPa 0,0 l/m 4,0 km/h (1 Bft) S 189 0 min 0,000 mm 0,0 UV-I 69 W/m 3,2 C 4,4 C 4,8 km/h (1 Bft) 100,00 %
03.04.2018 07:38 4,4 C 6,7 C 92 % 1009,3 hPa 0,0 l/m 6,5 km/h (2 Bft) S 171 0 min 0,000 mm 0,0 UV-I 77 W/m 3,2 C 4,3 C 8,0 km/h (2 Bft) 100,00 %
03.04.2018 07:39 4,4 C 6,7 C 92 % 1009,3 hPa 0,0 l/m 7,2 km/h (2 Bft) S-SO 157 0 min 0,000 mm 0,0 UV-I 85 W/m 3,2 C 3,7 C 9,7 km/h (2 Bft) 100,00 %
03.04.2018 07:40 4,4 C 6,7 C 92 % 1009,3 hPa 0,0 l/m 5,7 km/h (1 Bft) S-SO 162 1 min 0,000 mm 0,0 UV-I 96 W/m 3,2 C 4,4 C 8,0 km/h (2 Bft) 100,00 %
03.04.2018 07:41 4,5 C 6,7 C 92 % 1009,3 hPa 0,0 l/m 6,8 km/h (2 Bft) S-SO 161 1 min 0,000 mm 0,0 UV-I 103 W/m 3,3 C 4,2 C 8,0 km/h (2 Bft) 100,00 %
03.04.2018 07:42 4,5 C 6,7 C 92 % 1009,3 hPa 0,0 l/m 7,1 km/h (2 Bft) S 182 1 min 0,000 mm 0,0 UV-I 104 W/m 3,3 C 3,9 C 9,7 km/h (2 Bft) 100,00 %
03.04.2018 07:43 4,6 C 6,7 C 91 % 1009,3 hPa 0,0 l/m 7,6 km/h (2 Bft) S 174 1 min 0,000 mm 0,0 UV-I 105 W/m 3,3 C 3,5 C 9,7 km/h (2 Bft) 100,00 %
03.04.2018 07:44 4,7 C 6,7 C 91 % 1009,3 hPa 0,0 l/m 7,4 km/h (2 Bft) S 180 1 min 0,000 mm 0,0 UV-I 102 W/m 3,4 C 3,8 C 9,7 km/h (2 Bft) 100,00 %
03.04.2018 07:45 4,8 C 6,7 C 91 % 1009,4 hPa 0,0 l/m 6,6 km/h (2 Bft) S 178 1 min 0,000 mm 0,0 UV-I 99 W/m 3,5 C 4,6 C 9,7 km/h (2 Bft) 100,00 %
03.04.2018 07:46 4,8 C 6,7 C 90 % 1009,4 hPa 0,0 l/m 5,6 km/h (1 Bft) S-SO 163 0 min 0,000 mm 0,0 UV-I 93 W/m 3,3 C 4,8 C 8,0 km/h (2 Bft) 100,00 %
03.04.2018 07:47 4,9 C 6,7 C 90 % 1009,3 hPa 0,0 l/m 5,6 km/h (1 Bft) S-SO 163 0 min 0,000 mm 0,0 UV-I 88 W/m 3,4 C 4,9 C 8,0 km/h (2 Bft) 100,00 %
03.04.2018 07:48 5,1 C 6,7 C 90 % 1009,3 hPa 0,0 l/m 4,2 km/h (1 Bft) S-SO 163 0 min 0,000 mm 0,0 UV-I 84 W/m 3,6 C 5,1 C 6,4 km/h (2 Bft) 92,31 %
03.04.2018 07:49 5,1 C 6,7 C 89 % 1009,3 hPa 0,0 l/m 7,8 km/h (2 Bft) S-SO 163 0 min 0,000 mm 0,0 UV-I 82 W/m 3,4 C 3,9 C 9,7 km/h (2 Bft) 100,00 %
03.04.2018 07:50 5,1 C 6,7 C 89 % 1009,3 hPa 0,0 l/m 8,5 km/h (2 Bft) S-SO 159 0 min 0,000 mm 0,0 UV-I 80 W/m 3,4 C 3,3 C 11,3 km/h (2 Bft) 100,00 %
03.04.2018 07:51 5,2 C 6,7 C 89 % 1009,3 hPa 0,0 l/m 7,5 km/h (2 Bft) S-SO 159 0 min 0,000 mm 0,0 UV-I 79 W/m 3,5 C 4,2 C 9,7 km/h (2 Bft) 100,00 %
03.04.2018 07:52 5,2 C 6,7 C 89 % 1009,3 hPa 0,0 l/m 6,3 km/h (2 Bft) S-SO 160 0 min 0,000 mm 0,0 UV-I 80 W/m 3,5 C 5,2 C 8,0 km/h (2 Bft) 100,00 %
03.04.2018 07:53 5,2 C 6,7 C 89 % 1009,3 hPa 0,0 l/m 5,1 km/h (1 Bft) S-SO 164 0 min 0,000 mm 0,0 UV-I 90 W/m 3,5 C 5,2 C 6,4 km/h (2 Bft) 100,00 %
03.04.2018 07:54 5,2 C 6,7 C 89 % 1009,3 hPa 0,0 l/m 4,1 km/h (1 Bft) S 175 0 min 0,000 mm 0,0 UV-I 95 W/m 3,5 C 5,2 C 8,0 km/h (2 Bft) 100,00 %
03.04.2018 07:55 5,3 C 6,7 C 89 % 1009,4 hPa 0,0 l/m 4,0 km/h (1 Bft) S 180 0 min 0,000 mm 0,0 UV-I 75 W/m 3,6 C 5,3 C 4,8 km/h (1 Bft) 100,00 %
03.04.2018 07:56 5,3 C 6,7 C 89 % 1009,5 hPa 0,0 l/m 2,8 km/h (1 Bft) S 180 0 min 0,000 mm 0,0 UV-I 59 W/m 3,6 C 5,3 C 3,2 km/h (1 Bft) 92,59 %
03.04.2018 07:57 5,3 C 6,7 C 89 % 1009,5 hPa 0,0 l/m 2,3 km/h (1 Bft) S 180 0 min 0,000 mm 0,0 UV-I 58 W/m 3,6 C 5,3 C 3,2 km/h (1 Bft) 96,15 %
03.04.2018 07:58 5,3 C 6,7 C 89 % 1009,5 hPa 0,0 l/m 2,1 km/h (1 Bft) S 180 0 min 0,000 mm 0,0 UV-I 56 W/m 3,6 C 5,3 C 4,8 km/h (1 Bft) 100,00 %
03.04.2018 07:59 5,3 C 6,7 C 88 % 1009,6 hPa 0,0 l/m 4,2 km/h (1 Bft) SW 228 0 min 0,000 mm 0,0 UV-I 54 W/m 3,5 C 5,3 C 6,4 km/h (2 Bft) 100,00 %
03.04.2018 08:00 5,3 C 6,7 C 88 % 1009,6 hPa 0,0 l/m 4,5 km/h (1 Bft) W-SW 238 0 min 0,025 mm 0,0 UV-I 53 W/m 3,5 C 5,3 C 6,4 km/h (2 Bft) 100,00 %
03.04.2018 08:01 5,3 C 6,7 C 88 % 1009,6 hPa 0,0 l/m 4,2 km/h (1 Bft) W-SW 238 0 min 0,000 mm 0,0 UV-I 53 W/m 3,5 C 5,3 C 6,4 km/h (2 Bft) 100,00 %
03.04.2018 08:02 5,3 C 6,7 C 88 % 1009,6 hPa 0,0 l/m 4,6 km/h (1 Bft) W-SW 238 0 min 0,000 mm 0,0 UV-I 54 W/m 3,5 C 5,3 C 6,4 km/h (2 Bft) 100,00 %
03.04.2018 08:03 5,3 C 6,7 C 88 % 1009,7 hPa 0,0 l/m 5,3 km/h (1 Bft) SW 225 0 min 0,000 mm 0,0 UV-I 54 W/m 3,5 C 5,3 C 8,0 km/h (2 Bft) 95,65 %
03.04.2018 08:04 5,3 C 6,7 C 88 % 1009,7 hPa 0,0 l/m 6,3 km/h (2 Bft) SW 216 0 min 0,000 mm 0,0 UV-I 56 W/m 3,5 C 5,3 C 8,0 km/h (2 Bft) 96,30 %
03.04.2018 08:05 5,3 C 6,7 C 88 % 1009,8 hPa 0,0 l/m 4,6 km/h (1 Bft) SW 215 0 min 0,000 mm 0,0 UV-I 59 W/m 3,5 C 5,3 C 6,4 km/h (2 Bft) 96,15 %
03.04.2018 08:06 5,2 C 6,7 C 88 % 1009,8 hPa 0,0 l/m 5,2 km/h (1 Bft) S-SW 213 0 min 0,000 mm 0,0 UV-I 62 W/m 3,4 C 5,2 C 8,0 km/h (2 Bft) 96,30 %
03.04.2018 08:07 5,2 C 6,7 C 89 % 1009,8 hPa 0,0 l/m 5,1 km/h (1 Bft) SW 214 0 min 0,000 mm 0,0 UV-I 66 W/m 3,5 C 5,2 C 6,4 km/h (2 Bft) 100,00 %
03.04.2018 08:08 5,2 C 6,7 C 89 % 1009,8 hPa 0,0 l/m 4,3 km/h (1 Bft) SW 214 0 min 0,000 mm 0,0 UV-I 74 W/m 3,5 C 5,2 C 6,4 km/h (2 Bft) 96,30 %
03.04.2018 08:09 5,2 C 6,7 C 89 % 1009,9 hPa 0,0 l/m 3,9 km/h (1 Bft) SW 214 0 min 0,000 mm 0,0 UV-I 116 W/m 3,5 C 5,2 C 6,4 km/h (2 Bft) 100,00 %
03.04.2018 08:10 5,2 C 6,7 C 89 % 1009,9 hPa 0,0 l/m 4,6 km/h (1 Bft) SW 215 1 min 0,000 mm 0,0 UV-I 192 W/m 3,5 C 5,2 C 6,4 km/h (2 Bft) 93,33 %
03.04.2018 08:11 5,2 C 6,7 C 89 % 1010,0 hPa 0,0 l/m 3,3 km/h (1 Bft) SW 215 1 min 0,000 mm 0,0 UV-I 245 W/m 3,5 C 5,2 C 4,8 km/h (1 Bft) 100,00 %
03.04.2018 08:12 5,3 C 6,7 C 89 % 1009,9 hPa 0,0 l/m 1,4 km/h (1 Bft) SW 215 1 min 0,000 mm 0,0 UV-I 261 W/m 3,6 C 5,3 C 3,2 km/h (1 Bft) 96,30 %
03.04.2018 08:13 5,3 C 6,7 C 89 % 1009,9 hPa 0,0 l/m 3,5 km/h (1 Bft) S-SW 209 1 min 0,000 mm 0,0 UV-I 274 W/m 3,6 C 5,3 C 4,8 km/h (1 Bft) 100,00 %
03.04.2018 08:14 5,4 C 6,7 C 89 % 1009,9 hPa 0,0 l/m 3,5 km/h (1 Bft) S-SW 209 1 min 0,000 mm 0,0 UV-I 289 W/m 3,7 C 5,4 C 4,8 km/h (1 Bft) 96,15 %
03.04.2018 08:15 5,5 C 6,7 C 89 % 1009,9 hPa 0,0 l/m 4,8 km/h (1 Bft) S-SW 209 1 min 0,000 mm 0,0 UV-I 304 W/m 3,8 C 5,5 C 6,4 km/h (2 Bft) 100,00 %
03.04.2018 08:16 5,6 C 6,7 C 89 % 1009,9 hPa 0,0 l/m 3,4 km/h (1 Bft) S-SW 209 1 min 0,000 mm 0,0 UV-I 314 W/m 3,9 C 5,6 C 4,8 km/h (1 Bft) 96,15 %
03.04.2018 08:17 5,6 C 6,7 C 89 % 1009,9 hPa 0,0 l/m 3,1 km/h (1 Bft) S-SW 209 1 min 0,000 mm 0,0 UV-I 321 W/m 3,9 C 5,6 C 4,8 km/h (1 Bft) 100,00 %
03.04.2018 08:18 5,7 C 6,7 C 89 % 1009,9 hPa 0,0 l/m 1,9 km/h (1 Bft) S-SW 209 1 min 0,000 mm 0,0 UV-I 320 W/m 4,0 C 5,7 C 3,2 km/h (1 Bft) 96,55 %
03.04.2018 08:19 5,8 C 6,7 C 88 % 1009,8 hPa 0,0 l/m 1,7 km/h (1 Bft) S-SW 209 1 min 0,000 mm 0,0 UV-I 322 W/m 4,0 C 5,8 C 3,2 km/h (1 Bft) 96,30 %
03.04.2018 08:20 5,9 C 6,7 C 88 % 1009,8 hPa 0,0 l/m 1,8 km/h (1 Bft) S-SW 209 1 min 0,000 mm 0,0 UV-I 326 W/m 4,1 C 5,9 C 3,2 km/h (1 Bft) 100,00 %
03.04.2018 08:21 5,9 C 6,7 C 87 % 1009,8 hPa 0,0 l/m 1,6 km/h (1 Bft) S-SW 209 1 min 0,000 mm 0,0 UV-I 277 W/m 3,9 C 5,9 C 3,2 km/h (1 Bft) 95,83 %
03.04.2018 08:23 6,1 C 6,7 C 88 % 1009,8 hPa 0,0 l/m 3,8 km/h (1 Bft) S-SW 209 2 min 0,000 mm 0,0 UV-I 274 W/m 4,3 C 6,1 C 4,8 km/h (1 Bft) 98,11 %
03.04.2018 08:24 6,3 C 6,7 C 88 % 1009,8 hPa 0,0 l/m 4,1 km/h (1 Bft) S-SW 209 1 min 0,000 mm 0,0 UV-I 295 W/m 4,5 C 6,3 C 4,8 km/h (1 Bft) 98,15 %
03.04.2018 08:25 6,3 C 6,7 C 88 % 1009,8 hPa 0,0 l/m 4,1 km/h (1 Bft) W-SW 244 1 min 0,000 mm 0,0 UV-I 256 W/m 4,5 C 6,3 C 6,4 km/h (2 Bft) 95,12 %
03.04.2018 08:26 6,4 C 6,7 C 87 % 1009,8 hPa 0,0 l/m 3,7 km/h (1 Bft) W-SW 243 1 min 0,000 mm 0,0 UV-I 232 W/m 4,4 C 6,4 C 4,8 km/h (1 Bft) 96,15 %
03.04.2018 08:27 6,4 C 6,7 C 87 % 1009,8 hPa 0,0 l/m 2,5 km/h (1 Bft) W-SW 243 0 min 0,000 mm 0,0 UV-I 112 W/m 4,4 C 6,4 C 3,2 km/h (1 Bft) 98,12 %
03.04.2018 08:28 6,4 C 6,7 C 86 % 1009,8 hPa 0,0 l/m 3,1 km/h (1 Bft) W-SW 242 0 min 0,000 mm 0,0 UV-I 101 W/m 4,2 C 6,4 C 6,4 km/h (2 Bft) 97,56 %
03.04.2018 08:29 6,4 C 6,7 C 86 % 1009,8 hPa 0,0 l/m 4,8 km/h (1 Bft) W-SW 241 0 min 0,000 mm 0,0 UV-I 96 W/m 4,2 C 6,4 C 6,4 km/h (2 Bft) 100,00 %
03.04.2018 08:30 6,4 C 6,7 C 86 % 1009,8 hPa 0,0 l/m 4,0 km/h (1 Bft) W-SW 241 0 min 0,000 mm 0,0 UV-I 95 W/m 4,2 C 6,4 C 6,4 km/h (2 Bft) 96,15 %
03.04.2018 08:31 6,3 C 6,7 C 86 % 1009,8 hPa 0,0 l/m 4,3 km/h (1 Bft) W-SW 241 0 min 0,000 mm 0,0 UV-I 95 W/m 4,1 C 6,3 C 4,8 km/h (1 Bft) 95,83 %
03.04.2018 08:32 6,3 C 6,7 C 86 % 1009,8 hPa 0,0 l/m 3,1 km/h (1 Bft) W-SW 241 0 min 0,000 mm 0,0 UV-I 97 W/m 4,1 C 6,3 C 4,8 km/h (1 Bft) 100,00 %
03.04.2018 08:33 6,3 C 6,7 C 86 % 1009,7 hPa 0,0 l/m 2,7 km/h (1 Bft) W-SW 241 0 min 0,000 mm 0,0 UV-I 97 W/m 4,1 C 6,3 C 3,2 km/h (1 Bft) 100,00 %
03.04.2018 08:34 6,3 C 6,7 C 86 % 1009,7 hPa 0,0 l/m 4,5 km/h (1 Bft) S-SW 192 0 min 0,000 mm 0,0 UV-I 100 W/m 4,1 C 6,3 C 6,4 km/h (2 Bft) 95,83 %
03.04.2018 08:35 6,3 C 6,7 C 86 % 1009,7 hPa 0,0 l/m 4,8 km/h (1 Bft) S-SW 205 0 min 0,000 mm 0,0 UV-I 113 W/m 4,1 C 6,3 C 6,4 km/h (2 Bft) 100,00 %
03.04.2018 08:36 6,3 C 6,7 C 86 % 1009,7 hPa 0,0 l/m 3,6 km/h (1 Bft) S-SW 205 0 min 0,000 mm 0,0 UV-I 124 W/m 4,1 C 6,3 C 4,8 km/h (1 Bft) 100,00 %
03.04.2018 08:37 6,3 C 6,7 C 86 % 1009,7 hPa 0,0 l/m 3,5 km/h (1 Bft) S-SW 205 0 min 0,000 mm 0,3 UV-I 127 W/m 4,1 C 6,3 C 4,8 km/h (1 Bft) 100,00 %
03.04.2018 08:38 6,4 C 6,7 C 86 % 1009,7 hPa 0,0 l/m 3,5 km/h (1 Bft) S-SW 204 1 min 0,000 mm 0,5 UV-I 277 W/m 4,2 C 6,4 C 4,8 km/h (1 Bft) 100,00 %
03.04.2018 08:39 6,4 C 6,7 C 86 % 1009,7 hPa 0,0 l/m 3,0 km/h (1 Bft) S-SW 204 1 min 0,000 mm 0,5 UV-I 291 W/m 4,2 C 6,4 C 4,8 km/h (1 Bft) 100,00 %
03.04.2018 08:40 6,6 C 6,7 C 86 % 1009,7 hPa 0,0 l/m 2,4 km/h (1 Bft) S-SW 204 1 min 0,000 mm 0,5 UV-I 286 W/m 4,4 C 6,6 C 3,2 km/h (1 Bft) 95,83 %
03.04.2018 08:41 6,6 C 6,7 C 86 % 1009,6 hPa 0,0 l/m 1,1 km/h (1 Bft) S-SW 204 1 min 0,000 mm 0,5 UV-I 282 W/m 4,4 C 6,6 C 3,2 km/h (1 Bft) 100,00 %
03.04.2018 08:43 7,0 C 6,7 C 86 % 1009,6 hPa 0,0 l/m 1,1 km/h (1 Bft) SO 134 2 min 0,000 mm 0,5 UV-I 281 W/m 4,8 C 7,0 C 4,8 km/h (1 Bft) 97,73 %
03.04.2018 08:44 7,2 C 6,7 C 85 % 1009,6 hPa 0,0 l/m 4,2 km/h (1 Bft) SO 134 1 min 0,000 mm 0,5 UV-I 281 W/m 4,9 C 7,2 C 6,4 km/h (2 Bft) 100,00 %
03.04.2018 08:45 7,4 C 6,7 C 85 % 1009,6 hPa 0,0 l/m 4,4 km/h (1 Bft) SO 134 1 min 0,000 mm 0,5 UV-I 278 W/m 5,0 C 7,4 C 4,8 km/h (1 Bft) 100,00 %
03.04.2018 08:46 7,5 C 6,7 C 83 % 1009,6 hPa 0,0 l/m 2,3 km/h (1 Bft) SO 134 1 min 0,000 mm 0,5 UV-I 283 W/m 4,8 C 7,5 C 3,2 km/h (1 Bft) 95,83 %
03.04.2018 08:47 7,6 C 6,7 C 83 % 1009,6 hPa 0,0 l/m 2,7 km/h (1 Bft) SO 134 1 min 0,000 mm 0,5 UV-I 295 W/m 4,9 C 7,6 C 3,2 km/h (1 Bft) 100,00 %
03.04.2018 08:48 7,6 C 6,7 C 82 % 1009,6 hPa 0,0 l/m 2,9 km/h (1 Bft) SO 134 1 min 0,000 mm 0,6 UV-I 301 W/m 4,7 C 7,6 C 4,8 km/h (1 Bft) 100,00 %
03.04.2018 08:49 7,6 C 6,7 C 81 % 1009,6 hPa 0,0 l/m 2,2 km/h (1 Bft) SO 134 1 min 0,000 mm 0,6 UV-I 309 W/m 4,6 C 7,6 C 3,2 km/h (1 Bft) 100,00 %
03.04.2018 08:50 7,6 C 6,7 C 81 % 1009,6 hPa 0,0 l/m 0,7 km/h (0 Bft) SO 134 1 min 0,000 mm 0,6 UV-I 322 W/m 4,6 C 7,6 C 1,6 km/h (1 Bft) 100,00 %
03.04.2018 08:51 7,6 C 6,7 C 81 % 1009,6 hPa 0,0 l/m 2,0 km/h (1 Bft) SO 134 1 min 0,000 mm 0,6 UV-I 324 W/m 4,6 C 7,6 C 3,2 km/h (1 Bft) 100,00 %
03.04.2018 08:52 7,7 C 6,7 C 82 % 1009,6 hPa 0,0 l/m 3,0 km/h (1 Bft) SO 134 1 min 0,000 mm 0,6 UV-I 329 W/m 4,8 C 7,7 C 3,2 km/h (1 Bft) 100,00 %
03.04.2018 08:53 7,8 C 6,7 C 82 % 1009,5 hPa 0,0 l/m 2,9 km/h (1 Bft) SO 134 1 min 0,000 mm 0,6 UV-I 325 W/m 4,9 C 7,8 C 4,8 km/h (1 Bft) 100,00 %
03.04.2018 08:54 7,9 C 6,7 C 82 % 1009,5 hPa 0,0 l/m 3,5 km/h (1 Bft) SO 134 1 min 0,000 mm 0,6 UV-I 322 W/m 5,0 C 7,9 C 4,8 km/h (1 Bft) 100,00 %
03.04.2018 08:55 8,1 C 6,7 C 82 % 1009,6 hPa 0,0 l/m 3,2 km/h (1 Bft) SO 134 1 min 0,000 mm 0,6 UV-I 326 W/m 5,2 C 8,1 C 4,8 km/h (1 Bft) 100,00 %
03.04.2018 08:56 8,1 C 6,7 C 82 % 1009,6 hPa 0,0 l/m 3,5 km/h (1 Bft) SO 134 1 min 0,000 mm 0,7 UV-I 340 W/m 5,2 C 8,1 C 4,8 km/h (1 Bft) 100,00 %
03.04.2018 08:57 8,2 C 6,7 C 82 % 1009,5 hPa 0,0 l/m 3,1 km/h (1 Bft) SO 134 1 min 0,000 mm 0,7 UV-I 324 W/m 5,3 C 8,2 C 4,8 km/h (1 Bft) 100,00 %
03.04.2018 08:58 8,3 C 6,7 C 82 % 1009,6 hPa 0,0 l/m 4,0 km/h (1 Bft) SO 132 1 min 0,000 mm 0,7 UV-I 251 W/m 5,4 C 8,3 C 6,4 km/h (2 Bft) 98,21 %
03.04.2018 08:59 8,3 C 6,7 C 82 % 1009,6 hPa 0,0 l/m 3,3 km/h (1 Bft) SO 132 1 min 0,000 mm 0,7 UV-I 335 W/m 5,4 C 8,3 C 4,8 km/h (1 Bft) 97,73 %
03.04.2018 09:00 8,4 C 6,7 C 82 % 1009,6 hPa 0,0 l/m 3,7 km/h (1 Bft) SO 132 1 min 0,000 mm 0,7 UV-I 398 W/m 5,5 C 8,4 C 4,8 km/h (1 Bft) 95,65 %
03.04.2018 09:01 8,6 C 6,7 C 81 % 1009,6 hPa 0,0 l/m 3,9 km/h (1 Bft) SO 132 1 min 0,102 mm 0,7 UV-I 421 W/m 5,5 C 8,6 C 4,8 km/h (1 Bft) 96,30 %
03.04.2018 09:02 8,6 C 6,7 C 81 % 1009,6 hPa 0,0 l/m 4,4 km/h (1 Bft) O-NO 63 1 min 0,000 mm 0,7 UV-I 406 W/m 5,5 C 8,6 C 4,8 km/h (1 Bft) 100,00 %
03.04.2018 09:03 8,8 C 6,7 C 82 % 1009,6 hPa 0,0 l/m 5,0 km/h (1 Bft) O-NO 57 1 min 0,000 mm 0,8 UV-I 448 W/m 5,9 C 8,8 C 6,4 km/h (2 Bft) 100,00 %
03.04.2018 09:04 8,9 C 6,7 C 82 % 1009,6 hPa 0,0 l/m 5,9 km/h (2 Bft) O-NO 63 1 min 0,000 mm 0,8 UV-I 463 W/m 6,0 C 8,9 C 6,4 km/h (2 Bft) 100,00 %
03.04.2018 09:05 9,0 C 6,7 C 81 % 1009,6 hPa 0,0 l/m 5,8 km/h (2 Bft) O-NO 71 1 min 0,000 mm 0,8 UV-I 460 W/m 5,9 C 9,0 C 8,0 km/h (2 Bft) 100,00 %
03.04.2018 09:06 9,0 C 6,7 C 81 % 1009,5 hPa 0,0 l/m 5,0 km/h (1 Bft) O-NO 71 1 min 0,000 mm 0,8 UV-I 482 W/m 5,9 C 9,0 C 6,4 km/h (2 Bft) 100,00 %
03.04.2018 09:07 9,0 C 6,7 C 80 % 1009,5 hPa 0,0 l/m 4,5 km/h (1 Bft) O-NO 71 1 min 0,000 mm 0,7 UV-I 412 W/m 5,7 C 9,0 C 6,4 km/h (2 Bft) 100,00 %
03.04.2018 09:08 8,9 C 6,7 C 79 % 1009,5 hPa 0,0 l/m 3,0 km/h (1 Bft) O-NO 71 1 min 0,000 mm 0,7 UV-I 379 W/m 5,5 C 8,9 C 4,8 km/h (1 Bft) 100,00 %
03.04.2018 09:09 8,9 C 6,7 C 79 % 1009,5 hPa 0,0 l/m 3,3 km/h (1 Bft) O-NO 71 1 min 0,000 mm 0,7 UV-I 235 W/m 5,5 C 8,9 C 4,8 km/h (1 Bft) 100,00 %
03.04.2018 09:10 8,8 C 6,7 C 78 % 1009,5 hPa 0,0 l/m 4,8 km/h (1 Bft) O-NO 78 1 min 0,000 mm 0,7 UV-I 232 W/m 5,2 C 8,8 C 6,4 km/h (2 Bft) 100,00 %
03.04.2018 09:11 8,7 C 6,7 C 77 % 1009,4 hPa 0,0 l/m 6,5 km/h (2 Bft) O-NO 74 1 min 0,000 mm 0,7 UV-I 257 W/m 4,9 C 8,6 C 8,0 km/h (2 Bft) 100,00 %
03.04.2018 09:12 8,6 C 6,7 C 77 % 1009,4 hPa 0,0 l/m 5,6 km/h (1 Bft) O-NO 74 1 min 0,000 mm 0,7 UV-I 258 W/m 4,8 C 8,6 C 6,4 km/h (2 Bft) 100,00 %
03.04.2018 09:13 8,6 C 6,7 C 78 % 1009,4 hPa 0,0 l/m 5,5 km/h (1 Bft) O 80 1 min 0,000 mm 0,8 UV-I 253 W/m 5,0 C 8,6 C 6,4 km/h (2 Bft) 100,00 %
03.04.2018 09:14 8,7 C 6,7 C 79 % 1009,4 hPa 0,0 l/m 6,8 km/h (2 Bft) O-NO 74 1 min 0,000 mm 0,9 UV-I 506 W/m 5,3 C 8,4 C 8,0 km/h (2 Bft) 100,00 %
03.04.2018 09:15 8,8 C 6,7 C 80 % 1009,4 hPa 0,0 l/m 4,9 km/h (1 Bft) O-NO 67 1 min 0,000 mm 0,9 UV-I 506 W/m 5,5 C 8,8 C 6,4 km/h (2 Bft) 96,15 %
03.04.2018 09:16 8,9 C 6,7 C 79 % 1009,4 hPa 0,0 l/m 5,9 km/h (2 Bft) O-NO 72 1 min 0,000 mm 0,9 UV-I 512 W/m 5,5 C 8,9 C 8,0 km/h (2 Bft) 100,00 %
03.04.2018 09:17 9,1 C 6,7 C 79 % 1009,4 hPa 0,0 l/m 4,9 km/h (1 Bft) O-NO 71 1 min 0,000 mm 0,9 UV-I 519 W/m 5,7 C 9,1 C 6,4 km/h (2 Bft) 100,00 %
03.04.2018 09:18 9,3 C 6,7 C 80 % 1009,4 hPa 0,0 l/m 6,1 km/h (2 Bft) NO 56 1 min 0,000 mm 0,9 UV-I 496 W/m 6,0 C 9,3 C 8,0 km/h (2 Bft) 95,83 %
03.04.2018 09:19 9,4 C 6,7 C 81 % 1009,4 hPa 0,0 l/m 7,3 km/h (2 Bft) O-NO 58 1 min 0,000 mm 0,9 UV-I 520 W/m 6,3 C 8,7 C 8,0 km/h (2 Bft) 100,00 %
03.04.2018 09:20 9,7 C 6,7 C 80 % 1009,4 hPa 0,0 l/m 6,4 km/h (2 Bft) O-NO 62 1 min 0,000 mm 0,9 UV-I 513 W/m 6,4 C 9,7 C 8,0 km/h (2 Bft) 87,50 %
03.04.2018 09:21 9,7 C 6,7 C 79 % 1009,4 hPa 0,0 l/m 6,0 km/h (2 Bft) NO 50 1 min 0,000 mm 0,9 UV-I 513 W/m 6,2 C 9,7 C 6,4 km/h (2 Bft) 94,12 %
03.04.2018 09:22 9,7 C 6,7 C 77 % 1009,2 hPa 0,0 l/m 5,4 km/h (1 Bft) O-NO 76 1 min 0,000 mm 0,9 UV-I 423 W/m 5,9 C 9,7 C 6,4 km/h (2 Bft) 95,83 %
03.04.2018 09:23 9,6 C 6,7 C 76 % 1009,4 hPa 0,0 l/m 4,6 km/h (1 Bft) O-NO 75 1 min 0,000 mm 0,8 UV-I 316 W/m 5,6 C 9,6 C 4,8 km/h (1 Bft) 100,00 %
03.04.2018 09:24 9,6 C 6,7 C 75 % 1009,4 hPa 0,0 l/m 5,0 km/h (1 Bft) O 81 1 min 0,000 mm 0,8 UV-I 316 W/m 5,4 C 9,6 C 6,4 km/h (2 Bft) 91,67 %
03.04.2018 09:25 9,6 C 6,7 C 77 % 1009,4 hPa 0,0 l/m 6,1 km/h (2 Bft) O-NO 78 0 min 0,000 mm 0,8 UV-I 231 W/m 5,8 C 9,6 C 8,0 km/h (2 Bft) 100,00 %
03.04.2018 09:26 9,6 C 6,7 C 78 % 1009,4 hPa 0,0 l/m 5,4 km/h (1 Bft) O-NO 78 0 min 0,000 mm 0,8 UV-I 222 W/m 6,0 C 9,6 C 6,4 km/h (2 Bft) 96,30 %
03.04.2018 09:27 9,6 C 6,7 C 78 % 1009,4 hPa 0,0 l/m 6,0 km/h (2 Bft) O-NO 62 0 min 0,000 mm 0,8 UV-I 220 W/m 6,0 C 9,6 C 8,0 km/h (2 Bft) 100,00 %
03.04.2018 09:28 9,7 C 6,7 C 78 % 1009,4 hPa 0,0 l/m 6,2 km/h (2 Bft) O-NO 57 0 min 0,000 mm 0,8 UV-I 226 W/m 6,1 C 9,7 C 8,0 km/h (2 Bft) 96,15 %
03.04.2018 09:29 9,7 C 6,7 C 78 % 1009,4 hPa 0,0 l/m 5,6 km/h (1 Bft) O-NO 68 0 min 0,000 mm 0,8 UV-I 235 W/m 6,1 C 9,7 C 6,4 km/h (2 Bft) 96,30 %
03.04.2018 09:30 9,7 C 6,7 C 78 % 1009,4 hPa 0,0 l/m 6,4 km/h (2 Bft) O-NO 73 0 min 0,000 mm 0,8 UV-I 246 W/m 6,1 C 9,7 C 8,0 km/h (2 Bft) 100,00 %
03.04.2018 09:31 9,7 C 6,7 C 76 % 1009,5 hPa 0,0 l/m 5,5 km/h (1 Bft) O-NO 65 1 min 0,000 mm 0,9 UV-I 295 W/m 5,7 C 9,7 C 6,4 km/h (2 Bft) 96,15 %
03.04.2018 09:32 9,7 C 6,7 C 78 % 1009,4 hPa 0,0 l/m 4,8 km/h (1 Bft) O-NO 64 1 min 0,000 mm 0,9 UV-I 260 W/m 6,1 C 9,7 C 6,4 km/h (2 Bft) 100,00 %
03.04.2018 09:33 9,7 C 6,7 C 77 % 1009,4 hPa 0,0 l/m 4,3 km/h (1 Bft) O-NO 64 1 min 0,000 mm 0,9 UV-I 275 W/m 5,9 C 9,7 C 4,8 km/h (1 Bft) 98,20 %
03.04.2018 09:34 9,8 C 6,7 C 76 % 1009,5 hPa 0,0 l/m 4,4 km/h (1 Bft) O-NO 64 1 min 0,000 mm 0,9 UV-I 277 W/m 5,8 C 9,8 C 6,4 km/h (2 Bft) 97,56 %
03.04.2018 09:35 9,8 C 6,7 C 78 % 1009,4 hPa 0,0 l/m 5,4 km/h (1 Bft) O-NO 63 1 min 0,000 mm 0,9 UV-I 284 W/m 6,1 C 9,8 C 6,4 km/h (2 Bft) 95,83 %
03.04.2018 09:36 9,9 C 6,7 C 77 % 1009,5 hPa 0,0 l/m 6,3 km/h (2 Bft) NO 48 1 min 0,000 mm 1,0 UV-I 353 W/m 6,1 C 9,9 C 8,0 km/h (2 Bft) 100,00 %
03.04.2018 09:37 10,0 C 6,7 C 78 % 1009,4 hPa 0,0 l/m 6,0 km/h (2 Bft) NO 48 1 min 0,000 mm 1,0 UV-I 338 W/m 6,3 C 10,0 C 6,4 km/h (2 Bft) 95,83 %
03.04.2018 09:38 10,1 C 6,7 C 78 % 1009,5 hPa 0,0 l/m 5,2 km/h (1 Bft) NO 48 1 min 0,000 mm 0,9 UV-I 338 W/m 6,4 C 10,1 C 6,4 km/h (2 Bft) 96,15 %
03.04.2018 09:39 10,2 C 6,7 C 76 % 1009,5 hPa 0,0 l/m 4,6 km/h (1 Bft) O-NO 62 0 min 0,000 mm 0,9 UV-I 255 W/m 6,2 C 10,2 C 6,4 km/h (2 Bft) 95,83 %
03.04.2018 09:40 10,2 C 6,7 C 76 % 1009,5 hPa 0,0 l/m 3,5 km/h (1 Bft) O-NO 62 0 min 0,000 mm 0,9 UV-I 241 W/m 6,2 C 10,2 C 4,8 km/h (1 Bft) 95,65 %
03.04.2018 09:41 10,2 C 6,7 C 74 % 1009,5 hPa 0,0 l/m 5,6 km/h (1 Bft) NO 51 1 min 0,000 mm 0,9 UV-I 275 W/m 5,8 C 10,2 C 8,0 km/h (2 Bft) 100,00 %
03.04.2018 09:42 10,2 C 6,7 C 76 % 1009,5 hPa 0,0 l/m 5,4 km/h (1 Bft) NO 51 1 min 0,000 mm 1,0 UV-I 281 W/m 6,2 C 10,2 C 6,4 km/h (2 Bft) 95,65 %
03.04.2018 09:43 10,3 C 6,7 C 76 % 1009,5 hPa 0,0 l/m 5,5 km/h (1 Bft) NO 51 1 min 0,000 mm 1,1 UV-I 390 W/m 6,3 C 10,3 C 6,4 km/h (2 Bft) 95,83 %
03.04.2018 09:44 10,3 C 6,7 C 76 % 1009,5 hPa 0,0 l/m 7,2 km/h (2 Bft) NO 42 1 min 0,000 mm 1,0 UV-I 381 W/m 6,3 C 9,7 C 9,7 km/h (2 Bft) 94,12 %
03.04.2018 09:45 10,4 C 6,7 C 75 % 1009,5 hPa 0,0 l/m 9,3 km/h (2 Bft) NO 51 1 min 0,000 mm 1,1 UV-I 381 W/m 6,2 C 8,4 C 11,3 km/h (2 Bft) 91,67 %
03.04.2018 09:46 10,4 C 6,7 C 76 % 1009,5 hPa 0,0 l/m 10,1 km/h (2 Bft) NO 44 1 min 0,000 mm 1,1 UV-I 377 W/m 6,4 C 8,0 C 11,3 km/h (2 Bft) 96,55 %
03.04.2018 09:47 10,3 C 6,7 C 75 % 1009,5 hPa 0,0 l/m 9,3 km/h (2 Bft) NO 44 1 min 0,000 mm 1,1 UV-I 388 W/m 6,1 C 8,3 C 11,3 km/h (2 Bft) 91,67 %
03.04.2018 09:48 10,3 C 6,7 C 75 % 1009,5 hPa 0,0 l/m 6,8 km/h (2 Bft) NO 47 1 min 0,000 mm 1,1 UV-I 355 W/m 6,1 C 10,0 C 8,0 km/h (2 Bft) 96,88 %
03.04.2018 09:49 10,3 C 6,7 C 74 % 1009,5 hPa 0,0 l/m 5,7 km/h (1 Bft) NO 45 1 min 0,000 mm 1,1 UV-I 371 W/m 5,9 C 10,3 C 6,4 km/h (2 Bft) 93,33 %
03.04.2018 09:50 10,3 C 6,7 C 75 % 1009,5 hPa 0,0 l/m 6,6 km/h (2 Bft) NO 43 1 min 0,000 mm 1,1 UV-I 391 W/m 6,1 C 10,2 C 8,0 km/h (2 Bft) 96,30 %
03.04.2018 09:51 10,4 C 6,7 C 75 % 1009,5 hPa 0,0 l/m 7,0 km/h (2 Bft) NO 37 1 min 0,000 mm 1,1 UV-I 384 W/m 6,2 C 10,0 C 9,7 km/h (2 Bft) 96,15 %
03.04.2018 09:52 10,4 C 6,7 C 74 % 1009,5 hPa 0,0 l/m 8,0 km/h (2 Bft) NO 53 1 min 0,000 mm 1,2 UV-I 395 W/m 6,0 C 9,3 C 9,7 km/h (2 Bft) 94,44 %
03.04.2018 09:53 10,4 C 6,7 C 74 % 1009,5 hPa 0,0 l/m 6,2 km/h (2 Bft) O-NO 75 1 min 0,000 mm 1,2 UV-I 393 W/m 6,0 C 10,4 C 8,0 km/h (2 Bft) 92,31 %
03.04.2018 09:54 10,5 C 6,7 C 74 % 1009,5 hPa 0,0 l/m 6,2 km/h (2 Bft) O-NO 65 1 min 0,000 mm 1,2 UV-I 378 W/m 6,1 C 10,5 C 8,0 km/h (2 Bft) 96,30 %
03.04.2018 09:55 10,5 C 6,7 C 74 % 1009,5 hPa 0,0 l/m 7,7 km/h (2 Bft) NO 50 1 min 0,000 mm 1,2 UV-I 397 W/m 6,1 C 9,6 C 9,7 km/h (2 Bft) 91,30 %
03.04.2018 09:56 10,6 C 6,7 C 76 % 1009,5 hPa 0,0 l/m 6,0 km/h (2 Bft) NO 49 1 min 0,000 mm 1,2 UV-I 434 W/m 6,5 C 10,6 C 8,0 km/h (2 Bft) 95,83 %
03.04.2018 09:57 10,6 C 6,7 C 75 % 1009,5 hPa 0,0 l/m 6,2 km/h (2 Bft) NO 45 1 min 0,000 mm 1,2 UV-I 434 W/m 6,4 C 10,6 C 9,7 km/h (2 Bft) 95,65 %
03.04.2018 09:58 10,7 C 6,7 C 74 % 1009,5 hPa 0,0 l/m 7,0 km/h (2 Bft) NO 44 1 min 0,000 mm 1,3 UV-I 456 W/m 6,3 C 10,3 C 8,0 km/h (2 Bft) 95,83 %
03.04.2018 09:59 10,8 C 6,7 C 77 % 1009,5 hPa 0,0 l/m 7,3 km/h (2 Bft) O-NO 68 1 min 0,000 mm 1,3 UV-I 482 W/m 6,9 C 10,2 C 9,7 km/h (2 Bft) 92,31 %
03.04.2018 10:00 10,8 C 6,7 C 74 % 1009,5 hPa 0,0 l/m 5,8 km/h (2 Bft) NO 51 1 min 0,178 mm 1,3 UV-I 494 W/m 6,4 C 10,8 C 8,0 km/h (2 Bft) 100,00 %
03.04.2018 10:01 10,8 C 6,7 C 76 % 1009,4 hPa 0,0 l/m 6,4 km/h (2 Bft) NO 52 1 min 0,000 mm 1,3 UV-I 453 W/m 6,7 C 10,8 C 9,7 km/h (2 Bft) 86,96 %
03.04.2018 10:02 10,8 C 6,7 C 73 % 1009,4 hPa 0,0 l/m 7,1 km/h (2 Bft) NO 47 1 min 0,000 mm 1,3 UV-I 431 W/m 6,2 C 10,3 C 9,7 km/h (2 Bft) 100,00 %
03.04.2018 10:03 10,8 C 6,7 C 75 % 1009,3 hPa 0,0 l/m 7,4 km/h (2 Bft) O 85 1 min 0,000 mm 1,2 UV-I 412 W/m 6,5 C 10,1 C 12,9 km/h (3 Bft) 90,91 %
03.04.2018 10:04 10,8 C 6,7 C 72 % 1009,4 hPa 0,0 l/m 8,4 km/h (2 Bft) O-NO 78 1 min 0,000 mm 1,2 UV-I 378 W/m 6,0 C 9,4 C 12,9 km/h (3 Bft) 95,83 %
03.04.2018 10:05 10,7 C 6,7 C 72 % 1009,3 hPa 0,0 l/m 8,9 km/h (2 Bft) O 101 1 min 0,000 mm 1,2 UV-I 375 W/m 5,9 C 9,0 C 11,3 km/h (2 Bft) 96,15 %
03.04.2018 10:06 10,6 C 6,7 C 71 % 1009,4 hPa 0,0 l/m 6,4 km/h (2 Bft) O 101 1 min 0,000 mm 1,2 UV-I 351 W/m 5,6 C 10,6 C 9,7 km/h (2 Bft) 93,33 %
03.04.2018 10:07 10,5 C 6,7 C 71 % 1009,4 hPa 0,0 l/m 7,8 km/h (2 Bft) O 101 1 min 0,000 mm 1,2 UV-I 351 W/m 5,5 C 9,5 C 11,3 km/h (2 Bft) 96,30 %
03.04.2018 10:08 10,4 C 6,7 C 72 % 1009,5 hPa 0,0 l/m 5,0 km/h (1 Bft) O-NO 75 1 min 0,000 mm 1,2 UV-I 356 W/m 5,6 C 10,4 C 8,0 km/h (2 Bft) 96,15 %
03.04.2018 10:09 10,4 C 6,7 C 73 % 1009,4 hPa 0,0 l/m 7,7 km/h (2 Bft) O 91 1 min 0,000 mm 1,2 UV-I 335 W/m 5,8 C 9,5 C 11,3 km/h (2 Bft) 100,00 %
03.04.2018 10:10 10,4 C 6,7 C 73 % 1009,5 hPa 0,0 l/m 5,4 km/h (1 Bft) O-NO 65 1 min 0,000 mm 1,1 UV-I 302 W/m 5,8 C 10,4 C 8,0 km/h (2 Bft) 86,67 %
03.04.2018 10:11 10,4 C 6,7 C 74 % 1009,5 hPa 0,0 l/m 5,8 km/h (2 Bft) O-NO 66 0 min 0,000 mm 1,1 UV-I 272 W/m 6,0 C 10,4 C 8,0 km/h (2 Bft) 100,00 %
03.04.2018 10:12 10,5 C 6,7 C 74 % 1009,4 hPa 0,0 l/m 3,8 km/h (1 Bft) O-NO 65 0 min 0,000 mm 1,1 UV-I 272 W/m 6,1 C 10,5 C 4,8 km/h (1 Bft) 96,15 %
03.04.2018 10:13 10,6 C 6,7 C 75 % 1009,4 hPa 0,0 l/m 4,0 km/h (1 Bft) NO 46 0 min 0,000 mm 1,2 UV-I 300 W/m 6,4 C 10,6 C 4,8 km/h (1 Bft) 96,30 %
03.04.2018 10:14 10,7 C 6,7 C 76 % 1009,4 hPa 0,0 l/m 4,1 km/h (1 Bft) NO 46 0 min 0,000 mm 1,2 UV-I 282 W/m 6,6 C 10,7 C 4,8 km/h (1 Bft) 100,00 %
03.04.2018 10:15 10,7 C 6,7 C 77 % 1009,4 hPa 0,0 l/m 4,5 km/h (1 Bft) O-NO 64 0 min 0,000 mm 1,1 UV-I 266 W/m 6,8 C 10,7 C 8,0 km/h (2 Bft) 95,83 %
03.04.2018 10:16 10,7 C 6,7 C 76 % 1009,4 hPa 0,0 l/m 5,6 km/h (1 Bft) O 82 0 min 0,000 mm 1,1 UV-I 266 W/m 6,6 C 10,7 C 6,4 km/h (2 Bft) 85,71 %
03.04.2018 10:17 10,7 C 6,7 C 74 % 1009,4 hPa 0,0 l/m 3,9 km/h (1 Bft) O 82 0 min 0,000 mm 1,1 UV-I 266 W/m 6,3 C 10,7 C 4,8 km/h (1 Bft) 95,83 %
03.04.2018 10:18 10,7 C 6,7 C 74 % 1009,4 hPa 0,0 l/m 5,8 km/h (2 Bft) O 80 0 min 0,000 mm 1,2 UV-I 300 W/m 6,3 C 10,7 C 8,0 km/h (2 Bft) 100,00 %
03.04.2018 10:19 10,7 C 6,7 C 74 % 1009,4 hPa 0,0 l/m 5,1 km/h (1 Bft) O 80 1 min 0,000 mm 1,3 UV-I 348 W/m 6,3 C 10,7 C 8,0 km/h (2 Bft) 95,83 %
03.04.2018 10:20 10,7 C 6,7 C 74 % 1009,5 hPa 0,0 l/m 5,7 km/h (1 Bft) O 88 1 min 0,000 mm 1,3 UV-I 369 W/m 6,3 C 10,7 C 8,0 km/h (2 Bft) 100,00 %
03.04.2018 10:21 10,8 C 6,7 C 74 % 1009,5 hPa 0,0 l/m 6,6 km/h (2 Bft) O-NO 73 1 min 0,000 mm 1,3 UV-I 394 W/m 6,4 C 10,7 C 8,0 km/h (2 Bft) 91,67 %
03.04.2018 10:22 10,8 C 6,7 C 73 % 1009,4 hPa 0,0 l/m 5,7 km/h (1 Bft) NO 49 1 min 0,000 mm 1,4 UV-I 427 W/m 6,2 C 10,8 C 8,0 km/h (2 Bft) 100,00 %
03.04.2018 10:23 10,8 C 6,7 C 73 % 1009,5 hPa 0,0 l/m 7,6 km/h (2 Bft) O 92 1 min 0,000 mm 1,4 UV-I 431 W/m 6,2 C 10,0 C 11,3 km/h (2 Bft) 92,31 %
03.04.2018 10:24 10,9 C 6,7 C 73 % 1009,5 hPa 0,0 l/m 6,2 km/h (2 Bft) O 98 1 min 0,000 mm 1,4 UV-I 393 W/m 6,3 C 10,9 C 9,7 km/h (2 Bft) 96,55 %
03.04.2018 10:25 10,9 C 6,7 C 73 % 1009,5 hPa 0,0 l/m 4,1 km/h (1 Bft) O 98 1 min 0,000 mm 1,4 UV-I 409 W/m 6,3 C 10,9 C 4,8 km/h (1 Bft) 100,00 %
03.04.2018 10:26 11,0 C 6,7 C 73 % 1009,4 hPa 0,0 l/m 4,9 km/h (1 Bft) O-NO 65 1 min 0,000 mm 1,4 UV-I 410 W/m 6,4 C 11,0 C 6,4 km/h (2 Bft) 96,15 %
03.04.2018 10:28 11,2 C 6,7 C 74 % 1009,5 hPa 0,0 l/m 6,6 km/h (2 Bft) NO 51 2 min 0,000 mm 1,5 UV-I 470 W/m 6,7 C 11,1 C 9,7 km/h (2 Bft) 94,87 %
03.04.2018 10:29 11,3 C 6,7 C 73 % 1009,5 hPa 0,0 l/m 5,1 km/h (1 Bft) O-NO 74 1 min 0,000 mm 1,7 UV-I 546 W/m 6,6 C 11,3 C 6,4 km/h (2 Bft) 100,00 %
03.04.2018 10:30 11,3 C 6,7 C 73 % 1009,5 hPa 0,0 l/m 5,6 km/h (1 Bft) O-NO 74 1 min 0,000 mm 1,7 UV-I 550 W/m 6,6 C 11,3 C 6,4 km/h (2 Bft) 95,83 %
03.04.2018 10:31 11,4 C 6,7 C 73 % 1009,5 hPa 0,0 l/m 7,8 km/h (2 Bft) O-NO 75 1 min 0,000 mm 1,7 UV-I 538 W/m 6,7 C 10,5 C 9,7 km/h (2 Bft) 100,00 %
03.04.2018 10:32 11,6 C 6,7 C 74 % 1009,5 hPa 0,0 l/m 6,9 km/h (2 Bft) O-NO 74 1 min 0,000 mm 1,7 UV-I 534 W/m 7,1 C 11,3 C 9,7 km/h (2 Bft) 95,83 %
03.04.2018 10:33 11,7 C 6,7 C 73 % 1009,5 hPa 0,0 l/m 5,0 km/h (1 Bft) O-NO 77 1 min 0,000 mm 1,7 UV-I 560 W/m 7,0 C 11,7 C 6,4 km/h (2 Bft) 100,00 %
03.04.2018 10:34 11,7 C 6,7 C 71 % 1009,5 hPa 0,0 l/m 4,8 km/h (1 Bft) O 101 1 min 0,000 mm 1,8 UV-I 581 W/m 6,6 C 11,7 C 6,4 km/h (2 Bft) 95,83 %
03.04.2018 10:35 11,7 C 6,7 C 71 % 1009,5 hPa 0,0 l/m 5,8 km/h (2 Bft) O-NO 59 1 min 0,000 mm 1,8 UV-I 588 W/m 6,6 C 11,7 C 8,0 km/h (2 Bft) 97,85 %
03.04.2018 10:36 11,7 C 6,7 C 71 % 1009,5 hPa 0,0 l/m 6,8 km/h (2 Bft) O 83 1 min 0,000 mm 1,9 UV-I 602 W/m 6,6 C 11,4 C 8,0 km/h (2 Bft) 97,56 %
03.04.2018 10:37 11,7 C 6,7 C 72 % 1009,6 hPa 0,0 l/m 6,2 km/h (2 Bft) O 100 1 min 0,000 mm 1,9 UV-I 620 W/m 6,8 C 11,7 C 8,0 km/h (2 Bft) 96,15 %
03.04.2018 10:38 11,7 C 6,7 C 71 % 1009,5 hPa 0,0 l/m 7,4 km/h (2 Bft) O 84 1 min 0,000 mm 1,9 UV-I 639 W/m 6,6 C 11,0 C 11,3 km/h (2 Bft) 100,00 %
03.04.2018 10:39 11,8 C 6,7 C 70 % 1009,5 hPa 0,0 l/m 7,7 km/h (2 Bft) O-NO 77 1 min 0,000 mm 2,0 UV-I 643 W/m 6,5 C 10,9 C 11,3 km/h (2 Bft) 92,86 %
03.04.2018 10:40 11,8 C 6,7 C 70 % 1009,5 hPa 0,0 l/m 6,9 km/h (2 Bft) O 80 1 min 0,000 mm 2,0 UV-I 637 W/m 6,5 C 11,5 C 9,7 km/h (2 Bft) 100,00 %
03.04.2018 10:41 11,8 C 6,7 C 72 % 1009,5 hPa 0,0 l/m 6,3 km/h (2 Bft) O 86 1 min 0,000 mm 2,0 UV-I 627 W/m 6,9 C 11,8 C 8,0 km/h (2 Bft) 95,65 %
03.04.2018 10:42 11,9 C 6,7 C 71 % 1009,5 hPa 0,0 l/m 5,9 km/h (2 Bft) O 80 1 min 0,000 mm 1,9 UV-I 608 W/m 6,8 C 11,9 C 8,0 km/h (2 Bft) 100,00 %
03.04.2018 10:43 12,0 C 6,7 C 71 % 1009,5 hPa 0,0 l/m 6,5 km/h (2 Bft) NO 55 1 min 0,000 mm 1,5 UV-I 608 W/m 6,9 C 12,0 C 8,0 km/h (2 Bft) 95,65 %
03.04.2018 10:44 12,1 C 6,7 C 71 % 1009,5 hPa 0,0 l/m 6,9 km/h (2 Bft) O-NO 69 1 min 0,000 mm 1,7 UV-I 540 W/m 7,0 C 11,8 C 9,7 km/h (2 Bft) 100,00 %
03.04.2018 10:45 12,1 C 6,7 C 69 % 1009,5 hPa 0,0 l/m 8,2 km/h (2 Bft) O 88 1 min 0,000 mm 1,7 UV-I 482 W/m 6,6 C 10,9 C 11,3 km/h (2 Bft) 96,15 %
03.04.2018 10:46 12,1 C 6,7 C 69 % 1009,5 hPa 0,0 l/m 7,6 km/h (2 Bft) O-NO 70 1 min 0,000 mm 1,9 UV-I 496 W/m 6,6 C 11,3 C 12,9 km/h (3 Bft) 100,00 %
03.04.2018 10:47 12,2 C 6,7 C 71 % 1009,4 hPa 0,0 l/m 9,1 km/h (2 Bft) O-NO 70 1 min 0,000 mm 2,0 UV-I 638 W/m 7,1 C 10,5 C 11,3 km/h (2 Bft) 97,85 %
03.04.2018 10:48 12,2 C 6,7 C 71 % 1009,4 hPa 0,0 l/m 6,3 km/h (2 Bft) O 88 1 min 0,000 mm 1,9 UV-I 567 W/m 7,1 C 12,2 C 11,3 km/h (2 Bft) 100,00 %
03.04.2018 10:49 12,3 C 6,7 C 69 % 1009,4 hPa 0,0 l/m 8,5 km/h (2 Bft) O-NO 76 1 min 0,000 mm 1,9 UV-I 513 W/m 6,8 C 11,0 C 12,9 km/h (3 Bft) 100,00 %
03.04.2018 10:50 12,2 C 6,7 C 69 % 1009,4 hPa 0,0 l/m 6,1 km/h (2 Bft) O-NO 57 1 min 0,000 mm 1,7 UV-I 462 W/m 6,7 C 12,2 C 8,0 km/h (2 Bft) 100,00 %
03.04.2018 10:51 12,2 C 6,7 C 69 % 1009,4 hPa 0,0 l/m 6,0 km/h (2 Bft) O-NO 67 1 min 0,000 mm 1,8 UV-I 462 W/m 6,7 C 12,2 C 8,0 km/h (2 Bft) 100,00 %
03.04.2018 10:52 12,2 C 6,7 C 69 % 1009,4 hPa 0,0 l/m 6,6 km/h (2 Bft) O-NO 73 1 min 0,000 mm 2,0 UV-I 535 W/m 6,7 C 12,1 C 9,7 km/h (2 Bft) 95,65 %
03.04.2018 10:53 12,3 C 6,7 C 70 % 1009,4 hPa 0,0 l/m 5,7 km/h (1 Bft) O-NO 75 1 min 0,000 mm 2,1 UV-I 562 W/m 7,0 C 12,3 C 8,0 km/h (2 Bft) 100,00 %
03.04.2018 10:54 12,4 C 6,7 C 70 % 1009,4 hPa 0,0 l/m 6,8 km/h (2 Bft) O-NO 67 1 min 0,000 mm 2,1 UV-I 618 W/m 7,1 C 12,1 C 8,0 km/h (2 Bft) 100,00 %
03.04.2018 10:55 12,5 C 6,7 C 69 % 1009,4 hPa 0,0 l/m 4,8 km/h (1 Bft) O 81 1 min 0,000 mm 2,0 UV-I 584 W/m 7,0 C 12,5 C 6,4 km/h (2 Bft) 100,00 %
03.04.2018 10:56 12,5 C 6,7 C 68 % 1009,4 hPa 0,0 l/m 8,2 km/h (2 Bft) O-NO 71 1 min 0,000 mm 2,0 UV-I 574 W/m 6,8 C 11,4 C 12,9 km/h (3 Bft) 100,00 %
03.04.2018 10:57 12,7 C 6,7 C 70 % 1009,4 hPa 0,0 l/m 8,8 km/h (2 Bft) O-NO 60 1 min 0,000 mm 2,1 UV-I 600 W/m 7,4 C 11,2 C 12,9 km/h (3 Bft) 100,00 %
03.04.2018 10:58 12,7 C 6,7 C 70 % 1009,4 hPa 0,0 l/m 7,1 km/h (2 Bft) O 86 1 min 0,000 mm 2,1 UV-I 657 W/m 7,4 C 12,3 C 8,0 km/h (2 Bft) 92,31 %
03.04.2018 10:59 12,8 C 6,7 C 69 % 1009,4 hPa 0,0 l/m 9,8 km/h (2 Bft) O-NO 67 1 min 0,000 mm 2,3 UV-I 711 W/m 7,3 C 10,8 C 12,9 km/h (3 Bft) 100,00 %
03.04.2018 11:00 12,9 C 6,7 C 68 % 1009,4 hPa 0,0 l/m 7,0 km/h (2 Bft) O 88 1 min 0,254 mm 2,3 UV-I 738 W/m 7,1 C 12,5 C 9,7 km/h (2 Bft) 100,00 %
03.04.2018 11:01 12,8 C 6,7 C 67 % 1009,4 hPa 0,0 l/m 6,5 km/h (2 Bft) O 94 1 min 0,000 mm 2,3 UV-I 724 W/m 6,8 C 12,8 C 9,7 km/h (2 Bft) 100,00 %
03.04.2018 11:02 12,8 C 6,7 C 67 % 1009,5 hPa 0,0 l/m 5,6 km/h (1 Bft) O-NO 76 1 min 0,000 mm 2,3 UV-I 679 W/m 6,8 C 12,8 C 6,4 km/h (2 Bft) 100,00 %
03.04.2018 11:03 12,9 C 6,7 C 69 % 1009,5 hPa 0,0 l/m 6,7 km/h (2 Bft) NO 44 1 min 0,000 mm 2,2 UV-I 641 W/m 7,4 C 12,7 C 9,7 km/h (2 Bft) 96,55 %
03.04.2018 11:04 13,1 C 6,7 C 69 % 1009,5 hPa 0,0 l/m 7,3 km/h (2 Bft) O-NO 63 1 min 0,000 mm 2,2 UV-I 664 W/m 7,5 C 12,5 C 9,7 km/h (2 Bft) 100,00 %
03.04.2018 11:05 13,1 C 6,7 C 70 % 1009,5 hPa 0,0 l/m 7,7 km/h (2 Bft) O-NO 59 1 min 0,000 mm 2,3 UV-I 672 W/m 7,8 C 12,3 C 9,7 km/h (2 Bft) 97,90 %
03.04.2018 11:06 13,2 C 6,7 C 70 % 1009,5 hPa 0,0 l/m 6,9 km/h (2 Bft) O-NO 59 1 min 0,000 mm 2,3 UV-I 680 W/m 7,9 C 12,9 C 9,7 km/h (2 Bft) 100,00 %
03.04.2018 11:07 13,2 C 6,7 C 68 % 1009,5 hPa 0,0 l/m 5,1 km/h (1 Bft) O-NO 69 1 min 0,000 mm 2,3 UV-I 678 W/m 7,4 C 13,2 C 8,0 km/h (2 Bft) 100,00 %
03.04.2018 11:08 13,2 C 6,7 C 66 % 1009,5 hPa 0,0 l/m 8,0 km/h (2 Bft) O-NO 77 1 min 0,000 mm 2,3 UV-I 672 W/m 7,0 C 12,2 C 11,3 km/h (2 Bft) 100,00 %
03.04.2018 11:09 13,2 C 6,7 C 66 % 1009,5 hPa 0,0 l/m 5,5 km/h (1 Bft) O 97 1 min 0,000 mm 2,3 UV-I 669 W/m 7,0 C 13,2 C 6,4 km/h (2 Bft) 95,83 %
03.04.2018 11:10 13,1 C 6,7 C 66 % 1009,5 hPa 0,0 l/m 4,4 km/h (1 Bft) O-NO 69 1 min 0,000 mm 2,3 UV-I 666 W/m 6,9 C 13,1 C 6,4 km/h (2 Bft) 100,00 %
03.04.2018 11:11 13,2 C 6,7 C 66 % 1009,5 hPa 0,0 l/m 7,3 km/h (2 Bft) NO 47 1 min 0,000 mm 2,4 UV-I 670 W/m 7,0 C 12,6 C 8,0 km/h (2 Bft) 100,00 %
03.04.2018 11:12 13,3 C 6,7 C 68 % 1009,5 hPa 0,0 l/m 6,2 km/h (2 Bft) NO 40 1 min 0,000 mm 2,4 UV-I 667 W/m 7,5 C 13,3 C 8,0 km/h (2 Bft) 100,00 %
03.04.2018 11:13 13,4 C 6,7 C 70 % 1009,5 hPa 0,0 l/m 7,1 km/h (2 Bft) NO 39 1 min 0,000 mm 2,4 UV-I 662 W/m 8,0 C 13,0 C 8,0 km/h (2 Bft) 95,65 %
03.04.2018 11:14 13,5 C 6,7 C 69 % 1009,5 hPa 0,0 l/m 8,7 km/h (2 Bft) NO 46 1 min 0,000 mm 2,4 UV-I 664 W/m 7,9 C 12,1 C 11,3 km/h (2 Bft) 100,00 %
03.04.2018 11:15 13,6 C 6,7 C 68 % 1009,5 hPa 0,0 l/m 8,7 km/h (2 Bft) O-NO 59 1 min 0,000 mm 2,4 UV-I 667 W/m 7,8 C 12,2 C 11,3 km/h (2 Bft) 95,65 %
03.04.2018 11:16 13,6 C 6,7 C 67 % 1009,5 hPa 0,0 l/m 6,4 km/h (2 Bft) O-NO 64 1 min 0,000 mm 2,4 UV-I 666 W/m 7,6 C 13,6 C 9,7 km/h (2 Bft) 92,59 %
03.04.2018 11:17 13,7 C 6,7 C 67 % 1009,5 hPa 0,0 l/m 6,5 km/h (2 Bft) NO 51 1 min 0,000 mm 2,4 UV-I 663 W/m 7,7 C 13,7 C 9,7 km/h (2 Bft) 92,86 %
03.04.2018 11:18 13,8 C 6,7 C 70 % 1009,5 hPa 0,0 l/m 6,3 km/h (2 Bft) N-NO 32 1 min 0,000 mm 2,4 UV-I 660 W/m 8,4 C 13,8 C 8,0 km/h (2 Bft) 96,30 %
03.04.2018 11:19 13,8 C 6,7 C 68 % 1009,5 hPa 0,0 l/m 5,8 km/h (2 Bft) NO 44 1 min 0,000 mm 2,4 UV-I 663 W/m 8,0 C 13,8 C 8,0 km/h (2 Bft) 100,00 %
03.04.2018 11:20 13,9 C 6,7 C 68 % 1009,5 hPa 0,0 l/m 7,0 km/h (2 Bft) O-NO 58 1 min 0,000 mm 2,4 UV-I 664 W/m 8,1 C 13,5 C 11,3 km/h (2 Bft) 93,33 %
03.04.2018 11:21 14,0 C 6,7 C 65 % 1009,5 hPa 0,0 l/m 7,6 km/h (2 Bft) NO 48 1 min 0,000 mm 2,5 UV-I 668 W/m 7,5 C 13,3 C 11,3 km/h (2 Bft) 100,00 %
03.04.2018 11:22 14,0 C 6,7 C 65 % 1009,4 hPa 0,0 l/m 8,0 km/h (2 Bft) N-NO 32 1 min 0,000 mm 2,5 UV-I 673 W/m 7,5 C 13,1 C 12,9 km/h (3 Bft) 95,65 %
03.04.2018 11:23 14,1 C 6,7 C 68 % 1009,4 hPa 0,0 l/m 9,1 km/h (2 Bft) NO 38 1 min 0,000 mm 2,5 UV-I 672 W/m 8,3 C 12,6 C 12,9 km/h (3 Bft) 100,00 %
03.04.2018 11:24 14,3 C 6,7 C 68 % 1009,4 hPa 0,0 l/m 6,6 km/h (2 Bft) NO 43 1 min 0,000 mm 2,5 UV-I 667 W/m 8,5 C 14,2 C 9,7 km/h (2 Bft) 95,65 %
03.04.2018 11:25 14,4 C 6,7 C 67 % 1009,4 hPa 0,0 l/m 6,8 km/h (2 Bft) NO 47 1 min 0,000 mm 2,5 UV-I 670 W/m 8,4 C 14,2 C 8,0 km/h (2 Bft) 100,00 %
03.04.2018 11:26 14,6 C 6,7 C 70 % 1009,4 hPa 0,0 l/m 8,3 km/h (2 Bft) O-NO 67 1 min 0,000 mm 2,4 UV-I 651 W/m 9,2 C 13,5 C 12,9 km/h (3 Bft) 96,15 %
03.04.2018 11:27 14,6 C 6,7 C 63 % 1009,4 hPa 0,0 l/m 9,4 km/h (2 Bft) O-NO 60 1 min 0,000 mm 2,5 UV-I 659 W/m 7,6 C 13,0 C 14,5 km/h (3 Bft) 100,00 %
03.04.2018 11:28 14,4 C 6,7 C 64 % 1009,4 hPa 0,0 l/m 10,5 km/h (2 Bft) NO 36 1 min 0,000 mm 2,5 UV-I 656 W/m 7,7 C 12,2 C 14,5 km/h (3 Bft) 97,37 %
03.04.2018 11:29 14,4 C 6,7 C 65 % 1009,4 hPa 0,0 l/m 10,3 km/h (2 Bft) O 83 1 min 0,000 mm 2,5 UV-I 664 W/m 7,9 C 12,3 C 12,9 km/h (3 Bft) 91,67 %
03.04.2018 11:30 14,3 C 6,7 C 64 % 1009,4 hPa 0,0 l/m 10,2 km/h (2 Bft) O 94 1 min 0,000 mm 2,5 UV-I 664 W/m 7,6 C 12,3 C 12,9 km/h (3 Bft) 95,65 %
03.04.2018 11:31 14,3 C 6,7 C 62 % 1009,4 hPa 0,0 l/m 9,4 km/h (2 Bft) O-SO 107 1 min 0,000 mm 2,5 UV-I 662 W/m 7,1 C 12,6 C 11,3 km/h (2 Bft) 95,83 %
03.04.2018 11:32 14,2 C 6,7 C 61 % 1009,4 hPa 0,0 l/m 10,4 km/h (2 Bft) O 79 1 min 0,000 mm 2,5 UV-I 664 W/m 6,8 C 12,0 C 14,5 km/h (3 Bft) 100,00 %
03.04.2018 11:33 14,2 C 6,7 C 62 % 1009,3 hPa 0,0 l/m 9,3 km/h (2 Bft) O-SO 110 1 min 0,000 mm 2,6 UV-I 678 W/m 7,0 C 12,6 C 12,9 km/h (3 Bft) 96,30 %
03.04.2018 11:34 14,1 C 6,7 C 63 % 1009,3 hPa 0,0 l/m 9,8 km/h (2 Bft) O 85 1 min 0,000 mm 2,6 UV-I 679 W/m 7,2 C 12,2 C 14,5 km/h (3 Bft) 100,00 %
03.04.2018 11:35 14,1 C 6,7 C 63 % 1009,4 hPa 0,0 l/m 9,5 km/h (2 Bft) O 82 1 min 0,000 mm 2,6 UV-I 680 W/m 7,2 C 12,4 C 12,9 km/h (3 Bft) 92,59 %
03.04.2018 11:36 14,0 C 6,7 C 62 % 1009,4 hPa 0,0 l/m 10,5 km/h (2 Bft) O 92 1 min 0,000 mm 2,6 UV-I 685 W/m 6,8 C 11,8 C 14,5 km/h (3 Bft) 95,65 %
03.04.2018 11:37 13,9 C 6,7 C 62 % 1009,3 hPa 0,0 l/m 10,5 km/h (2 Bft) O 86 1 min 0,000 mm 2,6 UV-I 700 W/m 6,7 C 11,7 C 12,9 km/h (3 Bft) 100,00 %
03.04.2018 11:38 13,9 C 6,7 C 63 % 1009,3 hPa 0,0 l/m 11,3 km/h (2 Bft) O-NO 71 1 min 0,000 mm 2,7 UV-I 715 W/m 7,0 C 11,3 C 14,5 km/h (3 Bft) 93,33 %
03.04.2018 11:39 14,0 C 6,7 C 63 % 1009,3 hPa 0,0 l/m 8,4 km/h (2 Bft) O 82 1 min 0,000 mm 2,6 UV-I 644 W/m 7,1 C 12,8 C 12,9 km/h (3 Bft) 100,00 %
03.04.2018 11:40 14,0 C 6,7 C 63 % 1009,2 hPa 0,0 l/m 9,3 km/h (2 Bft) O-NO 62 1 min 0,000 mm 2,5 UV-I 599 W/m 7,1 C 12,4 C 14,5 km/h (3 Bft) 96,15 %
03.04.2018 11:41 14,1 C 6,7 C 63 % 1009,2 hPa 0,0 l/m 10,9 km/h (2 Bft) O-NO 70 1 min 0,000 mm 1,9 UV-I 598 W/m 7,2 C 11,7 C 14,5 km/h (3 Bft) 100,00 %
03.04.2018 11:42 14,1 C 6,7 C 63 % 1009,2 hPa 0,0 l/m 10,8 km/h (2 Bft) O-NO 76 1 min 0,000 mm 2,1 UV-I 598 W/m 7,2 C 11,8 C 12,9 km/h (3 Bft) 100,00 %
03.04.2018 11:43 14,1 C 6,7 C 62 % 1009,2 hPa 0,0 l/m 11,7 km/h (2 Bft) O-NO 76 1 min 0,000 mm 2,4 UV-I 613 W/m 6,9 C 11,4 C 14,5 km/h (3 Bft) 100,00 %
03.04.2018 11:44 14,1 C 6,7 C 62 % 1009,2 hPa 0,0 l/m 9,1 km/h (2 Bft) O-SO 105 1 min 0,000 mm 2,6 UV-I 669 W/m 6,9 C 12,6 C 12,9 km/h (3 Bft) 100,00 %
03.04.2018 11:45 14,1 C 6,7 C 62 % 1009,2 hPa 0,0 l/m 12,1 km/h (2 Bft) O-SO 107 1 min 0,000 mm 2,7 UV-I 705 W/m 6,9 C 11,2 C 14,5 km/h (3 Bft) 100,00 %
03.04.2018 11:46 14,2 C 6,7 C 63 % 1009,2 hPa 0,0 l/m 10,7 km/h (2 Bft) O-NO 70 1 min 0,000 mm 2,7 UV-I 710 W/m 7,3 C 11,9 C 14,5 km/h (3 Bft) 100,00 %
03.04.2018 11:47 14,3 C 6,7 C 63 % 1009,2 hPa 0,0 l/m 10,3 km/h (2 Bft) O-NO 77 1 min 0,000 mm 2,8 UV-I 720 W/m 7,4 C 12,2 C 12,9 km/h (3 Bft) 100,00 %
03.04.2018 11:48 14,3 C 6,7 C 62 % 1009,2 hPa 0,0 l/m 7,5 km/h (2 Bft) O-SO 107 1 min 0,000 mm 2,8 UV-I 716 W/m 7,1 C 13,7 C 12,9 km/h (3 Bft) 100,00 %
03.04.2018 11:49 14,3 C 6,7 C 62 % 1009,2 hPa 0,0 l/m 8,0 km/h (2 Bft) NO 36 1 min 0,000 mm 2,8 UV-I 714 W/m 7,1 C 13,4 C 11,3 km/h (2 Bft) 100,00 %
03.04.2018 11:50 14,5 C 6,7 C 68 % 1009,2 hPa 0,0 l/m 12,5 km/h (3 Bft) NO 35 1 min 0,000 mm 2,7 UV-I 700 W/m 8,7 C 11,5 C 14,5 km/h (3 Bft) 100,00 %
03.04.2018 11:51 14,7 C 6,7 C 68 % 1009,2 hPa 0,0 l/m 10,8 km/h (2 Bft) N-NO 30 1 min 0,000 mm 2,7 UV-I 671 W/m 8,9 C 12,4 C 14,5 km/h (3 Bft) 100,00 %
03.04.2018 11:52 14,8 C 6,7 C 69 % 1009,2 hPa 0,0 l/m 11,9 km/h (2 Bft) NO 56 1 min 0,000 mm 2,7 UV-I 661 W/m 9,2 C 12,1 C 16,1 km/h (3 Bft) 100,00 %
03.04.2018 11:53 14,9 C 6,7 C 66 % 1009,2 hPa 0,0 l/m 10,0 km/h (2 Bft) N-NO 24 1 min 0,000 mm 2,7 UV-I 685 W/m 8,6 C 13,0 C 12,9 km/h (3 Bft) 100,00 %
03.04.2018 11:54 14,9 C 6,7 C 67 % 1009,2 hPa 0,0 l/m 9,5 km/h (2 Bft) N-NO 18 1 min 0,000 mm 2,8 UV-I 695 W/m 8,8 C 13,2 C 12,9 km/h (3 Bft) 100,00 %
03.04.2018 11:55 15,0 C 6,7 C 67 % 1009,1 hPa 0,0 l/m 8,4 km/h (2 Bft) O-NO 74 1 min 0,000 mm 2,8 UV-I 709 W/m 8,9 C 13,9 C 12,9 km/h (3 Bft) 97,92 %
03.04.2018 11:56 15,2 C 6,7 C 69 % 1009,2 hPa 0,0 l/m 12,9 km/h (3 Bft) NO 47 1 min 0,000 mm 2,9 UV-I 720 W/m 9,6 C 12,2 C 16,1 km/h (3 Bft) 97,87 %
03.04.2018 11:57 15,3 C 6,7 C 68 % 1009,2 hPa 0,0 l/m 11,1 km/h (2 Bft) NO 38 1 min 0,000 mm 2,9 UV-I 722 W/m 9,4 C 13,0 C 14,5 km/h (3 Bft) 100,00 %
03.04.2018 11:58 15,3 C 6,7 C 67 % 1009,1 hPa 0,0 l/m 14,6 km/h (3 Bft) NO 34 1 min 0,000 mm 2,9 UV-I 716 W/m 9,2 C 11,7 C 16,1 km/h (3 Bft) 100,00 %
03.04.2018 11:59 15,3 C 6,7 C 67 % 1009,1 hPa 0,0 l/m 12,2 km/h (2 Bft) NO 36 1 min 0,000 mm 2,8 UV-I 704 W/m 9,2 C 12,5 C 14,5 km/h (3 Bft) 100,00 %
03.04.2018 12:00 15,3 C 6,7 C 68 % 1009,1 hPa 0,0 l/m 11,8 km/h (2 Bft) NO 40 1 min 0,000 mm 2,8 UV-I 705 W/m 9,4 C 12,7 C 16,1 km/h (3 Bft) 95,65 %
03.04.2018 12:01 15,4 C 6,7 C 70 % 1009,1 hPa 0,0 l/m 14,3 km/h (3 Bft) NO 43 1 min 0,381 mm 2,9 UV-I 718 W/m 10,0 C 11,9 C 17,7 km/h (3 Bft) 100,00 %
03.04.2018 12:02 15,5 C 6,7 C 67 % 1009,1 hPa 0,0 l/m 11,5 km/h (2 Bft) N-NO 32 1 min 0,000 mm 2,9 UV-I 716 W/m 9,4 C 13,0 C 14,5 km/h (3 Bft) 100,00 %
03.04.2018 12:03 15,5 C 6,7 C 67 % 1009,1 hPa 0,0 l/m 12,8 km/h (3 Bft) NO 41 1 min 0,000 mm 2,9 UV-I 708 W/m 9,4 C 12,5 C 16,1 km/h (3 Bft) 95,83 %
03.04.2018 12:04 15,4 C 6,7 C 67 % 1009,1 hPa 0,0 l/m 12,6 km/h (3 Bft) NO 50 1 min 0,000 mm 2,8 UV-I 707 W/m 9,3 C 12,5 C 16,1 km/h (3 Bft) 100,00 %
03.04.2018 12:05 15,5 C 6,7 C 67 % 1009,0 hPa 0,0 l/m 10,4 km/h (2 Bft) NO 34 1 min 0,000 mm 2,8 UV-I 677 W/m 9,4 C 13,5 C 16,1 km/h (3 Bft) 100,00 %
03.04.2018 12:06 15,4 C 6,7 C 67 % 1009,0 hPa 0,0 l/m 12,2 km/h (2 Bft) NO 38 1 min 0,000 mm 2,7 UV-I 646 W/m 9,3 C 12,7 C 16,1 km/h (3 Bft) 100,00 %
03.04.2018 12:07 15,4 C 6,7 C 67 % 1009,0 hPa 0,0 l/m 14,5 km/h (3 Bft) NO 40 1 min 0,000 mm 2,8 UV-I 695 W/m 9,3 C 11,8 C 16,1 km/h (3 Bft) 100,00 %
03.04.2018 12:08 15,4 C 6,7 C 68 % 1009,0 hPa 0,0 l/m 13,6 km/h (3 Bft) NO 44 1 min 0,000 mm 2,8 UV-I 691 W/m 9,5 C 12,1 C 17,7 km/h (3 Bft) 100,00 %
03.04.2018 12:09 15,4 C 6,7 C 68 % 1008,9 hPa 0,0 l/m 14,7 km/h (3 Bft) NO 46 1 min 0,000 mm 2,8 UV-I 677 W/m 9,5 C 11,8 C 17,7 km/h (3 Bft) 96,30 %
03.04.2018 12:10 15,4 C 6,7 C 67 % 1008,9 hPa 0,0 l/m 14,7 km/h (3 Bft) NO 38 1 min 0,000 mm 2,8 UV-I 687 W/m 9,3 C 11,8 C 17,7 km/h (3 Bft) 96,15 %
03.04.2018 12:11 15,4 C 6,7 C 67 % 1009,0 hPa 0,0 l/m 12,8 km/h (3 Bft) NO 42 1 min 0,000 mm 2,8 UV-I 674 W/m 9,3 C 12,4 C 16,1 km/h (3 Bft) 97,95 %
03.04.2018 12:12 15,5 C 6,7 C 67 % 1009,0 hPa 0,0 l/m 10,5 km/h (2 Bft) O-NO 61 1 min 0,000 mm 2,8 UV-I 684 W/m 9,4 C 13,5 C 14,5 km/h (3 Bft) 97,56 %
03.04.2018 12:13 15,6 C 6,7 C 66 % 1008,9 hPa 0,0 l/m 12,5 km/h (3 Bft) NO 42 1 min 0,000 mm 2,9 UV-I 710 W/m 9,3 C 12,8 C 16,1 km/h (3 Bft) 100,00 %
03.04.2018 12:14 15,6 C 6,7 C 68 % 1008,9 hPa 0,0 l/m 13,4 km/h (3 Bft) N-NO 31 1 min 0,000 mm 2,8 UV-I 686 W/m 9,7 C 12,5 C 16,1 km/h (3 Bft) 100,00 %
03.04.2018 12:15 15,7 C 6,7 C 68 % 1008,8 hPa 0,0 l/m 14,8 km/h (3 Bft) NO 42 1 min 0,000 mm 2,8 UV-I 665 W/m 9,8 C 12,1 C 17,7 km/h (3 Bft) 100,00 %
03.04.2018 12:16 15,6 C 6,7 C 66 % 1008,8 hPa 0,0 l/m 12,2 km/h (2 Bft) NO 35 1 min 0,000 mm 2,8 UV-I 658 W/m 9,3 C 12,9 C 16,1 km/h (3 Bft) 100,00 %
03.04.2018 12:17 15,6 C 6,7 C 68 % 1008,8 hPa 0,0 l/m 14,1 km/h (3 Bft) NO 36 1 min 0,000 mm 2,7 UV-I 620 W/m 9,7 C 12,2 C 16,1 km/h (3 Bft) 100,00 %
03.04.2018 12:18 15,6 C 6,7 C 66 % 1008,8 hPa 0,0 l/m 13,7 km/h (3 Bft) NO 51 1 min 0,000 mm 2,4 UV-I 594 W/m 9,3 C 12,3 C 16,1 km/h (3 Bft) 100,00 %
03.04.2018 12:19 15,5 C 6,7 C 68 % 1008,8 hPa 0,0 l/m 16,1 km/h (3 Bft) NO 55 1 min 0,000 mm 2,4 UV-I 594 W/m 9,6 C 11,5 C 19,3 km/h (3 Bft) 100,00 %
03.04.2018 12:20 15,6 C 6,7 C 65 % 1008,8 hPa 0,0 l/m 10,3 km/h (2 Bft) O-NO 57 1 min 0,000 mm 2,4 UV-I 594 W/m 9,0 C 13,7 C 14,5 km/h (3 Bft) 93,33 %
03.04.2018 12:21 15,6 C 6,7 C 65 % 1008,8 hPa 0,0 l/m 12,6 km/h (3 Bft) N-NO 31 1 min 0,000 mm 2,8 UV-I 605 W/m 9,0 C 12,7 C 16,1 km/h (3 Bft) 100,00 %
03.04.2018 12:23 15,6 C 6,7 C 68 % 1008,8 hPa 0,0 l/m 12,2 km/h (2 Bft) N-NO 28 2 min 0,000 mm 2,9 UV-I 710 W/m 9,7 C 12,9 C 16,1 km/h (3 Bft) 100,00 %
03.04.2018 12:24 15,7 C 6,7 C 68 % 1008,8 hPa 0,0 l/m 16,5 km/h (3 Bft) N-NO 30 1 min 0,000 mm 3,0 UV-I 717 W/m 9,8 C 11,6 C 19,3 km/h (3 Bft) 96,30 %
03.04.2018 12:25 15,8 C 6,7 C 66 % 1008,8 hPa 0,0 l/m 16,6 km/h (3 Bft) NO 40 1 min 0,000 mm 3,0 UV-I 719 W/m 9,5 C 11,7 C 17,7 km/h (3 Bft) 100,00 %
03.04.2018 12:26 15,8 C 6,7 C 66 % 1008,8 hPa 0,0 l/m 11,8 km/h (2 Bft) NO 54 1 min 0,000 mm 3,0 UV-I 704 W/m 9,5 C 13,3 C 16,1 km/h (3 Bft) 100,00 %
03.04.2018 12:27 15,8 C 6,7 C 68 % 1008,8 hPa 0,0 l/m 13,5 km/h (3 Bft) NO 48 1 min 0,000 mm 2,9 UV-I 687 W/m 9,9 C 12,7 C 16,1 km/h (3 Bft) 100,00 %
03.04.2018 12:28 15,8 C 6,7 C 66 % 1008,8 hPa 0,0 l/m 10,8 km/h (2 Bft) NO 44 1 min 0,000 mm 3,0 UV-I 722 W/m 9,5 C 13,7 C 14,5 km/h (3 Bft) 100,00 %
03.04.2018 12:29 15,8 C 6,7 C 66 % 1008,8 hPa 0,0 l/m 14,0 km/h (3 Bft) NO 47 1 min 0,000 mm 3,0 UV-I 706 W/m 9,5 C 12,5 C 17,7 km/h (3 Bft) 100,00 %
03.04.2018 12:30 15,8 C 6,7 C 67 % 1008,8 hPa 0,0 l/m 13,5 km/h (3 Bft) NO 41 1 min 0,000 mm 3,0 UV-I 707 W/m 9,7 C 12,7 C 16,1 km/h (3 Bft) 100,00 %
03.04.2018 12:31 15,8 C 6,7 C 65 % 1008,8 hPa 0,0 l/m 12,9 km/h (3 Bft) NO 35 1 min 0,000 mm 3,0 UV-I 704 W/m 9,2 C 12,9 C 16,1 km/h (3 Bft) 100,00 %
03.04.2018 12:32 15,8 C 6,7 C 67 % 1008,8 hPa 0,0 l/m 10,1 km/h (2 Bft) N-NO 28 1 min 0,000 mm 3,0 UV-I 696 W/m 9,7 C 14,0 C 14,5 km/h (3 Bft) 100,00 %
03.04.2018 12:33 15,8 C 6,7 C 66 % 1008,7 hPa 0,0 l/m 10,8 km/h (2 Bft) NO 44 1 min 0,000 mm 3,0 UV-I 697 W/m 9,5 C 13,7 C 14,5 km/h (3 Bft) 93,33 %
03.04.2018 12:34 15,8 C 6,7 C 65 % 1008,7 hPa 0,0 l/m 9,6 km/h (2 Bft) NO 46 1 min 0,000 mm 2,9 UV-I 663 W/m 9,2 C 14,2 C 11,3 km/h (2 Bft) 100,00 %
03.04.2018 12:35 15,8 C 6,7 C 66 % 1008,7 hPa 0,0 l/m 13,0 km/h (3 Bft) NO 37 1 min 0,000 mm 2,8 UV-I 602 W/m 9,5 C 12,8 C 17,7 km/h (3 Bft) 100,00 %
03.04.2018 12:36 15,8 C 6,7 C 67 % 1008,7 hPa 0,0 l/m 11,7 km/h (2 Bft) NO 34 1 min 0,000 mm 2,6 UV-I 523 W/m 9,7 C 13,3 C 16,1 km/h (3 Bft) 100,00 %
03.04.2018 12:37 15,8 C 6,7 C 67 % 1008,7 hPa 0,0 l/m 13,2 km/h (3 Bft) NO 37 1 min 0,000 mm 2,4 UV-I 516 W/m 9,7 C 12,8 C 16,1 km/h (3 Bft) 100,00 %
03.04.2018 12:38 15,8 C 6,7 C 66 % 1008,8 hPa 0,0 l/m 12,9 km/h (3 Bft) N-NO 33 1 min 0,000 mm 2,6 UV-I 580 W/m 9,5 C 12,9 C 16,1 km/h (3 Bft) 100,00 %
03.04.2018 12:39 15,8 C 6,7 C 67 % 1008,7 hPa 0,0 l/m 10,7 km/h (2 Bft) NO 45 1 min 0,000 mm 2,7 UV-I 602 W/m 9,7 C 13,7 C 16,1 km/h (3 Bft) 96,67 %
03.04.2018 12:40 15,8 C 6,7 C 67 % 1008,7 hPa 0,0 l/m 9,8 km/h (2 Bft) N-NO 31 1 min 0,000 mm 2,7 UV-I 612 W/m 9,7 C 14,1 C 14,5 km/h (3 Bft) 100,00 %
03.04.2018 12:41 15,8 C 6,7 C 65 % 1008,6 hPa 0,0 l/m 12,1 km/h (2 Bft) NO 36 1 min 0,000 mm 2,4 UV-I 561 W/m 9,2 C 13,2 C 16,1 km/h (3 Bft) 100,00 %
03.04.2018 12:42 15,8 C 6,7 C 66 % 1008,6 hPa 0,0 l/m 9,7 km/h (2 Bft) N-NO 31 1 min 0,000 mm 2,7 UV-I 480 W/m 9,5 C 14,1 C 12,9 km/h (3 Bft) 100,00 %
03.04.2018 12:43 15,9 C 6,7 C 67 % 1008,6 hPa 0,0 l/m 11,3 km/h (2 Bft) O-NO 61 1 min 0,000 mm 3,0 UV-I 661 W/m 9,8 C 13,6 C 14,5 km/h (3 Bft) 95,83 %
03.04.2018 12:44 15,9 C 6,7 C 65 % 1008,6 hPa 0,0 l/m 8,7 km/h (2 Bft) NO 44 1 min 0,000 mm 3,1 UV-I 744 W/m 9,3 C 14,7 C 16,1 km/h (3 Bft) 96,15 %
03.04.2018 12:45 16,1 C 6,7 C 67 % 1008,6 hPa 0,0 l/m 12,7 km/h (3 Bft) NO 49 1 min 0,000 mm 3,1 UV-I 746 W/m 10,0 C 13,3 C 16,1 km/h (3 Bft) 95,83 %
03.04.2018 12:46 16,1 C 6,7 C 68 % 1008,6 hPa 0,0 l/m 7,8 km/h (2 Bft) NO 39 1 min 0,000 mm 3,0 UV-I 681 W/m 10,2 C 15,4 C 14,5 km/h (3 Bft) 95,65 %
03.04.2018 12:47 16,1 C 6,7 C 65 % 1008,6 hPa 0,0 l/m 8,0 km/h (2 Bft) O-NO 61 1 min 0,000 mm 2,9 UV-I 648 W/m 9,5 C 15,3 C 11,3 km/h (2 Bft) 100,00 %
03.04.2018 12:48 16,1 C 6,7 C 64 % 1008,6 hPa 0,0 l/m 7,2 km/h (2 Bft) NO 40 1 min 0,000 mm 2,8 UV-I 608 W/m 9,3 C 15,7 C 14,5 km/h (3 Bft) 81,82 %
03.04.2018 12:49 16,1 C 6,7 C 64 % 1008,6 hPa 0,0 l/m 8,4 km/h (2 Bft) N-NO 24 1 min 0,000 mm 2,6 UV-I 544 W/m 9,3 C 15,1 C 9,7 km/h (2 Bft) 100,00 %
03.04.2018 12:50 16,2 C 6,7 C 68 % 1008,6 hPa 0,0 l/m 12,2 km/h (2 Bft) O-NO 64 1 min 0,000 mm 2,5 UV-I 487 W/m 10,3 C 13,6 C 16,1 km/h (3 Bft) 96,55 %
03.04.2018 12:51 16,2 C 6,7 C 65 % 1008,6 hPa 0,0 l/m 12,0 km/h (2 Bft) NO 43 1 min 0,000 mm 2,5 UV-I 501 W/m 9,6 C 13,7 C 14,5 km/h (3 Bft) 100,00 %
03.04.2018 12:52 16,2 C 6,7 C 67 % 1008,6 hPa 0,0 l/m 10,4 km/h (2 Bft) NO 54 1 min 0,000 mm 2,7 UV-I 575 W/m 10,1 C 14,3 C 14,5 km/h (3 Bft) 95,83 %
03.04.2018 12:53 16,2 C 6,7 C 65 % 1008,5 hPa 0,0 l/m 7,1 km/h (2 Bft) NO 36 1 min 0,000 mm 2,9 UV-I 653 W/m 9,6 C 15,8 C 9,7 km/h (2 Bft) 96,15 %
03.04.2018 12:54 16,2 C 6,7 C 64 % 1008,5 hPa 0,0 l/m 10,2 km/h (2 Bft) NO 50 1 min 0,000 mm 3,0 UV-I 692 W/m 9,4 C 14,4 C 14,5 km/h (3 Bft) 95,65 %
03.04.2018 12:55 16,3 C 6,7 C 64 % 1008,5 hPa 0,0 l/m 12,8 km/h (3 Bft) N-NO 27 1 min 0,000 mm 3,0 UV-I 684 W/m 9,5 C 13,5 C 17,7 km/h (3 Bft) 96,67 %
03.04.2018 12:56 16,4 C 6,7 C 67 % 1008,5 hPa 0,0 l/m 12,2 km/h (2 Bft) NO 45 1 min 0,000 mm 2,9 UV-I 633 W/m 10,3 C 13,8 C 14,5 km/h (3 Bft) 100,00 %
03.04.2018 12:57 16,4 C 6,7 C 65 % 1008,5 hPa 0,0 l/m 10,5 km/h (2 Bft) NO 44 1 min 0,000 mm 2,8 UV-I 588 W/m 9,8 C 14,5 C 14,5 km/h (3 Bft) 96,55 %
03.04.2018 12:58 16,5 C 6,7 C 64 % 1008,5 hPa 0,0 l/m 10,6 km/h (2 Bft) NO 48 1 min 0,000 mm 2,8 UV-I 596 W/m 9,7 C 14,5 C 14,5 km/h (3 Bft) 100,00 %
03.04.2018 12:59 16,6 C 6,7 C 64 % 1008,5 hPa 0,0 l/m 8,0 km/h (2 Bft) O-NO 62 1 min 0,000 mm 2,9 UV-I 636 W/m 9,8 C 15,8 C 11,3 km/h (2 Bft) 95,65 %
03.04.2018 13:00 16,6 C 6,7 C 64 % 1008,5 hPa 0,0 l/m 10,5 km/h (2 Bft) NO 40 1 min 0,381 mm 2,9 UV-I 651 W/m 9,8 C 14,7 C 14,5 km/h (3 Bft) 92,59 %
03.04.2018 13:01 16,7 C 6,7 C 65 % 1008,5 hPa 0,0 l/m 10,1 km/h (2 Bft) NO 37 1 min 0,000 mm 2,8 UV-I 592 W/m 10,1 C 15,0 C 12,9 km/h (3 Bft) 100,00 %
03.04.2018 13:02 16,7 C 6,7 C 62 % 1008,4 hPa 0,0 l/m 7,3 km/h (2 Bft) NO 46 1 min 0,000 mm 2,7 UV-I 555 W/m 9,4 C 16,2 C 9,7 km/h (2 Bft) 96,30 %
03.04.2018 13:03 16,6 C 6,7 C 59 % 1008,4 hPa 0,0 l/m 7,0 km/h (2 Bft) NO 54 1 min 0,000 mm 2,9 UV-I 618 W/m 8,6 C 16,3 C 11,3 km/h (2 Bft) 100,00 %
03.04.2018 13:04 16,5 C 6,7 C 62 % 1008,4 hPa 0,0 l/m 10,9 km/h (2 Bft) NO 45 1 min 0,000 mm 3,1 UV-I 724 W/m 9,2 C 14,4 C 16,1 km/h (3 Bft) 96,30 %
03.04.2018 13:05 16,7 C 6,7 C 66 % 1008,4 hPa 0,0 l/m 11,1 km/h (2 Bft) N-NO 31 1 min 0,000 mm 3,1 UV-I 697 W/m 10,3 C 14,6 C 16,1 km/h (3 Bft) 100,00 %
03.04.2018 13:06 16,7 C 6,7 C 64 % 1008,4 hPa 0,0 l/m 11,3 km/h (2 Bft) N-NO 32 1 min 0,000 mm 3,0 UV-I 624 W/m 9,9 C 14,5 C 16,1 km/h (3 Bft) 96,30 %
03.04.2018 13:07 16,7 C 6,7 C 63 % 1008,4 hPa 0,0 l/m 7,2 km/h (2 Bft) N-NO 26 1 min 0,000 mm 3,0 UV-I 632 W/m 9,6 C 16,3 C 9,7 km/h (2 Bft) 100,00 %
03.04.2018 13:08 16,7 C 6,7 C 63 % 1008,4 hPa 0,0 l/m 9,3 km/h (2 Bft) O-NO 63 1 min 0,000 mm 2,9 UV-I 680 W/m 9,6 C 15,3 C 12,9 km/h (3 Bft) 96,30 %
03.04.2018 13:09 16,8 C 6,7 C 64 % 1008,3 hPa 0,0 l/m 8,7 km/h (2 Bft) NO 42 1 min 0,000 mm 3,2 UV-I 751 W/m 10,0 C 15,7 C 11,3 km/h (2 Bft) 97,98 %
03.04.2018 13:10 16,9 C 6,7 C 63 % 1008,3 hPa 0,0 l/m 9,3 km/h (2 Bft) N-NO 22 1 min 0,000 mm 3,2 UV-I 729 W/m 9,8 C 15,5 C 14,5 km/h (3 Bft) 95,12 %
03.04.2018 13:11 17,0 C 6,7 C 64 % 1008,3 hPa 0,0 l/m 11,1 km/h (2 Bft) NO 44 1 min 0,000 mm 3,1 UV-I 714 W/m 10,1 C 14,9 C 14,5 km/h (3 Bft) 96,15 %
03.04.2018 13:12 17,1 C 6,7 C 64 % 1008,3 hPa 0,0 l/m 10,0 km/h (2 Bft) NO 35 1 min 0,000 mm 3,2 UV-I 746 W/m 10,2 C 15,4 C 14,5 km/h (3 Bft) 100,00 %
03.04.2018 13:13 17,1 C 6,7 C 64 % 1008,3 hPa 0,0 l/m 9,0 km/h (2 Bft) N-NO 31 1 min 0,000 mm 3,1 UV-I 676 W/m 10,2 C 15,9 C 12,9 km/h (3 Bft) 100,00 %
03.04.2018 13:14 17,2 C 6,7 C 68 % 1008,3 hPa 0,0 l/m 13,4 km/h (3 Bft) NO 44 1 min 0,000 mm 3,2 UV-I 757 W/m 11,2 C 14,3 C 17,7 km/h (3 Bft) 100,00 %
03.04.2018 13:15 17,3 C 6,7 C 67 % 1008,3 hPa 0,0 l/m 13,7 km/h (3 Bft) NO 38 1 min 0,000 mm 3,2 UV-I 753 W/m 11,1 C 14,4 C 14,5 km/h (3 Bft) 91,67 %
03.04.2018 13:16 17,4 C 6,7 C 66 % 1008,3 hPa 0,0 l/m 12,0 km/h (2 Bft) NO 45 1 min 0,000 mm 3,3 UV-I 753 W/m 11,0 C 15,0 C 16,1 km/h (3 Bft) 100,00 %
03.04.2018 13:17 17,6 C 6,7 C 65 % 1008,3 hPa 0,0 l/m 12,0 km/h (2 Bft) O 84 1 min 0,000 mm 3,3 UV-I 733 W/m 10,9 C 15,3 C 16,1 km/h (3 Bft) 100,00 %
03.04.2018 13:18 17,6 C 6,7 C 59 % 1008,3 hPa 0,0 l/m 10,5 km/h (2 Bft) O-NO 65 1 min 0,000 mm 3,4 UV-I 799 W/m 9,5 C 15,8 C 12,9 km/h (3 Bft) 100,00 %
03.04.2018 13:19 17,7 C 6,7 C 62 % 1008,3 hPa 0,0 l/m 8,6 km/h (2 Bft) NO 44 1 min 0,000 mm 3,4 UV-I 832 W/m 10,3 C 16,7 C 12,9 km/h (3 Bft) 100,00 %
03.04.2018 13:20 17,7 C 6,7 C 64 % 1008,3 hPa 0,0 l/m 9,9 km/h (2 Bft) NO 40 1 min 0,000 mm 3,4 UV-I 801 W/m 10,8 C 16,1 C 17,7 km/h (3 Bft) 100,00 %
03.04.2018 13:21 17,8 C 6,7 C 62 % 1008,2 hPa 0,0 l/m 13,6 km/h (3 Bft) NO 34 1 min 0,000 mm 3,3 UV-I 790 W/m 10,4 C 15,0 C 16,1 km/h (3 Bft) 100,00 %
03.04.2018 13:22 17,9 C 6,7 C 66 % 1008,2 hPa 0,0 l/m 12,4 km/h (3 Bft) N-NO 19 1 min 0,000 mm 3,4 UV-I 795 W/m 11,5 C 15,5 C 14,5 km/h (3 Bft) 95,65 %
03.04.2018 13:23 17,9 C 6,7 C 63 % 1008,2 hPa 0,0 l/m 11,3 km/h (2 Bft) NO 34 1 min 0,000 mm 3,4 UV-I 782 W/m 10,8 C 15,8 C 14,5 km/h (3 Bft) 100,00 %
03.04.2018 13:24 17,9 C 6,7 C 63 % 1008,2 hPa 0,0 l/m 13,2 km/h (3 Bft) NO 42 1 min 0,000 mm 3,3 UV-I 769 W/m 10,8 C 15,2 C 16,1 km/h (3 Bft) 100,00 %
03.04.2018 13:25 17,8 C 6,7 C 61 % 1008,2 hPa 0,0 l/m 10,6 km/h (2 Bft) NO 40 1 min 0,000 mm 3,2 UV-I 748 W/m 10,2 C 16,0 C 14,5 km/h (3 Bft) 100,00 %
03.04.2018 13:26 17,7 C 6,7 C 60 % 1008,2 hPa 0,0 l/m 8,8 km/h (2 Bft) NO 38 1 min 0,000 mm 3,2 UV-I 727 W/m 9,8 C 16,6 C 11,3 km/h (2 Bft) 100,00 %
03.04.2018 13:27 17,7 C 6,7 C 63 % 1008,1 hPa 0,0 l/m 11,8 km/h (2 Bft) NO 46 1 min 0,000 mm 3,1 UV-I 696 W/m 10,6 C 15,4 C 17,7 km/h (3 Bft) 100,00 %
03.04.2018 13:28 17,6 C 6,7 C 61 % 1008,1 hPa 0,0 l/m 13,3 km/h (3 Bft) NO 40 1 min 0,000 mm 2,9 UV-I 621 W/m 10,0 C 14,8 C 16,1 km/h (3 Bft) 100,00 %
03.04.2018 13:29 17,6 C 6,7 C 62 % 1008,1 hPa 0,0 l/m 12,7 km/h (3 Bft) N-NO 31 1 min 0,000 mm 2,9 UV-I 644 W/m 10,2 C 15,0 C 16,1 km/h (3 Bft) 100,00 %
03.04.2018 13:30 17,6 C 6,7 C 63 % 1008,1 hPa 0,0 l/m 12,1 km/h (2 Bft) NO 40 1 min 0,000 mm 3,0 UV-I 681 W/m 10,5 C 15,2 C 14,5 km/h (3 Bft) 100,00 %
03.04.2018 13:31 17,6 C 6,7 C 64 % 1008,1 hPa 0,0 l/m 13,5 km/h (3 Bft) NO 38 1 min 0,000 mm 2,9 UV-I 657 W/m 10,7 C 14,8 C 14,5 km/h (3 Bft) 100,00 %
03.04.2018 13:32 17,6 C 6,7 C 62 % 1008,1 hPa 0,0 l/m 12,5 km/h (3 Bft) NO 36 1 min 0,000 mm 2,8 UV-I 598 W/m 10,2 C 15,1 C 16,1 km/h (3 Bft) 100,00 %
03.04.2018 13:33 17,5 C 6,7 C 60 % 1008,1 hPa 0,0 l/m 8,1 km/h (2 Bft) O-NO 70 1 min 0,000 mm 2,8 UV-I 604 W/m 9,6 C 16,7 C 11,3 km/h (2 Bft) 100,00 %
03.04.2018 13:34 17,6 C 6,7 C 64 % 1008,0 hPa 0,0 l/m 12,4 km/h (3 Bft) N-NO 33 1 min 0,000 mm 2,7 UV-I 606 W/m 10,7 C 15,1 C 17,7 km/h (3 Bft) 100,00 %
03.04.2018 13:35 17,7 C 6,7 C 62 % 1008,0 hPa 0,0 l/m 16,8 km/h (3 Bft) NO 51 1 min 0,000 mm 2,8 UV-I 601 W/m 10,3 C 14,0 C 20,9 km/h (4 Bft) 100,00 %
03.04.2018 13:36 17,6 C 6,7 C 62 % 1008,0 hPa 0,0 l/m 15,6 km/h (3 Bft) N-NO 20 1 min 0,000 mm 2,7 UV-I 560 W/m 10,2 C 14,2 C 17,7 km/h (3 Bft) 100,00 %
03.04.2018 13:37 17,6 C 6,7 C 63 % 1008,0 hPa 0,0 l/m 11,0 km/h (2 Bft) N-NO 28 1 min 0,000 mm 2,7 UV-I 546 W/m 10,5 C 15,6 C 14,5 km/h (3 Bft) 100,00 %
03.04.2018 13:38 17,6 C 6,7 C 62 % 1007,9 hPa 0,0 l/m 11,0 km/h (2 Bft) NO 40 1 min 0,000 mm 2,7 UV-I 598 W/m 10,2 C 15,6 C 17,7 km/h (3 Bft) 100,00 %
03.04.2018 13:39 17,6 C 6,7 C 63 % 1007,9 hPa 0,0 l/m 14,5 km/h (3 Bft) NO 36 1 min 0,000 mm 2,7 UV-I 592 W/m 10,5 C 14,5 C 16,1 km/h (3 Bft) 100,00 %
03.04.2018 13:40 17,6 C 6,7 C 64 % 1007,9 hPa 0,0 l/m 9,6 km/h (2 Bft) N-NO 29 1 min 0,000 mm 2,7 UV-I 606 W/m 10,7 C 16,1 C 11,3 km/h (2 Bft) 100,00 %
03.04.2018 13:41 17,7 C 6,7 C 61 % 1007,9 hPa 0,0 l/m 12,4 km/h (3 Bft) N-NO 30 1 min 0,000 mm 2,7 UV-I 606 W/m 10,1 C 15,2 C 16,1 km/h (3 Bft) 94,12 %
03.04.2018 13:42 17,7 C 6,7 C 63 % 1007,9 hPa 0,0 l/m 15,8 km/h (3 Bft) NO 37 1 min 0,000 mm 2,7 UV-I 611 W/m 10,6 C 14,2 C 19,3 km/h (3 Bft) 100,00 %
03.04.2018 13:43 17,8 C 6,7 C 61 % 1007,9 hPa 0,0 l/m 14,0 km/h (3 Bft) O-NO 76 1 min 0,000 mm 2,7 UV-I 600 W/m 10,2 C 14,9 C 17,7 km/h (3 Bft) 100,00 %
03.04.2018 13:44 17,7 C 6,7 C 58 % 1007,9 hPa 0,0 l/m 13,1 km/h (3 Bft) NO 51 1 min 0,000 mm 2,7 UV-I 617 W/m 9,3 C 15,0 C 16,1 km/h (3 Bft) 100,00 %
03.04.2018 13:45 17,8 C 6,7 C 59 % 1007,9 hPa 0,0 l/m 15,4 km/h (3 Bft) O-NO 57 1 min 0,000 mm 2,8 UV-I 624 W/m 9,7 C 14,5 C 19,3 km/h (3 Bft) 100,00 %
03.04.2018 13:46 17,8 C 6,7 C 59 % 1007,8 hPa 0,0 l/m 11,9 km/h (2 Bft) N-NO 23 1 min 0,000 mm 2,8 UV-I 648 W/m 9,7 C 15,5 C 16,1 km/h (3 Bft) 100,00 %
03.04.2018 13:47 17,9 C 6,7 C 62 % 1007,9 hPa 0,0 l/m 15,4 km/h (3 Bft) N-NO 33 1 min 0,000 mm 3,0 UV-I 716 W/m 10,5 C 14,6 C 19,3 km/h (3 Bft) 100,00 %
03.04.2018 13:48 18,1 C 6,7 C 59 % 1007,8 hPa 0,0 l/m 13,3 km/h (3 Bft) NO 35 1 min 0,000 mm 3,1 UV-I 758 W/m 10,0 C 15,4 C 16,1 km/h (3 Bft) 100,00 %
03.04.2018 13:49 18,2 C 6,7 C 60 % 1007,8 hPa 0,0 l/m 11,5 km/h (2 Bft) NO 47 1 min 0,000 mm 3,0 UV-I 716 W/m 10,3 C 16,1 C 14,5 km/h (3 Bft) 96,30 %
03.04.2018 13:50 18,4 C 6,7 C 60 % 1007,8 hPa 0,0 l/m 13,9 km/h (3 Bft) O-NO 59 1 min 0,000 mm 3,2 UV-I 741 W/m 10,5 C 15,6 C 17,7 km/h (3 Bft) 100,00 %
03.04.2018 13:51 18,6 C 6,7 C 62 % 1007,7 hPa 0,0 l/m 12,5 km/h (3 Bft) O-NO 61 1 min 0,000 mm 3,2 UV-I 767 W/m 11,2 C 16,3 C 14,5 km/h (3 Bft) 100,00 %
03.04.2018 13:52 18,7 C 6,7 C 56 % 1007,7 hPa 0,0 l/m 11,7 km/h (2 Bft) O-NO 71 1 min 0,000 mm 3,1 UV-I 725 W/m 9,7 C 16,6 C 16,1 km/h (3 Bft) 93,33 %
03.04.2018 13:53 18,7 C 6,7 C 56 % 1007,8 hPa 0,0 l/m 13,0 km/h (3 Bft) O-NO 60 1 min 0,000 mm 3,2 UV-I 765 W/m 9,7 C 16,2 C 19,3 km/h (3 Bft) 100,00 %
03.04.2018 13:54 18,7 C 6,7 C 57 % 1007,7 hPa 0,0 l/m 15,9 km/h (3 Bft) NO 42 1 min 0,000 mm 3,2 UV-I 768 W/m 10,0 C 15,4 C 19,3 km/h (3 Bft) 100,00 %
03.04.2018 13:55 18,6 C 6,7 C 57 % 1007,7 hPa 0,0 l/m 11,4 km/h (2 Bft) N-NO 28 1 min 0,000 mm 3,3 UV-I 803 W/m 9,9 C 16,6 C 14,5 km/h (3 Bft) 100,00 %
03.04.2018 13:56 18,6 C 6,7 C 57 % 1007,7 hPa 0,0 l/m 12,3 km/h (3 Bft) NO 40 1 min 0,000 mm 3,2 UV-I 763 W/m 9,9 C 16,3 C 14,5 km/h (3 Bft) 100,00 %
03.04.2018 13:57 18,7 C 6,7 C 59 % 1007,6 hPa 0,0 l/m 11,5 km/h (2 Bft) NO 49 1 min 0,000 mm 3,1 UV-I 728 W/m 10,5 C 16,7 C 17,7 km/h (3 Bft) 100,00 %
03.04.2018 13:58 18,7 C 6,7 C 57 % 1007,6 hPa 0,0 l/m 14,2 km/h (3 Bft) N-NO 32 1 min 0,000 mm 3,2 UV-I 747 W/m 10,0 C 15,9 C 20,9 km/h (4 Bft) 100,00 %
03.04.2018 13:59 18,8 C 6,7 C 56 % 1007,6 hPa 0,0 l/m 13,5 km/h (3 Bft) NO 41 1 min 0,000 mm 3,0 UV-I 713 W/m 9,8 C 16,2 C 17,7 km/h (3 Bft) 100,00 %
03.04.2018 14:00 18,9 C 6,7 C 61 % 1007,6 hPa 0,0 l/m 13,0 km/h (3 Bft) NO 46 1 min 0,432 mm 2,9 UV-I 703 W/m 11,2 C 16,5 C 17,7 km/h (3 Bft) 100,00 %
03.04.2018 14:01 18,9 C 6,7 C 57 % 1007,6 hPa 0,0 l/m 12,7 km/h (3 Bft) N-NO 17 1 min 0,000 mm 2,9 UV-I 652 W/m 10,2 C 16,6 C 16,1 km/h (3 Bft) 100,00 %
03.04.2018 14:02 18,9 C 6,7 C 56 % 1007,6 hPa 0,0 l/m 13,4 km/h (3 Bft) O 88 1 min 0,000 mm 3,1 UV-I 698 W/m 9,9 C 16,3 C 16,1 km/h (3 Bft) 100,00 %
03.04.2018 14:03 18,8 C 6,7 C 53 % 1007,5 hPa 0,0 l/m 9,7 km/h (2 Bft) O 80 1 min 0,000 mm 3,0 UV-I 698 W/m 9,0 C 17,4 C 16,1 km/h (3 Bft) 100,00 %
03.04.2018 14:04 18,7 C 6,7 C 56 % 1007,5 hPa 0,0 l/m 10,6 km/h (2 Bft) NO 51 1 min 0,000 mm 3,1 UV-I 730 W/m 9,7 C 17,0 C 16,1 km/h (3 Bft) 100,00 %
03.04.2018 14:05 18,7 C 6,7 C 55 % 1007,5 hPa 0,0 l/m 12,8 km/h (3 Bft) O 80 1 min 0,000 mm 3,1 UV-I 739 W/m 9,5 C 16,3 C 16,1 km/h (3 Bft) 100,00 %
03.04.2018 14:06 18,7 C 6,7 C 53 % 1007,5 hPa 0,0 l/m 15,2 km/h (3 Bft) O-NO 64 1 min 0,000 mm 3,0 UV-I 664 W/m 8,9 C 15,6 C 17,7 km/h (3 Bft) 100,00 %
03.04.2018 14:07 18,7 C 6,7 C 54 % 1007,5 hPa 0,0 l/m 14,4 km/h (3 Bft) NO 40 1 min 0,000 mm 2,9 UV-I 616 W/m 9,2 C 15,8 C 19,3 km/h (3 Bft) 100,00 %
03.04.2018 14:08 18,7 C 6,7 C 56 % 1007,5 hPa 0,0 l/m 14,1 km/h (3 Bft) O-NO 71 1 min 0,000 mm 2,9 UV-I 609 W/m 9,7 C 15,9 C 17,7 km/h (3 Bft) 100,00 %
03.04.2018 14:09 18,7 C 6,7 C 53 % 1007,5 hPa 0,0 l/m 14,8 km/h (3 Bft) NO 42 1 min 0,000 mm 2,9 UV-I 621 W/m 8,9 C 15,7 C 19,3 km/h (3 Bft) 100,00 %
03.04.2018 14:10 18,6 C 6,7 C 53 % 1007,6 hPa 0,0 l/m 15,1 km/h (3 Bft) O-NO 57 1 min 0,000 mm 2,9 UV-I 633 W/m 8,8 C 15,5 C 17,7 km/h (3 Bft) 100,00 %
03.04.2018 14:11 18,6 C 6,7 C 48 % 1007,6 hPa 0,0 l/m 12,1 km/h (2 Bft) NO 40 1 min 0,000 mm 2,9 UV-I 652 W/m 7,4 C 16,4 C 17,7 km/h (3 Bft) 100,00 %
03.04.2018 14:12 18,5 C 6,7 C 55 % 1007,6 hPa 0,0 l/m 17,4 km/h (3 Bft) N-NO 33 1 min 0,000 mm 2,9 UV-I 650 W/m 9,3 C 14,8 C 20,9 km/h (4 Bft) 100,00 %
03.04.2018 14:13 18,6 C 6,7 C 56 % 1007,6 hPa 0,0 l/m 13,6 km/h (3 Bft) O-NO 58 1 min 0,000 mm 2,9 UV-I 654 W/m 9,6 C 15,9 C 17,7 km/h (3 Bft) 100,00 %
03.04.2018 14:14 18,6 C 6,7 C 51 % 1007,5 hPa 0,0 l/m 8,1 km/h (2 Bft) NO 35 1 min 0,000 mm 2,8 UV-I 628 W/m 8,3 C 17,8 C 9,7 km/h (2 Bft) 100,00 %
03.04.2018 14:15 18,6 C 6,7 C 50 % 1007,5 hPa 0,0 l/m 10,7 km/h (2 Bft) NO 40 1 min 0,000 mm 2,8 UV-I 609 W/m 8,0 C 16,8 C 16,1 km/h (3 Bft) 100,00 %
03.04.2018 14:16 18,6 C 6,7 C 55 % 1007,5 hPa 0,0 l/m 15,1 km/h (3 Bft) O-NO 69 1 min 0,000 mm 2,7 UV-I 576 W/m 9,4 C 15,5 C 19,3 km/h (3 Bft) 100,00 %
03.04.2018 14:17 18,7 C 6,7 C 54 % 1007,5 hPa 0,0 l/m 16,9 km/h (3 Bft) NO 54 1 min 0,000 mm 2,6 UV-I 580 W/m 9,2 C 15,2 C 19,3 km/h (3 Bft) 96,55 %
03.04.2018 14:18 18,7 C 6,7 C 54 % 1007,5 hPa 0,0 l/m 14,0 km/h (3 Bft) O-NO 74 1 min 0,000 mm 2,6 UV-I 561 W/m 9,2 C 15,9 C 17,7 km/h (3 Bft) 98,14 %
03.04.2018 14:19 18,6 C 6,7 C 49 % 1007,5 hPa 0,0 l/m 12,0 km/h (2 Bft) O-NO 61 1 min 0,000 mm 2,5 UV-I 511 W/m 7,7 C 16,4 C 16,1 km/h (3 Bft) 100,00 %
03.04.2018 14:20 18,6 C 6,7 C 51 % 1007,5 hPa 0,0 l/m 13,8 km/h (3 Bft) NO 46 1 min 0,000 mm 2,3 UV-I 450 W/m 8,3 C 15,9 C 17,7 km/h (3 Bft) 100,00 %
03.04.2018 14:21 18,6 C 6,7 C 54 % 1007,4 hPa 0,0 l/m 10,3 km/h (2 Bft) O-NO 60 1 min 0,000 mm 2,3 UV-I 422 W/m 9,1 C 17,0 C 14,5 km/h (3 Bft) 100,00 %
03.04.2018 14:22 18,6 C 6,7 C 52 % 1007,4 hPa 0,0 l/m 12,9 km/h (3 Bft) O-NO 68 1 min 0,000 mm 2,4 UV-I 460 W/m 8,5 C 16,1 C 17,7 km/h (3 Bft) 100,00 %
03.04.2018 14:23 18,6 C 6,7 C 54 % 1007,5 hPa 0,0 l/m 9,7 km/h (2 Bft) O-SO 110 1 min 0,000 mm 2,4 UV-I 493 W/m 9,1 C 17,2 C 16,1 km/h (3 Bft) 92,86 %
03.04.2018 14:24 18,6 C 6,7 C 48 % 1007,5 hPa 0,0 l/m 12,6 km/h (3 Bft) O-NO 58 1 min 0,000 mm 2,4 UV-I 532 W/m 7,4 C 16,2 C 17,7 km/h (3 Bft) 100,00 %
03.04.2018 14:25 18,4 C 6,7 C 48 % 1007,4 hPa 0,0 l/m 13,4 km/h (3 Bft) O 88 1 min 0,000 mm 2,4 UV-I 540 W/m 7,2 C 15,8 C 16,1 km/h (3 Bft) 96,55 %
03.04.2018 14:26 18,4 C 6,7 C 49 % 1007,4 hPa 0,0 l/m 11,8 km/h (2 Bft) O 82 1 min 0,000 mm 2,5 UV-I 561 W/m 7,5 C 16,3 C 17,7 km/h (3 Bft) 93,33 %
03.04.2018 14:27 18,3 C 6,7 C 50 % 1007,5 hPa 0,0 l/m 12,3 km/h (3 Bft) O 92 1 min 0,000 mm 2,6 UV-I 560 W/m 7,7 C 16,0 C 16,1 km/h (3 Bft) 95,83 %
03.04.2018 14:28 18,3 C 6,7 C 52 % 1007,5 hPa 0,0 l/m 13,7 km/h (3 Bft) O 84 1 min 0,000 mm 2,6 UV-I 583 W/m 8,3 C 15,6 C 16,1 km/h (3 Bft) 100,00 %
03.04.2018 14:29 18,4 C 6,7 C 51 % 1007,4 hPa 0,0 l/m 13,0 km/h (3 Bft) O-NO 59 1 min 0,000 mm 2,7 UV-I 605 W/m 8,1 C 15,9 C 16,1 km/h (3 Bft) 93,75 %
03.04.2018 14:30 18,5 C 6,7 C 51 % 1007,4 hPa 0,0 l/m 9,0 km/h (2 Bft) O-NO 67 1 min 0,000 mm 2,7 UV-I 612 W/m 8,2 C 17,4 C 12,9 km/h (3 Bft) 93,33 %
03.04.2018 14:31 18,6 C 6,7 C 51 % 1007,4 hPa 0,0 l/m 11,3 km/h (2 Bft) O-NO 71 1 min 0,000 mm 2,7 UV-I 618 W/m 8,3 C 16,6 C 16,1 km/h (3 Bft) 100,00 %
03.04.2018 14:32 18,6 C 6,7 C 48 % 1007,5 hPa 0,0 l/m 16,2 km/h (3 Bft) O-NO 65 1 min 0,000 mm 2,7 UV-I 620 W/m 7,4 C 15,2 C 17,7 km/h (3 Bft) 95,00 %
03.04.2018 14:33 18,6 C 6,7 C 48 % 1007,4 hPa 0,0 l/m 9,5 km/h (2 Bft) O 98 1 min 0,000 mm 2,7 UV-I 622 W/m 7,4 C 17,3 C 14,5 km/h (3 Bft) 100,00 %
03.04.2018 14:34 18,7 C 6,7 C 48 % 1007,5 hPa 0,0 l/m 10,5 km/h (2 Bft) O-NO 73 1 min 0,000 mm 2,8 UV-I 644 W/m 7,5 C 17,0 C 14,5 km/h (3 Bft) 96,15 %
03.04.2018 14:35 18,7 C 6,7 C 49 % 1007,4 hPa 0,0 l/m 12,0 km/h (2 Bft) NO 35 1 min 0,000 mm 2,8 UV-I 668 W/m 7,8 C 16,5 C 17,7 km/h (3 Bft) 100,00 %
03.04.2018 14:36 18,7 C 6,7 C 50 % 1007,4 hPa 0,0 l/m 14,3 km/h (3 Bft) O-SO 107 1 min 0,000 mm 2,9 UV-I 681 W/m 8,1 C 15,9 C 19,3 km/h (3 Bft) 92,31 %
03.04.2018 14:37 18,7 C 6,7 C 49 % 1007,4 hPa 0,0 l/m 16,8 km/h (3 Bft) O 95 1 min 0,000 mm 2,9 UV-I 683 W/m 7,8 C 15,2 C 20,9 km/h (4 Bft) 95,83 %
03.04.2018 14:38 18,7 C 6,7 C 48 % 1007,3 hPa 0,0 l/m 11,6 km/h (2 Bft) O 90 1 min 0,000 mm 2,8 UV-I 660 W/m 7,5 C 16,7 C 14,5 km/h (3 Bft) 100,00 %
03.04.2018 14:39 18,8 C 6,7 C 48 % 1007,3 hPa 0,0 l/m 16,2 km/h (3 Bft) O 98 1 min 0,000 mm 2,8 UV-I 652 W/m 7,6 C 15,5 C 19,3 km/h (3 Bft) 91,67 %
03.04.2018 14:40 18,8 C 6,7 C 47 % 1007,3 hPa 0,0 l/m 15,1 km/h (3 Bft) O-NO 60 1 min 0,000 mm 2,8 UV-I 655 W/m 7,2 C 15,8 C 19,3 km/h (3 Bft) 96,55 %
03.04.2018 14:41 18,7 C 6,7 C 47 % 1007,3 hPa 0,0 l/m 15,4 km/h (3 Bft) O 87 1 min 0,000 mm 2,8 UV-I 675 W/m 7,2 C 15,6 C 20,9 km/h (4 Bft) 96,67 %
03.04.2018 14:42 18,7 C 6,7 C 47 % 1007,3 hPa 0,0 l/m 15,5 km/h (3 Bft) O-SO 105 1 min 0,000 mm 2,8 UV-I 687 W/m 7,2 C 15,5 C 22,5 km/h (4 Bft) 100,00 %
03.04.2018 14:43 18,7 C 6,7 C 47 % 1007,3 hPa 0,0 l/m 13,9 km/h (3 Bft) O 98 1 min 0,000 mm 2,8 UV-I 686 W/m 7,2 C 16,0 C 17,7 km/h (3 Bft) 96,67 %
03.04.2018 14:44 18,7 C 6,7 C 47 % 1007,2 hPa 0,0 l/m 12,6 km/h (3 Bft) O-NO 59 1 min 0,000 mm 2,8 UV-I 664 W/m 7,2 C 16,3 C 16,1 km/h (3 Bft) 96,15 %
03.04.2018 14:45 18,8 C 6,7 C 49 % 1007,2 hPa 0,0 l/m 11,5 km/h (2 Bft) O 82 1 min 0,000 mm 2,8 UV-I 674 W/m 7,9 C 16,8 C 16,1 km/h (3 Bft) 100,00 %
03.04.2018 14:46 18,8 C 6,7 C 49 % 1007,2 hPa 0,0 l/m 15,6 km/h (3 Bft) NO 55 1 min 0,000 mm 2,8 UV-I 675 W/m 7,9 C 15,6 C 17,7 km/h (3 Bft) 96,15 %
03.04.2018 14:48 18,9 C 6,7 C 49 % 1007,1 hPa 0,0 l/m 10,7 km/h (2 Bft) O-NO 57 2 min 0,000 mm 2,8 UV-I 669 W/m 7,9 C 17,2 C 16,1 km/h (3 Bft) 97,62 %
03.04.2018 14:49 19,0 C 6,7 C 49 % 1007,1 hPa 0,0 l/m 10,9 km/h (2 Bft) O 85 1 min 0,000 mm 2,8 UV-I 674 W/m 8,0 C 17,2 C 17,7 km/h (3 Bft) 96,88 %
03.04.2018 14:50 19,0 C 6,7 C 47 % 1007,1 hPa 0,0 l/m 12,5 km/h (3 Bft) O-SO 103 1 min 0,000 mm 2,8 UV-I 662 W/m 7,4 C 16,7 C 16,1 km/h (3 Bft) 96,55 %
03.04.2018 14:51 19,0 C 6,7 C 47 % 1007,1 hPa 0,0 l/m 13,3 km/h (3 Bft) O 87 1 min 0,000 mm 2,8 UV-I 658 W/m 7,4 C 16,5 C 16,1 km/h (3 Bft) 100,00 %
03.04.2018 14:52 19,0 C 6,7 C 48 % 1007,1 hPa 0,0 l/m 13,1 km/h (3 Bft) O-NO 65 1 min 0,000 mm 2,7 UV-I 663 W/m 7,7 C 16,6 C 17,7 km/h (3 Bft) 95,83 %
03.04.2018 14:53 19,1 C 6,7 C 49 % 1007,1 hPa 0,0 l/m 9,3 km/h (2 Bft) O 98 1 min 0,000 mm 2,7 UV-I 667 W/m 8,1 C 17,9 C 14,5 km/h (3 Bft) 100,00 %
03.04.2018 14:54 19,1 C 6,7 C 49 % 1007,2 hPa 0,0 l/m 11,8 km/h (2 Bft) O 94 1 min 0,000 mm 2,7 UV-I 656 W/m 8,1 C 17,1 C 16,1 km/h (3 Bft) 100,00 %
03.04.2018 14:55 19,1 C 6,7 C 48 % 1007,1 hPa 0,0 l/m 16,8 km/h (3 Bft) O 91 1 min 0,000 mm 2,7 UV-I 633 W/m 7,8 C 15,7 C 20,9 km/h (4 Bft) 100,00 %
03.04.2018 14:56 19,1 C 6,7 C 47 % 1007,1 hPa 0,0 l/m 15,7 km/h (3 Bft) O 101 1 min 0,000 mm 2,7 UV-I 651 W/m 7,5 C 16,0 C 19,3 km/h (3 Bft) 100,00 %
03.04.2018 14:58 19,1 C 6,7 C 49 % 1007,1 hPa 0,0 l/m 12,9 km/h (3 Bft) NO 47 2 min 0,000 mm 2,7 UV-I 655 W/m 8,1 C 16,7 C 16,1 km/h (3 Bft) 97,37 %
03.04.2018 14:59 19,2 C 6,7 C 49 % 1007,1 hPa 0,0 l/m 14,9 km/h (3 Bft) O-NO 59 1 min 0,000 mm 2,6 UV-I 635 W/m 8,2 C 16,3 C 19,3 km/h (3 Bft) 100,00 %
03.04.2018 15:00 19,2 C 6,7 C 47 % 1007,0 hPa 0,0 l/m 15,1 km/h (3 Bft) O-SO 103 1 min 0,000 mm 2,6 UV-I 633 W/m 7,6 C 16,3 C 19,3 km/h (3 Bft) 96,30 %
03.04.2018 15:01 19,2 C 6,7 C 47 % 1007,0 hPa 0,0 l/m 16,5 km/h (3 Bft) O-NO 74 1 min 0,431 mm 2,6 UV-I 633 W/m 7,6 C 15,9 C 19,3 km/h (3 Bft) 100,00 %
03.04.2018 15:02 19,2 C 6,7 C 46 % 1007,0 hPa 0,0 l/m 15,1 km/h (3 Bft) O 89 1 min 0,000 mm 2,6 UV-I 620 W/m 7,3 C 16,3 C 19,3 km/h (3 Bft) 100,00 %
03.04.2018 15:03 19,2 C 6,7 C 47 % 1007,0 hPa 0,0 l/m 12,8 km/h (3 Bft) O-NO 72 1 min 0,000 mm 2,6 UV-I 628 W/m 7,6 C 16,9 C 16,1 km/h (3 Bft) 100,00 %
03.04.2018 15:04 19,1 C 6,7 C 47 % 1007,0 hPa 0,0 l/m 15,5 km/h (3 Bft) O 86 1 min 0,000 mm 2,5 UV-I 627 W/m 7,5 C 16,0 C 19,3 km/h (3 Bft) 93,33 %
03.04.2018 15:05 19,1 C 6,7 C 46 % 1006,9 hPa 0,0 l/m 15,4 km/h (3 Bft) O 98 1 min 0,000 mm 2,5 UV-I 612 W/m 7,2 C 16,1 C 20,9 km/h (4 Bft) 100,00 %
03.04.2018 15:06 19,2 C 6,7 C 47 % 1006,9 hPa 0,0 l/m 15,6 km/h (3 Bft) O-NO 72 1 min 0,000 mm 2,5 UV-I 606 W/m 7,6 C 16,1 C 17,7 km/h (3 Bft) 100,00 %
03.04.2018 15:07 19,2 C 6,7 C 48 % 1006,9 hPa 0,0 l/m 15,5 km/h (3 Bft) O-NO 71 1 min 0,000 mm 2,4 UV-I 594 W/m 7,9 C 16,2 C 19,3 km/h (3 Bft) 95,83 %
03.04.2018 15:08 19,2 C 6,7 C 46 % 1006,8 hPa 0,0 l/m 15,5 km/h (3 Bft) O-NO 66 1 min 0,000 mm 2,4 UV-I 591 W/m 7,3 C 16,2 C 19,3 km/h (3 Bft) 100,00 %
03.04.2018 15:09 19,2 C 6,7 C 48 % 1006,9 hPa 0,0 l/m 12,3 km/h (3 Bft) O-SO 103 1 min 0,000 mm 2,4 UV-I 592 W/m 7,9 C 17,0 C 17,7 km/h (3 Bft) 95,83 %
03.04.2018 15:10 19,2 C 6,7 C 49 % 1006,8 hPa 0,0 l/m 11,3 km/h (2 Bft) O 86 1 min 0,000 mm 2,4 UV-I 582 W/m 8,2 C 17,3 C 14,5 km/h (3 Bft) 100,00 %
03.04.2018 15:11 19,2 C 6,7 C 48 % 1006,8 hPa 0,0 l/m 14,6 km/h (3 Bft) O 98 1 min 0,000 mm 2,3 UV-I 551 W/m 7,9 C 16,4 C 19,3 km/h (3 Bft) 100,00 %
03.04.2018 15:12 19,1 C 6,7 C 47 % 1006,8 hPa 0,0 l/m 10,2 km/h (2 Bft) O-NO 57 1 min 0,000 mm 2,1 UV-I 480 W/m 7,5 C 17,6 C 14,5 km/h (3 Bft) 100,00 %
03.04.2018 15:13 19,1 C 6,7 C 49 % 1006,8 hPa 0,0 l/m 12,9 km/h (3 Bft) O-NO 75 1 min 0,000 mm 2,2 UV-I 559 W/m 8,1 C 16,7 C 16,1 km/h (3 Bft) 100,00 %
03.04.2018 15:14 19,2 C 6,7 C 49 % 1006,8 hPa 0,0 l/m 11,8 km/h (2 Bft) O-NO 74 1 min 0,000 mm 2,3 UV-I 581 W/m 8,2 C 17,2 C 17,7 km/h (3 Bft) 100,00 %
03.04.2018 15:15 19,2 C 6,7 C 48 % 1006,9 hPa 0,0 l/m 13,1 km/h (3 Bft) O-SO 105 1 min 0,000 mm 2,3 UV-I 574 W/m 7,9 C 16,8 C 17,7 km/h (3 Bft) 95,83 %
03.04.2018 15:16 19,2 C 6,7 C 49 % 1006,8 hPa 0,0 l/m 14,3 km/h (3 Bft) O-NO 65 1 min 0,000 mm 2,3 UV-I 585 W/m 8,2 C 16,5 C 16,1 km/h (3 Bft) 100,00 %
03.04.2018 15:17 19,3 C 6,7 C 48 % 1006,8 hPa 0,0 l/m 15,2 km/h (3 Bft) O 98 1 min 0,000 mm 2,3 UV-I 578 W/m 8,0 C 16,4 C 17,7 km/h (3 Bft) 96,97 %
03.04.2018 15:18 19,3 C 6,7 C 48 % 1006,8 hPa 0,0 l/m 14,2 km/h (3 Bft) O 84 1 min 0,000 mm 2,3 UV-I 573 W/m 8,0 C 16,6 C 17,7 km/h (3 Bft) 100,00 %
03.04.2018 15:19 19,3 C 6,7 C 48 % 1006,8 hPa 0,0 l/m 13,9 km/h (3 Bft) O 88 1 min 0,000 mm 2,3 UV-I 574 W/m 8,0 C 16,7 C 16,1 km/h (3 Bft) 100,00 %
03.04.2018 15:20 19,4 C 6,7 C 50 % 1006,8 hPa 0,0 l/m 9,1 km/h (2 Bft) O-SO 105 1 min 0,000 mm 2,3 UV-I 580 W/m 8,7 C 18,3 C 12,9 km/h (3 Bft) 100,00 %
03.04.2018 15:21 19,4 C 6,7 C 50 % 1006,8 hPa 0,0 l/m 11,7 km/h (2 Bft) O 85 1 min 0,000 mm 2,3 UV-I 582 W/m 8,7 C 17,4 C 16,1 km/h (3 Bft) 100,00 %
03.04.2018 15:22 19,4 C 6,7 C 48 % 1006,8 hPa 0,0 l/m 15,0 km/h (3 Bft) O 88 1 min 0,000 mm 2,3 UV-I 580 W/m 8,1 C 16,5 C 19,3 km/h (3 Bft) 100,00 %
03.04.2018 15:23 19,4 C 6,7 C 47 % 1006,7 hPa 0,0 l/m 12,7 km/h (3 Bft) O 101 1 min 0,000 mm 2,3 UV-I 575 W/m 7,8 C 17,1 C 16,1 km/h (3 Bft) 100,00 %
03.04.2018 15:24 19,4 C 6,7 C 47 % 1006,7 hPa 0,0 l/m 12,3 km/h (3 Bft) O-NO 68 1 min 0,000 mm 2,3 UV-I 580 W/m 7,8 C 17,3 C 17,7 km/h (3 Bft) 94,44 %
03.04.2018 15:25 19,4 C 6,7 C 49 % 1006,7 hPa 0,0 l/m 14,9 km/h (3 Bft) O 87 1 min 0,000 mm 2,2 UV-I 584 W/m 8,4 C 16,5 C 17,7 km/h (3 Bft) 100,00 %
03.04.2018 15:26 19,4 C 6,7 C 48 % 1006,7 hPa 0,0 l/m 11,5 km/h (2 Bft) O 101 1 min 0,000 mm 2,2 UV-I 585 W/m 8,1 C 17,5 C 17,7 km/h (3 Bft) 95,65 %
03.04.2018 15:28 19,4 C 6,7 C 47 % 1006,8 hPa 0,0 l/m 11,4 km/h (2 Bft) O 85 2 min 0,000 mm 2,2 UV-I 567 W/m 7,8 C 17,5 C 16,1 km/h (3 Bft) 100,00 %
03.04.2018 15:29 19,5 C 6,7 C 49 % 1006,8 hPa 0,0 l/m 9,5 km/h (2 Bft) O 90 1 min 0,000 mm 2,1 UV-I 559 W/m 8,5 C 18,3 C 12,9 km/h (3 Bft) 100,00 %
03.04.2018 15:30 19,6 C 6,7 C 48 % 1006,8 hPa 0,0 l/m 11,3 km/h (2 Bft) O-NO 73 1 min 0,000 mm 2,2 UV-I 571 W/m 8,3 C 17,8 C 16,1 km/h (3 Bft) 100,00 %
03.04.2018 15:31 19,6 C 6,7 C 48 % 1006,7 hPa 0,0 l/m 11,9 km/h (2 Bft) O 91 1 min 0,000 mm 2,2 UV-I 578 W/m 8,3 C 17,6 C 14,5 km/h (3 Bft) 100,00 %
03.04.2018 15:32 19,6 C 6,7 C 49 % 1006,7 hPa 0,0 l/m 11,5 km/h (2 Bft) O-NO 73 1 min 0,000 mm 2,2 UV-I 574 W/m 8,6 C 17,7 C 16,1 km/h (3 Bft) 100,00 %
03.04.2018 15:33 19,6 C 6,7 C 48 % 1006,7 hPa 0,0 l/m 14,2 km/h (3 Bft) O-NO 68 1 min 0,000 mm 2,1 UV-I 552 W/m 8,3 C 17,0 C 16,1 km/h (3 Bft) 100,00 %
03.04.2018 15:34 19,6 C 6,7 C 47 % 1006,7 hPa 0,0 l/m 12,6 km/h (3 Bft) O-NO 67 1 min 0,000 mm 2,1 UV-I 541 W/m 8,0 C 17,4 C 17,7 km/h (3 Bft) 98,16 %
03.04.2018 15:35 19,7 C 6,7 C 49 % 1006,7 hPa 0,0 l/m 16,7 km/h (3 Bft) O 82 1 min 0,000 mm 2,0 UV-I 543 W/m 8,7 C 16,5 C 25,7 km/h (4 Bft) 97,87 %
03.04.2018 15:36 19,7 C 6,7 C 49 % 1006,6 hPa 0,0 l/m 15,7 km/h (3 Bft) O-SO 103 1 min 0,000 mm 2,0 UV-I 526 W/m 8,7 C 16,7 C 19,3 km/h (3 Bft) 94,44 %
03.04.2018 15:38 19,7 C 6,7 C 49 % 1006,6 hPa 0,0 l/m 10,8 km/h (2 Bft) O 84 2 min 0,000 mm 1,9 UV-I 468 W/m 8,7 C 18,0 C 16,1 km/h (3 Bft) 98,21 %
03.04.2018 15:39 19,8 C 6,7 C 48 % 1006,6 hPa 0,0 l/m 12,7 km/h (3 Bft) O 80 1 min 0,000 mm 1,8 UV-I 424 W/m 8,5 C 17,6 C 16,1 km/h (3 Bft) 94,12 %
03.04.2018 15:40 19,7 C 6,7 C 49 % 1006,6 hPa 0,0 l/m 11,7 km/h (2 Bft) NO 47 1 min 0,000 mm 1,8 UV-I 423 W/m 8,7 C 17,8 C 16,1 km/h (3 Bft) 100,00 %
03.04.2018 15:41 19,7 C 6,7 C 50 % 1006,6 hPa 0,0 l/m 7,4 km/h (2 Bft) O 99 1 min 0,000 mm 1,7 UV-I 392 W/m 9,0 C 19,3 C 14,5 km/h (3 Bft) 100,00 %
03.04.2018 15:42 19,7 C 6,7 C 49 % 1006,6 hPa 0,0 l/m 12,5 km/h (3 Bft) O-SO 102 1 min 0,000 mm 1,7 UV-I 412 W/m 8,7 C 17,5 C 14,5 km/h (3 Bft) 92,31 %
03.04.2018 15:43 19,7 C 6,7 C 50 % 1006,6 hPa 0,0 l/m 11,4 km/h (2 Bft) O 79 1 min 0,000 mm 1,8 UV-I 487 W/m 9,0 C 17,9 C 14,5 km/h (3 Bft) 95,83 %
03.04.2018 15:44 19,8 C 6,7 C 50 % 1006,5 hPa 0,0 l/m 10,9 km/h (2 Bft) O 98 1 min 0,000 mm 1,8 UV-I 490 W/m 9,1 C 18,1 C 12,9 km/h (3 Bft) 100,00 %
03.04.2018 15:45 19,8 C 6,7 C 51 % 1006,5 hPa 0,0 l/m 12,3 km/h (3 Bft) O-NO 75 1 min 0,000 mm 1,8 UV-I 476 W/m 9,4 C 17,7 C 17,7 km/h (3 Bft) 96,15 %
03.04.2018 15:46 19,8 C 6,7 C 48 % 1006,5 hPa 0,0 l/m 11,1 km/h (2 Bft) O 96 1 min 0,000 mm 1,7 UV-I 462 W/m 8,5 C 18,1 C 17,7 km/h (3 Bft) 100,00 %
03.04.2018 15:47 19,9 C 6,7 C 48 % 1006,5 hPa 0,0 l/m 10,3 km/h (2 Bft) SO 126 1 min 0,000 mm 1,8 UV-I 458 W/m 8,6 C 18,4 C 14,5 km/h (3 Bft) 93,33 %
03.04.2018 15:48 19,9 C 6,7 C 48 % 1006,5 hPa 0,0 l/m 13,1 km/h (3 Bft) O 90 1 min 0,000 mm 1,7 UV-I 439 W/m 8,6 C 17,6 C 17,7 km/h (3 Bft) 97,56 %
03.04.2018 15:49 19,9 C 6,7 C 49 % 1006,5 hPa 0,0 l/m 11,6 km/h (2 Bft) O 90 1 min 0,000 mm 1,6 UV-I 411 W/m 8,9 C 18,0 C 14,5 km/h (3 Bft) 100,00 %
03.04.2018 15:50 19,9 C 6,7 C 47 % 1006,5 hPa 0,0 l/m 11,6 km/h (2 Bft) O-SO 116 1 min 0,000 mm 1,6 UV-I 422 W/m 8,3 C 18,0 C 16,1 km/h (3 Bft) 100,00 %
03.04.2018 15:51 19,9 C 6,7 C 46 % 1006,5 hPa 0,0 l/m 12,0 km/h (2 Bft) O-SO 106 1 min 0,000 mm 1,6 UV-I 430 W/m 7,9 C 17,9 C 14,5 km/h (3 Bft) 97,62 %
03.04.2018 15:52 19,8 C 7,2 C 48 % 1006,5 hPa 0,0 l/m 11,1 km/h (2 Bft) O 98 1 min 0,000 mm 1,6 UV-I 447 W/m 8,5 C 18,1 C 16,1 km/h (3 Bft) 96,15 %
03.04.2018 15:53 19,9 C 7,2 C 48 % 1006,5 hPa 0,0 l/m 12,6 km/h (3 Bft) O 101 1 min 0,000 mm 1,6 UV-I 446 W/m 8,6 C 17,7 C 14,5 km/h (3 Bft) 100,00 %
03.04.2018 15:54 19,9 C 7,2 C 48 % 1006,5 hPa 0,0 l/m 12,0 km/h (2 Bft) O-NO 75 1 min 0,000 mm 1,5 UV-I 387 W/m 8,6 C 17,9 C 16,1 km/h (3 Bft) 96,88 %
03.04.2018 15:55 19,8 C 6,7 C 50 % 1006,5 hPa 0,0 l/m 15,4 km/h (3 Bft) O 92 1 min 0,000 mm 1,4 UV-I 347 W/m 9,1 C 16,9 C 20,9 km/h (4 Bft) 100,00 %
03.04.2018 15:56 19,8 C 6,7 C 47 % 1006,5 hPa 0,0 l/m 11,2 km/h (2 Bft) O-NO 59 1 min 0,000 mm 1,3 UV-I 334 W/m 8,2 C 18,0 C 16,1 km/h (3 Bft) 91,30 %
03.04.2018 15:57 19,8 C 6,7 C 48 % 1006,4 hPa 0,0 l/m 12,4 km/h (3 Bft) O-SO 103 0 min 0,000 mm 1,3 UV-I 292 W/m 8,5 C 17,7 C 16,1 km/h (3 Bft) 100,00 %
03.04.2018 15:58 19,7 C 6,7 C 47 % 1006,4 hPa 0,0 l/m 14,1 km/h (3 Bft) O 84 0 min 0,000 mm 1,3 UV-I 276 W/m 8,1 C 17,1 C 19,3 km/h (3 Bft) 95,65 %
03.04.2018 15:59 19,7 C 6,7 C 48 % 1006,3 hPa 0,0 l/m 12,4 km/h (3 Bft) O 82 0 min 0,000 mm 1,2 UV-I 279 W/m 8,4 C 17,6 C 16,1 km/h (3 Bft) 95,83 %
03.04.2018 16:00 19,7 C 6,7 C 49 % 1006,4 hPa 0,0 l/m 14,9 km/h (3 Bft) O 98 0 min 0,000 mm 1,2 UV-I 282 W/m 8,7 C 16,9 C 17,7 km/h (3 Bft) 95,65 %
03.04.2018 16:01 19,7 C 6,7 C 49 % 1006,3 hPa 0,0 l/m 12,5 km/h (3 Bft) O 84 0 min 0,381 mm 1,2 UV-I 281 W/m 8,7 C 17,5 C 16,1 km/h (3 Bft) 100,00 %
03.04.2018 16:02 19,7 C 6,7 C 50 % 1006,3 hPa 0,0 l/m 11,5 km/h (2 Bft) O-NO 66 0 min 0,000 mm 1,2 UV-I 285 W/m 9,0 C 17,8 C 14,5 km/h (3 Bft) 91,67 %
03.04.2018 16:03 19,6 C 6,7 C 50 % 1006,3 hPa 0,0 l/m 12,0 km/h (2 Bft) O 82 0 min 0,000 mm 1,2 UV-I 291 W/m 8,9 C 17,6 C 19,3 km/h (3 Bft) 97,56 %
03.04.2018 16:04 19,6 C 7,2 C 48 % 1006,3 hPa 0,0 l/m 15,6 km/h (3 Bft) O-NO 67 0 min 0,000 mm 1,2 UV-I 291 W/m 8,3 C 16,6 C 17,7 km/h (3 Bft) 100,00 %
03.04.2018 16:05 19,5 C 7,2 C 48 % 1006,4 hPa 0,0 l/m 12,5 km/h (3 Bft) O-NO 66 0 min 0,000 mm 1,2 UV-I 296 W/m 8,2 C 17,3 C 19,3 km/h (3 Bft) 93,33 %
03.04.2018 16:06 19,5 C 7,2 C 48 % 1006,3 hPa 0,0 l/m 11,7 km/h (2 Bft) O-NO 69 0 min 0,000 mm 1,2 UV-I 297 W/m 8,2 C 17,5 C 14,5 km/h (3 Bft) 100,00 %
03.04.2018 16:08 19,5 C 7,2 C 49 % 1006,3 hPa 0,0 l/m 10,1 km/h (2 Bft) O-NO 67 2 min 0,000 mm 1,2 UV-I 301 W/m 8,5 C 18,1 C 14,5 km/h (3 Bft) 96,23 %
03.04.2018 16:09 19,5 C 6,7 C 49 % 1006,3 hPa 0,0 l/m 13,4 km/h (3 Bft) O 95 0 min 0,000 mm 1,2 UV-I 292 W/m 8,5 C 17,1 C 16,1 km/h (3 Bft) 100,00 %
03.04.2018 16:10 19,5 C 7,2 C 48 % 1006,3 hPa 0,0 l/m 12,7 km/h (3 Bft) O-NO 78 1 min 0,000 mm 1,1 UV-I 297 W/m 8,2 C 17,3 C 19,3 km/h (3 Bft) 100,00 %
03.04.2018 16:11 19,6 C 6,7 C 48 % 1006,3 hPa 0,0 l/m 14,2 km/h (3 Bft) O-NO 69 1 min 0,000 mm 1,2 UV-I 323 W/m 8,3 C 17,0 C 19,3 km/h (3 Bft) 95,65 %
03.04.2018 16:12 19,6 C 7,2 C 48 % 1006,3 hPa 0,0 l/m 14,7 km/h (3 Bft) O-NO 73 1 min 0,000 mm 1,2 UV-I 365 W/m 8,3 C 16,8 C 19,3 km/h (3 Bft) 92,59 %
03.04.2018 16:13 19,6 C 7,2 C 51 % 1006,3 hPa 0,0 l/m 14,6 km/h (3 Bft) O-SO 109 1 min 0,000 mm 1,3 UV-I 377 W/m 9,2 C 16,9 C 17,7 km/h (3 Bft) 95,65 %
03.04.2018 16:14 19,6 C 6,7 C 49 % 1006,3 hPa 0,0 l/m 15,1 km/h (3 Bft) O-NO 71 1 min 0,000 mm 1,3 UV-I 392 W/m 8,6 C 16,7 C 17,7 km/h (3 Bft) 95,83 %
03.04.2018 16:15 19,6 C 7,2 C 48 % 1006,3 hPa 0,0 l/m 13,1 km/h (3 Bft) O-SO 107 1 min 0,000 mm 1,3 UV-I 406 W/m 8,3 C 17,3 C 17,7 km/h (3 Bft) 95,65 %
03.04.2018 16:16 19,7 C 7,2 C 48 % 1006,3 hPa 0,0 l/m 13,9 km/h (3 Bft) O 95 1 min 0,000 mm 1,3 UV-I 370 W/m 8,4 C 17,2 C 17,7 km/h (3 Bft) 87,50 %
03.04.2018 16:17 19,7 C 7,2 C 48 % 1006,3 hPa 0,0 l/m 9,0 km/h (2 Bft) O 89 1 min 0,000 mm 1,2 UV-I 336 W/m 8,4 C 18,7 C 14,5 km/h (3 Bft) 100,00 %
03.04.2018 16:18 19,7 C 7,2 C 49 % 1006,3 hPa 0,0 l/m 12,4 km/h (3 Bft) O-NO 65 1 min 0,000 mm 1,2 UV-I 325 W/m 8,7 C 17,6 C 16,1 km/h (3 Bft) 91,67 %
03.04.2018 16:19 19,7 C 7,2 C 47 % 1006,3 hPa 0,0 l/m 9,1 km/h (2 Bft) O-NO 74 1 min 0,000 mm 1,2 UV-I 316 W/m 8,1 C 18,6 C 14,5 km/h (3 Bft) 95,65 %
03.04.2018 16:20 19,7 C 7,2 C 51 % 1006,3 hPa 0,0 l/m 10,3 km/h (2 Bft) NO 51 1 min 0,000 mm 1,1 UV-I 288 W/m 9,3 C 18,2 C 14,5 km/h (3 Bft) 86,67 %
03.04.2018 16:21 19,7 C 7,2 C 51 % 1006,2 hPa 0,0 l/m 9,9 km/h (2 Bft) O-NO 58 0 min 0,000 mm 1,1 UV-I 269 W/m 9,3 C 18,3 C 14,5 km/h (3 Bft) 93,10 %
03.04.2018 16:22 19,7 C 7,2 C 52 % 1006,3 hPa 0,0 l/m 11,8 km/h (2 Bft) O-NO 64 0 min 0,000 mm 1,1 UV-I 268 W/m 9,6 C 17,7 C 17,7 km/h (3 Bft) 95,83 %
03.04.2018 16:23 19,7 C 7,2 C 51 % 1006,3 hPa 0,0 l/m 11,0 km/h (2 Bft) NO 45 0 min 0,000 mm 1,0 UV-I 261 W/m 9,3 C 18,0 C 14,5 km/h (3 Bft) 95,83 %
03.04.2018 16:24 19,7 C 7,2 C 50 % 1006,3 hPa 0,0 l/m 9,1 km/h (2 Bft) NO 55 0 min 0,000 mm 1,0 UV-I 250 W/m 9,0 C 18,6 C 14,5 km/h (3 Bft) 95,65 %
03.04.2018 16:25 19,7 C 7,2 C 51 % 1006,2 hPa 0,0 l/m 10,5 km/h (2 Bft) O 86 0 min 0,000 mm 1,0 UV-I 243 W/m 9,3 C 18,1 C 12,9 km/h (3 Bft) 91,67 %
03.04.2018 16:26 19,7 C 7,2 C 50 % 1006,3 hPa 0,0 l/m 11,3 km/h (2 Bft) O-NO 57 0 min 0,000 mm 1,0 UV-I 239 W/m 9,0 C 17,9 C 17,7 km/h (3 Bft) 100,00 %
03.04.2018 16:27 19,7 C 7,2 C 50 % 1006,2 hPa 0,0 l/m 12,9 km/h (3 Bft) O-NO 68 0 min 0,000 mm 0,9 UV-I 236 W/m 9,0 C 17,4 C 16,1 km/h (3 Bft) 91,67 %
03.04.2018 16:28 19,7 C 7,2 C 49 % 1006,2 hPa 0,0 l/m 15,1 km/h (3 Bft) O 79 0 min 0,000 mm 0,9 UV-I 233 W/m 8,7 C 16,9 C 17,7 km/h (3 Bft) 95,65 %
03.04.2018 16:29 19,7 C 7,2 C 49 % 1006,2 hPa 0,0 l/m 12,7 km/h (3 Bft) O-NO 71 0 min 0,000 mm 0,9 UV-I 230 W/m 8,7 C 17,5 C 17,7 km/h (3 Bft) 91,67 %
03.04.2018 16:30 19,7 C 7,2 C 49 % 1006,2 hPa 0,0 l/m 14,1 km/h (3 Bft) O-NO 78 0 min 0,000 mm 0,9 UV-I 230 W/m 8,7 C 17,1 C 16,1 km/h (3 Bft) 91,30 %
03.04.2018 16:31 19,6 C 7,2 C 50 % 1006,2 hPa 0,0 l/m 11,1 km/h (2 Bft) O 86 0 min 0,000 mm 0,9 UV-I 235 W/m 8,9 C 17,8 C 14,5 km/h (3 Bft) 95,83 %
03.04.2018 16:32 19,6 C 7,2 C 50 % 1006,2 hPa 0,0 l/m 14,1 km/h (3 Bft) O-NO 67 0 min 0,000 mm 0,9 UV-I 239 W/m 8,9 C 17,0 C 16,1 km/h (3 Bft) 91,30 %
03.04.2018 16:33 19,6 C 7,2 C 50 % 1006,2 hPa 0,0 l/m 15,6 km/h (3 Bft) O-NO 60 0 min 0,000 mm 0,9 UV-I 237 W/m 8,9 C 16,6 C 17,7 km/h (3 Bft) 96,30 %
03.04.2018 16:34 19,6 C 7,2 C 48 % 1006,2 hPa 0,0 l/m 15,7 km/h (3 Bft) O 89 0 min 0,000 mm 0,9 UV-I 239 W/m 8,3 C 16,6 C 19,3 km/h (3 Bft) 91,30 %
03.04.2018 16:35 19,6 C 7,2 C 48 % 1006,1 hPa 0,0 l/m 14,3 km/h (3 Bft) O 79 0 min 0,000 mm 0,9 UV-I 239 W/m 8,3 C 16,9 C 17,7 km/h (3 Bft) 100,00 %
03.04.2018 16:36 19,6 C 7,2 C 48 % 1006,1 hPa 0,0 l/m 10,7 km/h (2 Bft) O-NO 69 0 min 0,000 mm 0,8 UV-I 239 W/m 8,3 C 18,0 C 14,5 km/h (3 Bft) 85,71 %
03.04.2018 16:37 19,6 C 7,2 C 49 % 1006,1 hPa 0,0 l/m 10,8 km/h (2 Bft) O-NO 73 0 min 0,000 mm 0,8 UV-I 237 W/m 8,6 C 17,9 C 14,5 km/h (3 Bft) 95,83 %
03.04.2018 16:38 19,6 C 7,2 C 50 % 1006,2 hPa 0,0 l/m 12,7 km/h (3 Bft) O-NO 69 0 min 0,000 mm 0,8 UV-I 233 W/m 8,9 C 17,4 C 14,5 km/h (3 Bft) 91,67 %
03.04.2018 16:39 19,7 C 7,2 C 50 % 1006,1 hPa 0,0 l/m 9,9 km/h (2 Bft) O-NO 63 0 min 0,000 mm 0,8 UV-I 232 W/m 9,0 C 18,3 C 14,5 km/h (3 Bft) 95,65 %
03.04.2018 16:40 19,7 C 7,2 C 51 % 1006,1 hPa 0,0 l/m 9,9 km/h (2 Bft) NO 51 0 min 0,000 mm 0,8 UV-I 232 W/m 9,3 C 18,3 C 16,1 km/h (3 Bft) 91,67 %
03.04.2018 16:41 19,7 C 7,2 C 50 % 1006,1 hPa 0,0 l/m 10,1 km/h (2 Bft) O-NO 65 0 min 0,000 mm 0,8 UV-I 231 W/m 9,0 C 18,3 C 14,5 km/h (3 Bft) 95,65 %
03.04.2018 16:42 19,6 C 7,2 C 50 % 1006,1 hPa 0,0 l/m 11,5 km/h (2 Bft) O-NO 57 0 min 0,000 mm 0,8 UV-I 229 W/m 8,9 C 17,7 C 14,5 km/h (3 Bft) 96,30 %
03.04.2018 16:43 19,7 C 7,2 C 50 % 1006,1 hPa 0,0 l/m 10,2 km/h (2 Bft) O-NO 61 0 min 0,000 mm 0,8 UV-I 226 W/m 9,0 C 18,2 C 14,5 km/h (3 Bft) 92,31 %
03.04.2018 16:44 19,7 C 7,2 C 52 % 1006,1 hPa 0,0 l/m 13,3 km/h (3 Bft) NO 38 0 min 0,000 mm 0,8 UV-I 223 W/m 9,6 C 17,3 C 17,7 km/h (3 Bft) 100,00 %
03.04.2018 16:45 19,6 C 7,2 C 53 % 1006,1 hPa 0,0 l/m 12,2 km/h (2 Bft) NO 43 0 min 0,000 mm 0,8 UV-I 217 W/m 9,8 C 17,5 C 16,1 km/h (3 Bft) 95,65 %
03.04.2018 16:46 19,5 C 7,2 C 54 % 1006,1 hPa 0,0 l/m 12,9 km/h (3 Bft) O-NO 59 0 min 0,000 mm 0,7 UV-I 212 W/m 9,9 C 17,2 C 17,7 km/h (3 Bft) 100,00 %
03.04.2018 16:47 19,4 C 7,2 C 54 % 1006,1 hPa 0,0 l/m 11,2 km/h (2 Bft) O-NO 64 0 min 0,000 mm 0,7 UV-I 206 W/m 9,8 C 17,6 C 14,5 km/h (3 Bft) 100,00 %
03.04.2018 16:48 19,4 C 7,2 C 52 % 1006,1 hPa 0,0 l/m 8,0 km/h (2 Bft) NO 47 0 min 0,000 mm 0,7 UV-I 202 W/m 9,3 C 18,7 C 11,3 km/h (2 Bft) 100,00 %
03.04.2018 16:49 19,4 C 7,2 C 53 % 1006,1 hPa 0,0 l/m 11,1 km/h (2 Bft) O-NO 63 0 min 0,000 mm 0,7 UV-I 198 W/m 9,6 C 17,6 C 16,1 km/h (3 Bft) 100,00 %
03.04.2018 16:50 19,4 C 7,2 C 54 % 1006,1 hPa 0,0 l/m 11,6 km/h (2 Bft) O-NO 59 0 min 0,000 mm 0,7 UV-I 195 W/m 9,8 C 17,5 C 16,1 km/h (3 Bft) 100,00 %
03.04.2018 16:51 19,4 C 7,2 C 52 % 1006,1 hPa 0,0 l/m 9,9 km/h (2 Bft) NO 36 0 min 0,000 mm 0,7 UV-I 195 W/m 9,3 C 18,0 C 16,1 km/h (3 Bft) 100,00 %
03.04.2018 16:52 19,4 C 7,2 C 51 % 1006,1 hPa 0,0 l/m 9,3 km/h (2 Bft) O-NO 61 0 min 0,000 mm 0,7 UV-I 193 W/m 9,0 C 18,2 C 12,9 km/h (3 Bft) 100,00 %
03.04.2018 16:53 19,4 C 7,2 C 53 % 1006,1 hPa 0,0 l/m 7,7 km/h (2 Bft) O-NO 68 0 min 0,000 mm 0,7 UV-I 191 W/m 9,6 C 18,8 C 9,7 km/h (2 Bft) 100,00 %
03.04.2018 16:54 19,5 C 7,2 C 51 % 1006,0 hPa 0,0 l/m 7,3 km/h (2 Bft) O-NO 66 0 min 0,000 mm 0,6 UV-I 188 W/m 9,1 C 19,1 C 11,3 km/h (2 Bft) 100,00 %
03.04.2018 16:55 19,5 C 7,2 C 54 % 1006,0 hPa 0,0 l/m 6,2 km/h (2 Bft) O 89 0 min 0,000 mm 0,6 UV-I 186 W/m 9,9 C 19,5 C 8,0 km/h (2 Bft) 95,65 %
03.04.2018 16:56 19,5 C 7,2 C 54 % 1006,0 hPa 0,0 l/m 5,4 km/h (1 Bft) O 91 0 min 0,000 mm 0,6 UV-I 185 W/m 9,9 C 19,5 C 6,4 km/h (2 Bft) 100,00 %
03.04.2018 16:57 19,5 C 7,2 C 53 % 1006,0 hPa 0,0 l/m 8,5 km/h (2 Bft) O 82 0 min 0,000 mm 0,6 UV-I 183 W/m 9,7 C 18,6 C 12,9 km/h (3 Bft) 100,00 %
03.04.2018 16:58 19,5 C 7,2 C 53 % 1006,1 hPa 0,0 l/m 7,0 km/h (2 Bft) O-NO 69 0 min 0,000 mm 0,6 UV-I 180 W/m 9,7 C 19,2 C 11,3 km/h (2 Bft) 100,00 %
03.04.2018 16:59 19,4 C 7,2 C 54 % 1006,1 hPa 0,0 l/m 6,0 km/h (2 Bft) O-NO 70 0 min 0,000 mm 0,6 UV-I 179 W/m 9,8 C 19,4 C 6,4 km/h (2 Bft) 100,00 %
03.04.2018 17:00 19,5 C 7,2 C 53 % 1006,1 hPa 0,0 l/m 6,2 km/h (2 Bft) O-NO 69 0 min 0,229 mm 0,6 UV-I 177 W/m 9,7 C 19,5 C 8,0 km/h (2 Bft) 100,00 %
03.04.2018 17:01 19,4 C 7,2 C 53 % 1006,1 hPa 0,0 l/m 4,4 km/h (1 Bft) NO 53 0 min 0,000 mm 0,6 UV-I 176 W/m 9,6 C 19,4 C 6,4 km/h (2 Bft) 95,65 %
03.04.2018 17:02 19,4 C 7,2 C 54 % 1006,1 hPa 0,0 l/m 5,3 km/h (1 Bft) NO 49 0 min 0,000 mm 0,6 UV-I 178 W/m 9,8 C 19,4 C 8,0 km/h (2 Bft) 100,00 %
03.04.2018 17:03 19,5 C 7,2 C 55 % 1006,1 hPa 0,0 l/m 6,6 km/h (2 Bft) O-NO 59 0 min 0,000 mm 0,6 UV-I 179 W/m 10,2 C 19,4 C 8,0 km/h (2 Bft) 100,00 %
03.04.2018 17:04 19,5 C 7,2 C 57 % 1006,1 hPa 0,0 l/m 6,5 km/h (2 Bft) O-NO 74 0 min 0,000 mm 0,6 UV-I 182 W/m 10,8 C 19,5 C 8,0 km/h (2 Bft) 95,65 %
03.04.2018 17:05 19,4 C 7,2 C 57 % 1006,1 hPa 0,0 l/m 5,2 km/h (1 Bft) NO 42 0 min 0,000 mm 0,6 UV-I 182 W/m 10,7 C 19,4 C 8,0 km/h (2 Bft) 91,67 %
03.04.2018 17:06 19,4 C 7,2 C 58 % 1006,0 hPa 0,0 l/m 6,8 km/h (2 Bft) NO 50 0 min 0,000 mm 0,5 UV-I 180 W/m 10,9 C 19,2 C 9,7 km/h (2 Bft) 100,00 %
03.04.2018 17:07 19,3 C 7,2 C 55 % 1006,0 hPa 0,0 l/m 7,7 km/h (2 Bft) O-NO 70 0 min 0,000 mm 0,5 UV-I 173 W/m 10,0 C 18,7 C 11,3 km/h (2 Bft) 100,00 %
03.04.2018 17:08 19,3 C 7,2 C 54 % 1006,1 hPa 0,0 l/m 10,2 km/h (2 Bft) O-NO 64 0 min 0,000 mm 0,5 UV-I 169 W/m 9,8 C 17,8 C 16,1 km/h (3 Bft) 100,00 %
03.04.2018 17:09 19,3 C 7,2 C 55 % 1006,0 hPa 0,0 l/m 8,1 km/h (2 Bft) O-NO 68 0 min 0,000 mm 0,5 UV-I 164 W/m 10,0 C 18,6 C 12,9 km/h (3 Bft) 100,00 %
03.04.2018 17:10 19,4 C 7,2 C 55 % 1006,0 hPa 0,0 l/m 7,0 km/h (2 Bft) O 79 0 min 0,000 mm 0,5 UV-I 162 W/m 10,1 C 19,1 C 8,0 km/h (2 Bft) 95,65 %
03.04.2018 17:11 19,4 C 7,2 C 52 % 1006,0 hPa 0,0 l/m 7,8 km/h (2 Bft) O-NO 63 0 min 0,000 mm 0,5 UV-I 164 W/m 9,3 C 18,8 C 11,3 km/h (2 Bft) 100,00 %
03.04.2018 17:12 19,4 C 7,2 C 53 % 1005,9 hPa 0,0 l/m 5,1 km/h (1 Bft) O-NO 71 0 min 0,000 mm 0,5 UV-I 166 W/m 9,6 C 19,4 C 6,4 km/h (2 Bft) 100,00 %
03.04.2018 17:13 19,4 C 7,2 C 52 % 1005,9 hPa 0,0 l/m 6,9 km/h (2 Bft) O-NO 59 0 min 0,000 mm 0,5 UV-I 169 W/m 9,3 C 19,2 C 11,3 km/h (2 Bft) 100,00 %
03.04.2018 17:14 19,4 C 7,2 C 54 % 1005,9 hPa 0,0 l/m 10,9 km/h (2 Bft) O 80 0 min 0,000 mm 0,5 UV-I 171 W/m 9,8 C 17,7 C 14,5 km/h (3 Bft) 100,00 %
03.04.2018 17:15 19,3 C 7,2 C 51 % 1005,9 hPa 0,0 l/m 8,6 km/h (2 Bft) O-NO 65 0 min 0,000 mm 0,5 UV-I 168 W/m 8,9 C 18,4 C 12,9 km/h (3 Bft) 97,22 %
03.04.2018 17:16 19,4 C 7,2 C 50 % 1005,9 hPa 0,0 l/m 7,0 km/h (2 Bft) NO 48 0 min 0,000 mm 0,5 UV-I 166 W/m 8,7 C 19,1 C 9,7 km/h (2 Bft) 100,00 %
03.04.2018 17:17 19,4 C 7,2 C 53 % 1005,9 hPa 0,0 l/m 5,7 km/h (1 Bft) O 80 0 min 0,000 mm 0,5 UV-I 163 W/m 9,6 C 19,4 C 6,4 km/h (2 Bft) 100,00 %
03.04.2018 17:18 19,3 C 7,2 C 53 % 1005,9 hPa 0,0 l/m 7,6 km/h (2 Bft) O-NO 71 0 min 0,000 mm 0,5 UV-I 161 W/m 9,5 C 18,8 C 12,9 km/h (3 Bft) 100,00 %
03.04.2018 17:19 19,3 C 7,2 C 54 % 1006,0 hPa 0,0 l/m 6,6 km/h (2 Bft) NO 44 0 min 0,000 mm 0,5 UV-I 157 W/m 9,8 C 19,2 C 9,7 km/h (2 Bft) 100,00 %
03.04.2018 17:20 19,3 C 7,2 C 54 % 1005,9 hPa 0,0 l/m 7,1 km/h (2 Bft) NO 35 0 min 0,000 mm 0,5 UV-I 152 W/m 9,8 C 19,0 C 11,3 km/h (2 Bft) 100,00 %
03.04.2018 17:21 19,3 C 7,2 C 53 % 1005,9 hPa 0,0 l/m 7,8 km/h (2 Bft) O 79 0 min 0,000 mm 0,5 UV-I 149 W/m 9,5 C 18,7 C 12,9 km/h (3 Bft) 100,00 %
03.04.2018 17:22 19,3 C 7,2 C 52 % 1005,9 hPa 0,0 l/m 6,2 km/h (2 Bft) NO 56 0 min 0,000 mm 0,4 UV-I 147 W/m 9,2 C 19,3 C 9,7 km/h (2 Bft) 100,00 %
03.04.2018 17:23 19,3 C 7,2 C 54 % 1005,9 hPa 0,0 l/m 7,7 km/h (2 Bft) O-NO 62 0 min 0,000 mm 0,0 UV-I 146 W/m 9,8 C 18,7 C 9,7 km/h (2 Bft) 100,00 %
03.04.2018 17:24 19,2 C 7,2 C 55 % 1005,9 hPa 0,0 l/m 7,4 km/h (2 Bft) NO 49 0 min 0,000 mm 0,0 UV-I 147 W/m 9,9 C 18,8 C 9,7 km/h (2 Bft) 100,00 %
03.04.2018 17:25 19,2 C 7,2 C 53 % 1005,9 hPa 0,0 l/m 5,9 km/h (2 Bft) O-NO 67 0 min 0,000 mm 0,0 UV-I 149 W/m 9,4 C 19,2 C 9,7 km/h (2 Bft) 100,00 %
03.04.2018 17:26 19,2 C 7,2 C 55 % 1005,9 hPa 0,0 l/m 5,4 km/h (1 Bft) NO 55 0 min 0,000 mm 0,0 UV-I 154 W/m 9,9 C 19,2 C 6,4 km/h (2 Bft) 100,00 %
03.04.2018 17:27 19,2 C 7,2 C 53 % 1005,9 hPa 0,0 l/m 5,4 km/h (1 Bft) O-NO 57 0 min 0,000 mm 0,0 UV-I 157 W/m 9,4 C 19,2 C 8,0 km/h (2 Bft) 95,65 %
03.04.2018 17:28 19,2 C 7,2 C 53 % 1005,9 hPa 0,0 l/m 7,2 km/h (2 Bft) O-NO 65 0 min 0,000 mm 0,0 UV-I 160 W/m 9,4 C 18,9 C 9,7 km/h (2 Bft) 100,00 %
03.04.2018 17:29 19,2 C 7,2 C 53 % 1005,9 hPa 0,0 l/m 5,3 km/h (1 Bft) O-NO 74 0 min 0,000 mm 0,0 UV-I 163 W/m 9,4 C 19,2 C 6,4 km/h (2 Bft) 91,30 %
03.04.2018 17:30 19,3 C 7,2 C 54 % 1005,8 hPa 0,0 l/m 5,5 km/h (1 Bft) O 82 0 min 0,000 mm 0,0 UV-I 163 W/m 9,8 C 19,3 C 8,0 km/h (2 Bft) 96,30 %
03.04.2018 17:31 19,3 C 7,2 C 53 % 1005,8 hPa 0,0 l/m 5,9 km/h (2 Bft) O-NO 70 0 min 0,000 mm 0,0 UV-I 163 W/m 9,5 C 19,3 C 8,0 km/h (2 Bft) 92,86 %
03.04.2018 17:32 19,3 C 7,2 C 55 % 1005,8 hPa 0,0 l/m 4,8 km/h (1 Bft) O-NO 67 0 min 0,000 mm 0,0 UV-I 159 W/m 10,0 C 19,3 C 6,4 km/h (2 Bft) 100,00 %
03.04.2018 17:33 19,3 C 7,2 C 56 % 1005,8 hPa 0,0 l/m 6,8 km/h (2 Bft) NO 53 0 min 0,000 mm 0,0 UV-I 155 W/m 10,3 C 19,1 C 9,7 km/h (2 Bft) 95,65 %
03.04.2018 17:34 19,2 C 7,2 C 58 % 1005,8 hPa 0,0 l/m 6,7 km/h (2 Bft) NO 50 0 min 0,000 mm 0,0 UV-I 152 W/m 10,7 C 19,1 C 9,7 km/h (2 Bft) 100,00 %
03.04.2018 17:35 19,1 C 7,2 C 57 % 1005,8 hPa 0,0 l/m 6,8 km/h (2 Bft) O-NO 72 0 min 0,000 mm 0,0 UV-I 150 W/m 10,4 C 18,9 C 8,0 km/h (2 Bft) 95,65 %
03.04.2018 17:36 19,1 C 7,2 C 57 % 1005,8 hPa 0,0 l/m 6,8 km/h (2 Bft) O-NO 68 0 min 0,000 mm 0,0 UV-I 150 W/m 10,4 C 18,9 C 9,7 km/h (2 Bft) 100,00 %
03.04.2018 17:37 19,1 C 7,2 C 57 % 1005,7 hPa 0,0 l/m 8,0 km/h (2 Bft) O-NO 61 0 min 0,000 mm 0,0 UV-I 153 W/m 10,4 C 18,4 C 9,7 km/h (2 Bft) 95,83 %
03.04.2018 17:38 19,1 C 7,2 C 57 % 1005,7 hPa 0,0 l/m 7,7 km/h (2 Bft) NO 56 0 min 0,000 mm 0,0 UV-I 156 W/m 10,4 C 18,5 C 9,7 km/h (2 Bft) 91,30 %
03.04.2018 17:39 19,1 C 7,2 C 57 % 1005,7 hPa 0,0 l/m 6,4 km/h (2 Bft) O-NO 60 0 min 0,000 mm 0,0 UV-I 158 W/m 10,4 C 19,1 C 8,0 km/h (2 Bft) 100,00 %
03.04.2018 17:40 19,1 C 7,2 C 55 % 1005,7 hPa 0,0 l/m 8,1 km/h (2 Bft) O-NO 59 0 min 0,000 mm 0,0 UV-I 158 W/m 9,8 C 18,4 C 12,9 km/h (3 Bft) 100,00 %
03.04.2018 17:41 19,1 C 7,2 C 57 % 1005,7 hPa 0,0 l/m 6,6 km/h (2 Bft) O-NO 63 0 min 0,000 mm 0,0 UV-I 157 W/m 10,4 C 19,0 C 9,7 km/h (2 Bft) 100,00 %
03.04.2018 17:42 19,1 C 7,2 C 58 % 1005,7 hPa 0,0 l/m 6,6 km/h (2 Bft) O-NO 69 0 min 0,000 mm 0,0 UV-I 154 W/m 10,6 C 19,0 C 9,7 km/h (2 Bft) 100,00 %
03.04.2018 17:43 19,0 C 7,2 C 56 % 1005,7 hPa 0,0 l/m 6,0 km/h (2 Bft) O-NO 65 0 min 0,000 mm 0,0 UV-I 148 W/m 10,0 C 19,0 C 8,0 km/h (2 Bft) 100,00 %
03.04.2018 17:44 19,0 C 7,2 C 55 % 1005,7 hPa 0,0 l/m 6,2 km/h (2 Bft) O-NO 71 0 min 0,000 mm 0,0 UV-I 143 W/m 9,8 C 19,0 C 9,7 km/h (2 Bft) 91,30 %
03.04.2018 17:45 19,1 C 7,2 C 56 % 1005,7 hPa 0,0 l/m 6,7 km/h (2 Bft) O 80 0 min 0,000 mm 0,0 UV-I 137 W/m 10,1 C 19,0 C 8,0 km/h (2 Bft) 95,83 %
03.04.2018 17:46 19,1 C 7,2 C 54 % 1005,7 hPa 0,0 l/m 6,3 km/h (2 Bft) O-NO 69 0 min 0,000 mm 0,0 UV-I 132 W/m 9,6 C 19,1 C 9,7 km/h (2 Bft) 96,15 %
03.04.2018 17:47 19,1 C 7,2 C 53 % 1005,7 hPa 0,0 l/m 4,6 km/h (1 Bft) O-NO 75 0 min 0,000 mm 0,0 UV-I 126 W/m 9,3 C 19,1 C 6,4 km/h (2 Bft) 100,00 %
03.04.2018 17:48 19,2 C 7,2 C 54 % 1005,7 hPa 0,0 l/m 6,2 km/h (2 Bft) O 88 0 min 0,000 mm 0,0 UV-I 122 W/m 9,7 C 19,2 C 9,7 km/h (2 Bft) 100,00 %
03.04.2018 17:49 19,2 C 7,2 C 53 % 1005,6 hPa 0,0 l/m 7,1 km/h (2 Bft) O 79 0 min 0,000 mm 0,0 UV-I 120 W/m 9,4 C 18,9 C 11,3 km/h (2 Bft) 100,00 %
03.04.2018 17:50 19,2 C 7,2 C 54 % 1005,6 hPa 0,0 l/m 5,3 km/h (1 Bft) O 90 0 min 0,000 mm 0,0 UV-I 116 W/m 9,7 C 19,2 C 6,4 km/h (2 Bft) 95,65 %
03.04.2018 17:51 19,1 C 7,2 C 55 % 1005,6 hPa 0,0 l/m 6,2 km/h (2 Bft) O-NO 65 0 min 0,000 mm 0,0 UV-I 114 W/m 9,8 C 19,1 C 8,0 km/h (2 Bft) 100,00 %
03.04.2018 17:52 19,1 C 7,2 C 55 % 1005,6 hPa 0,0 l/m 7,8 km/h (2 Bft) O-NO 67 0 min 0,000 mm 0,0 UV-I 113 W/m 9,8 C 18,5 C 14,5 km/h (3 Bft) 100,00 %
03.04.2018 17:53 19,1 C 7,2 C 55 % 1005,5 hPa 0,0 l/m 8,0 km/h (2 Bft) O 86 0 min 0,000 mm 0,0 UV-I 112 W/m 9,8 C 18,4 C 14,5 km/h (3 Bft) 95,65 %
03.04.2018 17:54 19,1 C 7,2 C 55 % 1005,5 hPa 0,0 l/m 6,1 km/h (2 Bft) O 90 0 min 0,000 mm 0,0 UV-I 111 W/m 9,8 C 19,1 C 8,0 km/h (2 Bft) 100,00 %
03.04.2018 17:55 19,1 C 7,2 C 56 % 1005,5 hPa 0,0 l/m 8,5 km/h (2 Bft) O 79 0 min 0,000 mm 0,0 UV-I 111 W/m 10,1 C 18,2 C 11,3 km/h (2 Bft) 100,00 %
03.04.2018 17:56 19,0 C 7,2 C 57 % 1005,5 hPa 0,0 l/m 7,1 km/h (2 Bft) O 79 0 min 0,000 mm 0,0 UV-I 94 W/m 10,3 C 18,7 C 9,7 km/h (2 Bft) 100,00 %
03.04.2018 17:57 18,9 C 7,2 C 57 % 1005,5 hPa 0,0 l/m 6,7 km/h (2 Bft) O-NO 74 0 min 0,000 mm 0,0 UV-I 53 W/m 10,2 C 18,8 C 9,7 km/h (2 Bft) 100,00 %
03.04.2018 17:58 18,9 C 7,2 C 57 % 1005,5 hPa 0,0 l/m 7,7 km/h (2 Bft) O 86 0 min 0,000 mm 0,0 UV-I 52 W/m 10,2 C 18,3 C 11,3 km/h (2 Bft) 100,00 %
03.04.2018 17:59 18,9 C 7,2 C 57 % 1005,5 hPa 0,0 l/m 8,0 km/h (2 Bft) O 101 0 min 0,000 mm 0,0 UV-I 85 W/m 10,2 C 18,2 C 11,3 km/h (2 Bft) 100,00 %
03.04.2018 18:00 18,9 C 7,2 C 56 % 1005,5 hPa 0,0 l/m 6,3 km/h (2 Bft) O 89 0 min 0,000 mm 0,0 UV-I 98 W/m 9,9 C 18,9 C 9,7 km/h (2 Bft) 100,00 %
03.04.2018 18:01 18,8 C 7,2 C 56 % 1005,5 hPa 0,0 l/m 7,8 km/h (2 Bft) O 101 0 min 0,127 mm 0,0 UV-I 95 W/m 9,8 C 18,2 C 12,9 km/h (3 Bft) 100,00 %
03.04.2018 18:02 18,8 C 7,2 C 55 % 1005,5 hPa 0,0 l/m 8,2 km/h (2 Bft) O 95 0 min 0,000 mm 0,0 UV-I 92 W/m 9,6 C 18,0 C 12,9 km/h (3 Bft) 100,00 %
03.04.2018 18:03 18,8 C 7,2 C 56 % 1005,5 hPa 0,0 l/m 9,3 km/h (2 Bft) O 86 0 min 0,000 mm 0,0 UV-I 91 W/m 9,8 C 17,6 C 12,9 km/h (3 Bft) 100,00 %
03.04.2018 18:04 18,7 C 7,2 C 55 % 1005,5 hPa 0,0 l/m 11,2 km/h (2 Bft) O 88 0 min 0,000 mm 0,0 UV-I 88 W/m 9,5 C 16,8 C 14,5 km/h (3 Bft) 100,00 %
03.04.2018 18:05 18,7 C 7,2 C 55 % 1005,5 hPa 0,0 l/m 9,8 km/h (2 Bft) O 96 0 min 0,000 mm 0,0 UV-I 86 W/m 9,5 C 17,3 C 12,9 km/h (3 Bft) 100,00 %
03.04.2018 18:06 18,7 C 7,2 C 55 % 1005,4 hPa 0,0 l/m 7,8 km/h (2 Bft) O 98 0 min 0,000 mm 0,0 UV-I 86 W/m 9,5 C 18,1 C 12,9 km/h (3 Bft) 95,83 %
03.04.2018 18:07 18,7 C 7,2 C 55 % 1005,4 hPa 0,0 l/m 10,2 km/h (2 Bft) O-NO 74 0 min 0,000 mm 0,0 UV-I 84 W/m 9,5 C 17,1 C 12,9 km/h (3 Bft) 100,00 %
03.04.2018 18:08 18,7 C 7,2 C 56 % 1005,4 hPa 0,0 l/m 8,5 km/h (2 Bft) O-NO 68 0 min 0,000 mm 0,0 UV-I 83 W/m 9,7 C 17,8 C 11,3 km/h (2 Bft) 100,00 %
03.04.2018 18:09 18,6 C 7,2 C 56 % 1005,4 hPa 0,0 l/m 8,6 km/h (2 Bft) O-NO 67 0 min 0,000 mm 0,0 UV-I 86 W/m 9,6 C 17,6 C 12,9 km/h (3 Bft) 95,65 %
03.04.2018 18:10 18,6 C 7,2 C 55 % 1005,3 hPa 0,0 l/m 8,6 km/h (2 Bft) O 85 0 min 0,000 mm 0,0 UV-I 90 W/m 9,4 C 17,6 C 12,9 km/h (3 Bft) 100,00 %
03.04.2018 18:11 18,6 C 7,2 C 54 % 1005,3 hPa 0,0 l/m 11,1 km/h (2 Bft) O 83 0 min 0,000 mm 0,0 UV-I 96 W/m 9,1 C 16,7 C 17,7 km/h (3 Bft) 95,65 %
03.04.2018 18:12 18,6 C 7,2 C 55 % 1005,3 hPa 0,0 l/m 9,5 km/h (2 Bft) O-SO 103 0 min 0,000 mm 0,0 UV-I 103 W/m 9,4 C 17,3 C 12,9 km/h (3 Bft) 100,00 %
03.04.2018 18:13 18,6 C 7,2 C 56 % 1005,4 hPa 0,0 l/m 10,1 km/h (2 Bft) O 92 0 min 0,000 mm 0,0 UV-I 106 W/m 9,6 C 17,1 C 14,5 km/h (3 Bft) 91,30 %
03.04.2018 18:14 18,6 C 7,2 C 55 % 1005,3 hPa 0,0 l/m 10,2 km/h (2 Bft) O 91 0 min 0,000 mm 0,0 UV-I 109 W/m 9,4 C 17,0 C 14,5 km/h (3 Bft) 91,67 %
03.04.2018 18:15 18,5 C 7,2 C 55 % 1005,3 hPa 0,0 l/m 7,3 km/h (2 Bft) O-SO 109 0 min 0,000 mm 0,0 UV-I 107 W/m 9,3 C 18,1 C 11,3 km/h (2 Bft) 95,65 %
03.04.2018 18:16 18,5 C 7,2 C 55 % 1005,3 hPa 0,0 l/m 9,9 km/h (2 Bft) O 88 0 min 0,000 mm 0,0 UV-I 105 W/m 9,3 C 17,0 C 14,5 km/h (3 Bft) 95,83 %
03.04.2018 18:17 18,6 C 7,2 C 54 % 1005,3 hPa 0,0 l/m 9,5 km/h (2 Bft) O 84 0 min 0,000 mm 0,0 UV-I 99 W/m 9,1 C 17,3 C 14,5 km/h (3 Bft) 100,00 %
03.04.2018 18:18 18,6 C 7,2 C 54 % 1005,3 hPa 0,0 l/m 9,3 km/h (2 Bft) O 86 0 min 0,000 mm 0,0 UV-I 92 W/m 9,1 C 17,4 C 12,9 km/h (3 Bft) 86,96 %
03.04.2018 18:19 18,6 C 7,2 C 54 % 1005,3 hPa 0,0 l/m 8,3 km/h (2 Bft) SO 124 0 min 0,000 mm 0,0 UV-I 87 W/m 9,1 C 17,8 C 11,3 km/h (2 Bft) 100,00 %
03.04.2018 18:20 18,6 C 7,2 C 54 % 1005,2 hPa 0,0 l/m 10,2 km/h (2 Bft) O-NO 66 0 min 0,000 mm 0,0 UV-I 85 W/m 9,1 C 17,0 C 14,5 km/h (3 Bft) 95,65 %
03.04.2018 18:21 18,6 C 7,2 C 54 % 1005,2 hPa 0,0 l/m 8,0 km/h (2 Bft) O 97 0 min 0,000 mm 0,0 UV-I 86 W/m 9,1 C 17,9 C 11,3 km/h (2 Bft) 91,67 %
03.04.2018 18:22 18,5 C 7,2 C 55 % 1005,2 hPa 0,0 l/m 8,1 km/h (2 Bft) O-SO 109 0 min 0,000 mm 0,0 UV-I 84 W/m 9,3 C 17,7 C 12,9 km/h (3 Bft) 100,00 %
03.04.2018 18:23 18,5 C 7,2 C 55 % 1005,2 hPa 0,0 l/m 10,1 km/h (2 Bft) O-SO 110 0 min 0,000 mm 0,0 UV-I 81 W/m 9,3 C 16,9 C 14,5 km/h (3 Bft) 95,83 %
03.04.2018 18:24 18,5 C 7,2 C 55 % 1005,2 hPa 0,0 l/m 8,0 km/h (2 Bft) O 92 0 min 0,000 mm 0,0 UV-I 79 W/m 9,3 C 17,8 C 12,9 km/h (3 Bft) 100,00 %
03.04.2018 18:25 18,4 C 7,2 C 56 % 1005,1 hPa 0,0 l/m 12,1 km/h (2 Bft) O-SO 114 0 min 0,000 mm 0,0 UV-I 79 W/m 9,5 C 16,2 C 16,1 km/h (3 Bft) 95,83 %
03.04.2018 18:26 18,4 C 7,2 C 56 % 1005,1 hPa 0,0 l/m 11,3 km/h (2 Bft) O 95 0 min 0,000 mm 0,0 UV-I 80 W/m 9,5 C 16,4 C 14,5 km/h (3 Bft) 100,00 %
03.04.2018 18:27 18,3 C 7,2 C 57 % 1005,1 hPa 0,0 l/m 9,2 km/h (2 Bft) O 94 0 min 0,000 mm 0,0 UV-I 81 W/m 9,6 C 17,1 C 12,9 km/h (3 Bft) 95,83 %
03.04.2018 18:28 18,3 C 7,2 C 57 % 1005,1 hPa 0,0 l/m 10,7 km/h (2 Bft) O-SO 106 0 min 0,000 mm 0,0 UV-I 82 W/m 9,6 C 16,5 C 12,9 km/h (3 Bft) 100,00 %
03.04.2018 18:29 18,2 C 7,2 C 57 % 1005,1 hPa 0,0 l/m 8,7 km/h (2 Bft) O 87 0 min 0,000 mm 0,0 UV-I 83 W/m 9,5 C 17,2 C 14,5 km/h (3 Bft) 96,30 %
03.04.2018 18:30 18,2 C 7,2 C 57 % 1005,1 hPa 0,0 l/m 13,1 km/h (3 Bft) O 90 0 min 0,000 mm 0,0 UV-I 83 W/m 9,5 C 15,6 C 16,1 km/h (3 Bft) 91,30 %
03.04.2018 18:31 18,2 C 7,2 C 57 % 1005,0 hPa 0,0 l/m 11,6 km/h (2 Bft) O-SO 104 0 min 0,000 mm 0,0 UV-I 83 W/m 9,5 C 16,1 C 14,5 km/h (3 Bft) 100,00 %
03.04.2018 18:32 18,2 C 7,2 C 56 % 1005,0 hPa 0,0 l/m 8,8 km/h (2 Bft) O-SO 107 0 min 0,000 mm 0,0 UV-I 83 W/m 9,3 C 17,1 C 12,9 km/h (3 Bft) 96,15 %
03.04.2018 18:33 18,1 C 7,2 C 56 % 1005,0 hPa 0,0 l/m 10,4 km/h (2 Bft) O-SO 113 0 min 0,000 mm 0,0 UV-I 85 W/m 9,2 C 16,4 C 14,5 km/h (3 Bft) 100,00 %
03.04.2018 18:34 18,1 C 7,2 C 57 % 1005,0 hPa 0,0 l/m 14,4 km/h (3 Bft) O 85 0 min 0,000 mm 0,0 UV-I 86 W/m 9,4 C 15,1 C 17,7 km/h (3 Bft) 95,83 %
03.04.2018 18:35 18,1 C 7,2 C 56 % 1004,9 hPa 0,0 l/m 13,5 km/h (3 Bft) O-SO 107 1 min 0,000 mm 0,0 UV-I 90 W/m 9,2 C 15,4 C 16,1 km/h (3 Bft) 100,00 %
03.04.2018 18:36 18,1 C 7,2 C 56 % 1004,9 hPa 0,0 l/m 12,5 km/h (3 Bft) O-SO 103 1 min 0,000 mm 0,0 UV-I 91 W/m 9,2 C 15,7 C 17,7 km/h (3 Bft) 95,83 %
03.04.2018 18:37 18,2 C 7,2 C 56 % 1004,9 hPa 0,0 l/m 13,3 km/h (3 Bft) O 88 1 min 0,000 mm 0,0 UV-I 88 W/m 9,3 C 15,6 C 17,7 km/h (3 Bft) 100,00 %
03.04.2018 18:38 18,2 C 7,2 C 56 % 1004,9 hPa 0,0 l/m 13,3 km/h (3 Bft) O-SO 110 1 min 0,000 mm 0,0 UV-I 87 W/m 9,3 C 15,6 C 17,7 km/h (3 Bft) 95,83 %
03.04.2018 18:39 18,2 C 7,2 C 55 % 1004,9 hPa 0,0 l/m 15,6 km/h (3 Bft) O 96 1 min 0,000 mm 0,0 UV-I 93 W/m 9,0 C 14,9 C 19,3 km/h (3 Bft) 91,30 %
03.04.2018 18:40 18,2 C 7,2 C 55 % 1004,9 hPa 0,0 l/m 11,1 km/h (2 Bft) O-NO 76 1 min 0,000 mm 0,0 UV-I 94 W/m 9,0 C 16,3 C 17,7 km/h (3 Bft) 95,83 %
03.04.2018 18:41 18,2 C 7,2 C 55 % 1004,9 hPa 0,0 l/m 14,1 km/h (3 Bft) O-SO 105 1 min 0,000 mm 0,0 UV-I 90 W/m 9,0 C 15,3 C 17,7 km/h (3 Bft) 92,31 %
03.04.2018 18:42 18,2 C 7,2 C 55 % 1004,9 hPa 0,0 l/m 11,2 km/h (2 Bft) O 89 1 min 0,000 mm 0,0 UV-I 85 W/m 9,0 C 16,2 C 16,1 km/h (3 Bft) 100,00 %
03.04.2018 18:43 18,2 C 7,2 C 55 % 1004,9 hPa 0,0 l/m 10,6 km/h (2 Bft) O 92 1 min 0,000 mm 0,0 UV-I 87 W/m 9,0 C 16,4 C 12,9 km/h (3 Bft) 100,00 %
03.04.2018 18:44 18,1 C 7,2 C 56 % 1004,9 hPa 0,0 l/m 11,5 km/h (2 Bft) O 85 1 min 0,000 mm 0,0 UV-I 82 W/m 9,2 C 16,0 C 14,5 km/h (3 Bft) 100,00 %
03.04.2018 18:45 18,1 C 7,2 C 56 % 1004,9 hPa 0,0 l/m 10,6 km/h (2 Bft) O 96 1 min 0,000 mm 0,0 UV-I 77 W/m 9,2 C 16,3 C 14,5 km/h (3 Bft) 100,00 %
03.04.2018 18:46 18,1 C 7,2 C 56 % 1004,9 hPa 0,0 l/m 10,4 km/h (2 Bft) O-NO 78 1 min 0,000 mm 0,0 UV-I 74 W/m 9,2 C 16,4 C 12,9 km/h (3 Bft) 96,30 %
03.04.2018 18:47 18,0 C 7,2 C 56 % 1004,9 hPa 0,0 l/m 8,5 km/h (2 Bft) O 99 1 min 0,000 mm 0,0 UV-I 72 W/m 9,1 C 17,0 C 11,3 km/h (2 Bft) 100,00 %
03.04.2018 18:48 17,9 C 7,2 C 57 % 1004,9 hPa 0,0 l/m 9,5 km/h (2 Bft) O 89 1 min 0,000 mm 0,0 UV-I 70 W/m 9,3 C 16,5 C 12,9 km/h (3 Bft) 100,00 %
03.04.2018 18:49 17,8 C 7,2 C 56 % 1004,9 hPa 0,0 l/m 8,7 km/h (2 Bft) O 98 1 min 0,000 mm 0,0 UV-I 68 W/m 8,9 C 16,7 C 11,3 km/h (2 Bft) 95,65 %
03.04.2018 18:50 17,8 C 7,2 C 57 % 1005,0 hPa 0,0 l/m 9,4 km/h (2 Bft) O 101 0 min 0,000 mm 0,0 UV-I 64 W/m 9,2 C 16,4 C 12,9 km/h (3 Bft) 95,83 %
03.04.2018 18:51 17,7 C 7,2 C 58 % 1005,0 hPa 0,0 l/m 10,3 km/h (2 Bft) O 79 0 min 0,000 mm 0,0 UV-I 58 W/m 9,3 C 16,0 C 12,9 km/h (3 Bft) 100,00 %
03.04.2018 18:52 17,7 C 7,2 C 57 % 1005,0 hPa 0,0 l/m 11,0 km/h (2 Bft) O 86 0 min 0,000 mm 0,0 UV-I 54 W/m 9,1 C 15,7 C 12,9 km/h (3 Bft) 100,00 %
03.04.2018 18:53 17,7 C 7,2 C 57 % 1005,0 hPa 0,0 l/m 9,7 km/h (2 Bft) O-SO 108 0 min 0,000 mm 0,0 UV-I 49 W/m 9,1 C 16,2 C 11,3 km/h (2 Bft) 100,00 %
03.04.2018 18:54 17,6 C 7,2 C 57 % 1005,0 hPa 0,0 l/m 6,1 km/h (2 Bft) O 86 0 min 0,000 mm 0,0 UV-I 45 W/m 9,0 C 17,6 C 9,7 km/h (2 Bft) 100,00 %
03.04.2018 18:55 17,6 C 7,2 C 57 % 1005,1 hPa 0,0 l/m 8,1 km/h (2 Bft) O 98 0 min 0,000 mm 0,0 UV-I 41 W/m 9,0 C 16,8 C 11,3 km/h (2 Bft) 100,00 %
03.04.2018 18:56 17,5 C 7,2 C 58 % 1005,1 hPa 0,0 l/m 6,2 km/h (2 Bft) O-SO 105 0 min 0,000 mm 0,0 UV-I 40 W/m 9,1 C 17,5 C 9,7 km/h (2 Bft) 100,00 %
03.04.2018 18:57 17,4 C 7,2 C 57 % 1005,1 hPa 0,0 l/m 8,1 km/h (2 Bft) O 94 0 min 0,000 mm 0,0 UV-I 38 W/m 8,8 C 16,6 C 11,3 km/h (2 Bft) 100,00 %
03.04.2018 18:58 17,4 C 7,2 C 57 % 1005,2 hPa 0,0 l/m 8,7 km/h (2 Bft) O 80 0 min 0,000 mm 0,0 UV-I 35 W/m 8,8 C 16,3 C 12,9 km/h (3 Bft) 100,00 %
03.04.2018 18:59 17,4 C 7,2 C 57 % 1005,1 hPa 0,0 l/m 7,1 km/h (2 Bft) O-SO 104 0 min 0,000 mm 0,0 UV-I 35 W/m 8,8 C 17,1 C 9,7 km/h (2 Bft) 100,00 %
03.04.2018 19:00 17,4 C 7,2 C 57 % 1005,2 hPa 0,0 l/m 5,9 km/h (2 Bft) O 101 0 min 0,000 mm 0,0 UV-I 33 W/m 8,8 C 17,4 C 11,3 km/h (2 Bft) 90,91 %
03.04.2018 19:01 17,3 C 7,2 C 58 % 1005,2 hPa 0,0 l/m 6,1 km/h (2 Bft) O-SO 106 0 min 0,102 mm 0,0 UV-I 33 W/m 9,0 C 17,3 C 9,7 km/h (2 Bft) 100,00 %
03.04.2018 19:02 17,2 C 7,2 C 59 % 1005,2 hPa 0,0 l/m 4,3 km/h (1 Bft) O-SO 107 0 min 0,000 mm 0,0 UV-I 33 W/m 9,1 C 17,2 C 9,7 km/h (2 Bft) 100,00 %
03.04.2018 19:03 17,2 C 7,2 C 58 % 1005,2 hPa 0,0 l/m 5,9 km/h (2 Bft) O 97 0 min 0,000 mm 0,0 UV-I 32 W/m 8,9 C 17,2 C 9,7 km/h (2 Bft) 100,00 %
03.04.2018 19:04 17,2 C 7,2 C 58 % 1005,2 hPa 0,0 l/m 5,4 km/h (1 Bft) O 101 0 min 0,000 mm 0,0 UV-I 32 W/m 8,9 C 17,2 C 6,4 km/h (2 Bft) 100,00 %
03.04.2018 19:05 17,2 C 7,2 C 58 % 1005,2 hPa 0,0 l/m 6,6 km/h (2 Bft) O 95 0 min 0,000 mm 0,0 UV-I 30 W/m 8,9 C 17,1 C 9,7 km/h (2 Bft) 100,00 %
03.04.2018 19:06 17,2 C 7,2 C 58 % 1005,2 hPa 0,0 l/m 7,0 km/h (2 Bft) O 98 0 min 0,000 mm 0,0 UV-I 30 W/m 8,9 C 16,9 C 9,7 km/h (2 Bft) 100,00 %
03.04.2018 19:07 17,2 C 7,2 C 58 % 1005,3 hPa 0,0 l/m 6,2 km/h (2 Bft) O-SO 103 0 min 0,000 mm 0,0 UV-I 27 W/m 8,9 C 17,2 C 9,7 km/h (2 Bft) 100,00 %
03.04.2018 19:08 17,1 C 7,2 C 58 % 1005,3 hPa 0,0 l/m 5,6 km/h (1 Bft) O-SO 108 0 min 0,000 mm 0,0 UV-I 26 W/m 8,8 C 17,1 C 6,4 km/h (2 Bft) 100,00 %
03.04.2018 19:09 17,1 C 7,2 C 58 % 1005,3 hPa 0,0 l/m 8,4 km/h (2 Bft) O-SO 105 0 min 0,000 mm 0,0 UV-I 25 W/m 8,8 C 16,1 C 11,3 km/h (2 Bft) 100,00 %
03.04.2018 19:10 17,1 C 7,2 C 58 % 1005,3 hPa 0,0 l/m 5,6 km/h (1 Bft) O-SO 103 0 min 0,000 mm 0,0 UV-I 25 W/m 8,8 C 17,1 C 6,4 km/h (2 Bft) 100,00 %
03.04.2018 19:11 17,1 C 7,2 C 58 % 1005,3 hPa 0,0 l/m 6,2 km/h (2 Bft) O 90 0 min 0,000 mm 0,0 UV-I 23 W/m 8,8 C 17,1 C 9,7 km/h (2 Bft) 100,00 %
03.04.2018 19:12 17,1 C 7,2 C 58 % 1005,3 hPa 0,0 l/m 5,8 km/h (2 Bft) O-SO 105 0 min 0,000 mm 0,0 UV-I 22 W/m 8,8 C 17,1 C 9,7 km/h (2 Bft) 100,00 %
03.04.2018 19:13 17,1 C 7,2 C 58 % 1005,3 hPa 0,0 l/m 7,0 km/h (2 Bft) O 92 0 min 0,000 mm 0,0 UV-I 21 W/m 8,8 C 16,8 C 11,3 km/h (2 Bft) 100,00 %
03.04.2018 19:14 17,1 C 7,2 C 58 % 1005,2 hPa 0,0 l/m 5,7 km/h (1 Bft) O 85 0 min 0,000 mm 0,0 UV-I 20 W/m 8,8 C 17,1 C 11,3 km/h (2 Bft) 100,00 %
03.04.2018 19:15 17,1 C 7,2 C 58 % 1005,2 hPa 0,0 l/m 6,8 km/h (2 Bft) O 98 0 min 0,000 mm 0,0 UV-I 19 W/m 8,8 C 16,9 C 9,7 km/h (2 Bft) 100,00 %
03.04.2018 19:16 17,0 C 7,2 C 58 % 1005,2 hPa 0,0 l/m 7,4 km/h (2 Bft) O-SO 103 0 min 0,000 mm 0,0 UV-I 18 W/m 8,7 C 16,5 C 11,3 km/h (2 Bft) 100,00 %
03.04.2018 19:17 16,9 C 7,2 C 58 % 1005,2 hPa 0,0 l/m 6,4 km/h (2 Bft) O 91 0 min 0,000 mm 0,0 UV-I 18 W/m 8,6 C 16,9 C 9,7 km/h (2 Bft) 91,30 %
03.04.2018 19:18 16,9 C 7,2 C 59 % 1005,2 hPa 0,0 l/m 7,1 km/h (2 Bft) O 95 0 min 0,000 mm 0,0 UV-I 16 W/m 8,8 C 16,5 C 9,7 km/h (2 Bft) 100,00 %
03.04.2018 19:19 16,8 C 7,2 C 58 % 1005,2 hPa 0,0 l/m 5,9 km/h (2 Bft) O-SO 111 0 min 0,000 mm 0,0 UV-I 15 W/m 8,5 C 16,8 C 6,4 km/h (2 Bft) 96,15 %
03.04.2018 19:20 16,8 C 7,2 C 59 % 1005,2 hPa 0,0 l/m 5,1 km/h (1 Bft) O-NO 65 0 min 0,000 mm 0,0 UV-I 14 W/m 8,7 C 16,8 C 6,4 km/h (2 Bft) 100,00 %
03.04.2018 19:21 16,8 C 7,2 C 59 % 1005,2 hPa 0,0 l/m 5,7 km/h (1 Bft) O 80 0 min 0,000 mm 0,0 UV-I 13 W/m 8,7 C 16,8 C 8,0 km/h (2 Bft) 100,00 %
03.04.2018 19:22 16,8 C 7,2 C 59 % 1005,2 hPa 0,0 l/m 7,9 km/h (2 Bft) O 94 0 min 0,000 mm 0,0 UV-I 12 W/m 8,7 C 16,0 C 9,7 km/h (2 Bft) 100,00 %
03.04.2018 19:23 16,8 C 7,2 C 59 % 1005,2 hPa 0,0 l/m 5,8 km/h (2 Bft) O 90 0 min 0,000 mm 0,0 UV-I 12 W/m 8,7 C 16,8 C 6,4 km/h (2 Bft) 95,65 %
03.04.2018 19:24 16,7 C 7,2 C 59 % 1005,2 hPa 0,0 l/m 6,6 km/h (2 Bft) O 86 0 min 0,000 mm 0,0 UV-I 11 W/m 8,6 C 16,6 C 9,7 km/h (2 Bft) 100,00 %
03.04.2018 19:25 16,7 C 7,2 C 60 % 1005,3 hPa 0,0 l/m 6,4 km/h (2 Bft) O 81 0 min 0,000 mm 0,0 UV-I 10 W/m 8,9 C 16,7 C 9,7 km/h (2 Bft) 100,00 %
03.04.2018 19:26 16,6 C 7,2 C 60 % 1005,2 hPa 0,0 l/m 8,3 km/h (2 Bft) O-SO 105 1 min 0,000 mm 0,0 UV-I 9 W/m 8,8 C 15,6 C 11,3 km/h (2 Bft) 96,67 %
03.04.2018 19:27 16,6 C 7,2 C 59 % 1005,3 hPa 0,0 l/m 8,6 km/h (2 Bft) O-SO 113 0 min 0,000 mm 0,0 UV-I 9 W/m 8,6 C 15,5 C 11,3 km/h (2 Bft) 95,65 %
03.04.2018 19:28 16,6 C 7,2 C 59 % 1005,3 hPa 0,0 l/m 7,3 km/h (2 Bft) O 92 0 min 0,000 mm 0,0 UV-I 9 W/m 8,6 C 16,1 C 9,7 km/h (2 Bft) 100,00 %
03.04.2018 19:29 16,6 C 7,2 C 59 % 1005,3 hPa 0,0 l/m 7,6 km/h (2 Bft) O-SO 103 0 min 0,000 mm 0,0 UV-I 7 W/m 8,6 C 16,0 C 9,7 km/h (2 Bft) 100,00 %
03.04.2018 19:30 16,5 C 7,2 C 59 % 1005,3 hPa 0,0 l/m 7,0 km/h (2 Bft) O-SO 107 0 min 0,000 mm 0,0 UV-I 7 W/m 8,5 C 16,2 C 11,3 km/h (2 Bft) 100,00 %
03.04.2018 19:31 16,5 C 7,2 C 59 % 1005,3 hPa 0,0 l/m 5,8 km/h (2 Bft) O 98 0 min 0,000 mm 0,0 UV-I 7 W/m 8,5 C 16,5 C 6,4 km/h (2 Bft) 100,00 %
03.04.2018 19:32 16,5 C 7,2 C 59 % 1005,3 hPa 0,0 l/m 9,1 km/h (2 Bft) O 101 0 min 0,000 mm 0,0 UV-I 7 W/m 8,5 C 15,2 C 12,9 km/h (3 Bft) 100,00 %
03.04.2018 19:33 16,4 C 7,2 C 59 % 1005,3 hPa 0,0 l/m 6,8 km/h (2 Bft) O 80 0 min 0,000 mm 0,0 UV-I 7 W/m 8,4 C 16,2 C 9,7 km/h (2 Bft) 100,00 %
03.04.2018 19:34 16,4 C 7,2 C 59 % 1005,3 hPa 0,0 l/m 9,0 km/h (2 Bft) O-SO 103 0 min 0,000 mm 0,0 UV-I 7 W/m 8,4 C 15,1 C 11,3 km/h (2 Bft) 100,00 %
03.04.2018 19:35 16,4 C 7,2 C 59 % 1005,2 hPa 0,0 l/m 7,2 km/h (2 Bft) O 93 0 min 0,000 mm 0,0 UV-I 7 W/m 8,4 C 16,0 C 11,3 km/h (2 Bft) 100,00 %
03.04.2018 19:36 16,4 C 7,2 C 59 % 1005,2 hPa 0,0 l/m 10,1 km/h (2 Bft) O 86 0 min 0,000 mm 0,0 UV-I 5 W/m 8,4 C 14,6 C 11,3 km/h (2 Bft) 95,65 %
03.04.2018 19:37 16,5 C 7,2 C 58 % 1005,2 hPa 0,0 l/m 8,4 km/h (2 Bft) O-SO 103 0 min 0,000 mm 0,0 UV-I 5 W/m 8,2 C 15,5 C 11,3 km/h (2 Bft) 95,83 %
03.04.2018 19:38 16,6 C 7,2 C 59 % 1005,2 hPa 0,0 l/m 8,6 km/h (2 Bft) O 81 0 min 0,000 mm 0,0 UV-I 5 W/m 8,6 C 15,5 C 12,9 km/h (3 Bft) 100,00 %
03.04.2018 19:39 16,6 C 7,2 C 58 % 1005,2 hPa 0,0 l/m 9,1 km/h (2 Bft) O 96 0 min 0,000 mm 0,0 UV-I 5 W/m 8,3 C 15,3 C 11,3 km/h (2 Bft) 95,83 %
03.04.2018 19:40 16,5 C 7,2 C 59 % 1005,2 hPa 0,0 l/m 7,8 km/h (2 Bft) O 100 0 min 0,000 mm 0,0 UV-I 5 W/m 8,5 C 15,8 C 11,3 km/h (2 Bft) 100,00 %
03.04.2018 19:41 16,5 C 7,2 C 59 % 1005,2 hPa 0,0 l/m 7,5 km/h (2 Bft) O-SO 107 0 min 0,000 mm 0,0 UV-I 5 W/m 8,5 C 15,9 C 11,3 km/h (2 Bft) 91,67 %
03.04.2018 19:42 16,4 C 7,2 C 59 % 1005,3 hPa 0,0 l/m 7,9 km/h (2 Bft) O-SO 113 0 min 0,000 mm 0,0 UV-I 5 W/m 8,4 C 15,6 C 11,3 km/h (2 Bft) 100,00 %
03.04.2018 19:43 16,4 C 7,2 C 59 % 1005,3 hPa 0,0 l/m 10,0 km/h (2 Bft) O 101 0 min 0,000 mm 0,0 UV-I 5 W/m 8,4 C 14,7 C 12,9 km/h (3 Bft) 95,83 %
03.04.2018 19:44 16,3 C 7,2 C 59 % 1005,4 hPa 0,0 l/m 10,1 km/h (2 Bft) O 99 0 min 0,000 mm 0,0 UV-I 5 W/m 8,3 C 14,5 C 12,9 km/h (3 Bft) 100,00 %
03.04.2018 19:45 16,4 C 7,2 C 59 % 1005,3 hPa 0,0 l/m 9,6 km/h (2 Bft) O-SO 103 0 min 0,000 mm 0,0 UV-I 5 W/m 8,4 C 14,8 C 14,5 km/h (3 Bft) 95,83 %
03.04.2018 19:46 16,4 C 7,2 C 59 % 1005,3 hPa 0,0 l/m 8,0 km/h (2 Bft) O 94 0 min 0,000 mm 0,0 UV-I 5 W/m 8,4 C 15,6 C 11,3 km/h (2 Bft) 100,00 %
03.04.2018 19:47 16,4 C 7,2 C 59 % 1005,2 hPa 0,0 l/m 7,6 km/h (2 Bft) O 90 0 min 0,000 mm 0,0 UV-I 0 W/m 8,4 C 15,8 C 9,7 km/h (2 Bft) 95,83 %
03.04.2018 19:48 16,3 C 7,2 C 59 % 1005,3 hPa 0,0 l/m 9,2 km/h (2 Bft) O 92 0 min 0,000 mm 0,0 UV-I 0 W/m 8,3 C 14,9 C 12,9 km/h (3 Bft) 96,15 %
03.04.2018 19:49 16,3 C 7,2 C 59 % 1005,3 hPa 0,0 l/m 9,3 km/h (2 Bft) O-SO 107 0 min 0,000 mm 0,0 UV-I 0 W/m 8,3 C 14,9 C 11,3 km/h (2 Bft) 100,00 %
03.04.2018 19:50 16,3 C 7,2 C 59 % 1005,3 hPa 0,0 l/m 7,4 km/h (2 Bft) O 97 0 min 0,000 mm 0,0 UV-I 0 W/m 8,3 C 15,8 C 11,3 km/h (2 Bft) 96,30 %
03.04.2018 19:51 16,3 C 7,2 C 59 % 1005,3 hPa 0,0 l/m 9,7 km/h (2 Bft) O 86 0 min 0,000 mm 0,0 UV-I 0 W/m 8,3 C 14,7 C 12,9 km/h (3 Bft) 100,00 %
03.04.2018 19:52 16,2 C 7,2 C 59 % 1005,3 hPa 0,0 l/m 9,8 km/h (2 Bft) O-SO 104 0 min 0,000 mm 0,0 UV-I 0 W/m 8,2 C 14,5 C 12,9 km/h (3 Bft) 91,67 %
03.04.2018 19:53 16,2 C 7,2 C 59 % 1005,4 hPa 0,0 l/m 10,6 km/h (2 Bft) O-SO 105 0 min 0,000 mm 0,0 UV-I 0 W/m 8,2 C 14,2 C 12,9 km/h (3 Bft) 100,00 %
03.04.2018 19:54 16,2 C 7,2 C 59 % 1005,3 hPa 0,0 l/m 9,9 km/h (2 Bft) O 96 0 min 0,000 mm 0,0 UV-I 0 W/m 8,2 C 14,5 C 14,5 km/h (3 Bft) 95,83 %
03.04.2018 19:55 16,2 C 7,2 C 59 % 1005,3 hPa 0,0 l/m 7,0 km/h (2 Bft) O 95 0 min 0,000 mm 0,0 UV-I 0 W/m 8,2 C 15,9 C 9,7 km/h (2 Bft) 100,00 %
03.04.2018 19:56 16,1 C 7,2 C 60 % 1005,4 hPa 0,0 l/m 7,8 km/h (2 Bft) O 90 0 min 0,000 mm 0,0 UV-I 0 W/m 8,3 C 15,4 C 11,3 km/h (2 Bft) 96,30 %
03.04.2018 19:57 16,1 C 7,2 C 59 % 1005,4 hPa 0,0 l/m 8,9 km/h (2 Bft) O 91 0 min 0,000 mm 0,0 UV-I 0 W/m 8,1 C 14,8 C 12,9 km/h (3 Bft) 92,86 %
03.04.2018 19:58 16,2 C 7,2 C 59 % 1005,4 hPa 0,0 l/m 9,3 km/h (2 Bft) O 91 0 min 0,000 mm 0,0 UV-I 0 W/m 8,2 C 14,7 C 11,3 km/h (2 Bft) 95,83 %
03.04.2018 19:59 16,1 C 7,2 C 59 % 1005,4 hPa 0,0 l/m 8,3 km/h (2 Bft) O-SO 120 0 min 0,000 mm 0,0 UV-I 0 W/m 8,1 C 15,1 C 12,9 km/h (3 Bft) 96,15 %
03.04.2018 20:00 16,1 C 7,2 C 59 % 1005,4 hPa 0,0 l/m 9,1 km/h (2 Bft) O-SO 115 0 min 0,000 mm 0,0 UV-I 0 W/m 8,1 C 14,7 C 12,9 km/h (3 Bft) 100,00 %
03.04.2018 20:01 16,1 C 7,2 C 60 % 1005,4 hPa 0,0 l/m 5,8 km/h (2 Bft) O-SO 109 0 min 0,050 mm 0,0 UV-I 0 W/m 8,3 C 16,1 C 9,7 km/h (2 Bft) 96,15 %
03.04.2018 20:02 16,0 C 7,2 C 60 % 1005,4 hPa 0,0 l/m 8,3 km/h (2 Bft) O-SO 110 0 min 0,000 mm 0,0 UV-I 0 W/m 8,2 C 15,0 C 12,9 km/h (3 Bft) 96,30 %
03.04.2018 20:03 15,9 C 7,2 C 60 % 1005,4 hPa 0,0 l/m 8,9 km/h (2 Bft) O 96 0 min 0,000 mm 0,0 UV-I 0 W/m 8,1 C 14,6 C 11,3 km/h (2 Bft) 92,86 %
03.04.2018 20:04 15,9 C 7,2 C 60 % 1005,4 hPa 0,0 l/m 8,7 km/h (2 Bft) O 96 0 min 0,000 mm 0,0 UV-I 0 W/m 8,1 C 14,7 C 11,3 km/h (2 Bft) 95,83 %
03.04.2018 20:05 16,0 C 7,2 C 60 % 1005,4 hPa 0,0 l/m 8,9 km/h (2 Bft) O 96 0 min 0,000 mm 0,0 UV-I 0 W/m 8,2 C 14,7 C 11,3 km/h (2 Bft) 95,65 %
03.04.2018 20:06 15,9 C 7,2 C 60 % 1005,4 hPa 0,0 l/m 9,1 km/h (2 Bft) O 88 0 min 0,000 mm 0,0 UV-I 0 W/m 8,1 C 14,5 C 14,5 km/h (3 Bft) 95,83 %
03.04.2018 20:07 15,9 C 7,2 C 60 % 1005,4 hPa 0,0 l/m 7,0 km/h (2 Bft) O-SO 117 0 min 0,000 mm 0,0 UV-I 0 W/m 8,1 C 15,6 C 12,9 km/h (3 Bft) 95,83 %
03.04.2018 20:08 15,8 C 7,2 C 60 % 1005,4 hPa 0,0 l/m 7,4 km/h (2 Bft) O-SO 113 0 min 0,000 mm 0,0 UV-I 0 W/m 8,1 C 15,3 C 9,7 km/h (2 Bft) 100,00 %
03.04.2018 20:09 15,8 C 7,2 C 60 % 1005,4 hPa 0,0 l/m 7,2 km/h (2 Bft) O-SO 111 0 min 0,000 mm 0,0 UV-I 0 W/m 8,1 C 15,4 C 12,9 km/h (3 Bft) 91,67 %
03.04.2018 20:10 15,7 C 7,2 C 61 % 1005,4 hPa 0,0 l/m 6,3 km/h (2 Bft) O-SO 116 0 min 0,000 mm 0,0 UV-I 0 W/m 8,2 C 15,7 C 11,3 km/h (2 Bft) 100,00 %
03.04.2018 20:11 15,7 C 7,2 C 61 % 1005,4 hPa 0,0 l/m 8,4 km/h (2 Bft) O-SO 108 0 min 0,000 mm 0,0 UV-I 0 W/m 8,2 C 14,6 C 11,3 km/h (2 Bft) 91,67 %
03.04.2018 20:12 15,6 C 7,2 C 61 % 1005,3 hPa 0,0 l/m 8,4 km/h (2 Bft) O-SO 112 0 min 0,000 mm 0,0 UV-I 0 W/m 8,1 C 14,5 C 11,3 km/h (2 Bft) 95,65 %
03.04.2018 20:13 15,6 C 7,2 C 61 % 1005,3 hPa 0,0 l/m 5,9 km/h (2 Bft) O-SO 109 0 min 0,000 mm 0,0 UV-I 0 W/m 8,1 C 15,6 C 9,7 km/h (2 Bft) 92,59 %
03.04.2018 20:14 15,5 C 7,2 C 62 % 1005,3 hPa 0,0 l/m 5,5 km/h (1 Bft) O-SO 116 0 min 0,000 mm 0,0 UV-I 0 W/m 8,3 C 15,5 C 9,7 km/h (2 Bft) 86,96 %
03.04.2018 20:15 15,4 C 7,2 C 62 % 1005,3 hPa 0,0 l/m 7,5 km/h (2 Bft) O-SO 116 0 min 0,000 mm 0,0 UV-I 0 W/m 8,2 C 14,8 C 11,3 km/h (2 Bft) 95,83 %
03.04.2018 20:16 15,3 C 7,2 C 62 % 1005,3 hPa 0,0 l/m 9,5 km/h (2 Bft) O-SO 107 0 min 0,000 mm 0,0 UV-I 0 W/m 8,1 C 13,7 C 14,5 km/h (3 Bft) 91,30 %
03.04.2018 20:17 15,3 C 7,2 C 62 % 1005,3 hPa 0,0 l/m 9,9 km/h (2 Bft) SO 130 0 min 0,000 mm 0,0 UV-I 0 W/m 8,1 C 13,5 C 16,1 km/h (3 Bft) 100,00 %
03.04.2018 20:18 15,4 C 7,2 C 62 % 1005,3 hPa 0,0 l/m 7,5 km/h (2 Bft) SO 126 0 min 0,000 mm 0,0 UV-I 0 W/m 8,2 C 14,8 C 12,9 km/h (3 Bft) 92,31 %
03.04.2018 20:19 15,4 C 7,2 C 62 % 1005,3 hPa 0,0 l/m 8,8 km/h (2 Bft) O-SO 119 0 min 0,000 mm 0,0 UV-I 0 W/m 8,2 C 14,1 C 11,3 km/h (2 Bft) 95,83 %
03.04.2018 20:20 15,4 C 7,2 C 62 % 1005,3 hPa 0,0 l/m 9,2 km/h (2 Bft) O-SO 114 0 min 0,000 mm 0,0 UV-I 0 W/m 8,2 C 13,9 C 12,9 km/h (3 Bft) 95,65 %
03.04.2018 20:21 15,3 C 7,2 C 62 % 1005,3 hPa 0,0 l/m 9,3 km/h (2 Bft) O-SO 102 0 min 0,000 mm 0,0 UV-I 0 W/m 8,1 C 13,8 C 12,9 km/h (3 Bft) 95,83 %
03.04.2018 20:22 15,2 C 7,2 C 63 % 1005,3 hPa 0,0 l/m 8,1 km/h (2 Bft) SO 125 0 min 0,000 mm 0,0 UV-I 0 W/m 8,2 C 14,3 C 11,3 km/h (2 Bft) 95,65 %
03.04.2018 20:23 15,1 C 7,2 C 63 % 1005,3 hPa 0,0 l/m 12,5 km/h (3 Bft) O-SO 115 0 min 0,000 mm 0,0 UV-I 0 W/m 8,1 C 12,2 C 16,1 km/h (3 Bft) 91,67 %
03.04.2018 20:24 15,1 C 7,2 C 63 % 1005,4 hPa 0,0 l/m 9,5 km/h (2 Bft) O-SO 115 0 min 0,000 mm 0,0 UV-I 0 W/m 8,1 C 13,5 C 14,5 km/h (3 Bft) 100,00 %
03.04.2018 20:25 14,9 C 7,2 C 64 % 1005,4 hPa 0,0 l/m 8,6 km/h (2 Bft) SO 132 0 min 0,000 mm 0,0 UV-I 0 W/m 8,2 C 13,7 C 11,3 km/h (2 Bft) 91,67 %
03.04.2018 20:26 14,9 C 7,2 C 64 % 1005,4 hPa 0,0 l/m 10,5 km/h (2 Bft) O-SO 123 0 min 0,000 mm 0,0 UV-I 0 W/m 8,2 C 12,8 C 14,5 km/h (3 Bft) 91,67 %
03.04.2018 20:27 14,8 C 7,2 C 64 % 1005,4 hPa 0,0 l/m 8,5 km/h (2 Bft) O-SO 111 0 min 0,000 mm 0,0 UV-I 0 W/m 8,1 C 13,6 C 12,9 km/h (3 Bft) 86,96 %
03.04.2018 20:28 14,8 C 7,2 C 64 % 1005,4 hPa 0,0 l/m 12,5 km/h (3 Bft) O-SO 121 0 min 0,000 mm 0,0 UV-I 0 W/m 8,1 C 11,8 C 14,5 km/h (3 Bft) 100,00 %
03.04.2018 20:29 14,9 C 7,2 C 64 % 1005,4 hPa 0,0 l/m 12,8 km/h (3 Bft) O-SO 114 0 min 0,000 mm 0,0 UV-I 0 W/m 8,2 C 11,8 C 16,1 km/h (3 Bft) 91,30 %
03.04.2018 20:30 15,0 C 7,2 C 64 % 1005,4 hPa 0,0 l/m 13,9 km/h (3 Bft) O-SO 109 0 min 0,000 mm 0,0 UV-I 0 W/m 8,2 C 11,6 C 17,7 km/h (3 Bft) 100,00 %
03.04.2018 20:31 15,2 C 7,2 C 63 % 1005,3 hPa 0,0 l/m 15,0 km/h (3 Bft) O-SO 113 0 min 0,000 mm 0,0 UV-I 0 W/m 8,2 C 11,4 C 17,7 km/h (3 Bft) 91,30 %
03.04.2018 20:32 15,3 C 7,2 C 62 % 1005,4 hPa 0,0 l/m 12,6 km/h (3 Bft) O-SO 113 0 min 0,000 mm 0,0 UV-I 0 W/m 8,1 C 12,4 C 16,1 km/h (3 Bft) 100,00 %
03.04.2018 20:33 15,3 C 7,2 C 62 % 1005,4 hPa 0,0 l/m 12,3 km/h (3 Bft) O-SO 110 0 min 0,000 mm 0,0 UV-I 0 W/m 8,1 C 12,5 C 17,7 km/h (3 Bft) 91,30 %
03.04.2018 20:34 15,3 C 7,2 C 62 % 1005,3 hPa 0,0 l/m 11,5 km/h (2 Bft) O-SO 118 0 min 0,000 mm 0,0 UV-I 0 W/m 8,1 C 12,8 C 14,5 km/h (3 Bft) 95,83 %
03.04.2018 20:35 15,3 C 7,2 C 62 % 1005,3 hPa 0,0 l/m 12,0 km/h (2 Bft) SO 132 0 min 0,000 mm 0,0 UV-I 0 W/m 8,1 C 12,6 C 16,1 km/h (3 Bft) 100,00 %
03.04.2018 20:36 15,3 C 7,2 C 62 % 1005,4 hPa 0,0 l/m 12,5 km/h (3 Bft) O-SO 106 0 min 0,000 mm 0,0 UV-I 0 W/m 8,1 C 12,4 C 17,7 km/h (3 Bft) 92,59 %
03.04.2018 20:37 15,2 C 7,2 C 62 % 1005,4 hPa 0,0 l/m 12,5 km/h (3 Bft) SO 125 0 min 0,000 mm 0,0 UV-I 0 W/m 8,0 C 12,3 C 16,1 km/h (3 Bft) 100,00 %
03.04.2018 20:38 15,2 C 7,2 C 62 % 1005,3 hPa 0,0 l/m 12,2 km/h (2 Bft) O-SO 109 0 min 0,000 mm 0,0 UV-I 0 W/m 8,0 C 12,4 C 14,5 km/h (3 Bft) 91,67 %
03.04.2018 20:39 15,2 C 7,2 C 62 % 1005,4 hPa 0,0 l/m 10,4 km/h (2 Bft) SO 142 0 min 0,000 mm 0,0 UV-I 0 W/m 8,0 C 13,2 C 14,5 km/h (3 Bft) 100,00 %
03.04.2018 20:40 15,2 C 7,2 C 63 % 1005,4 hPa 0,0 l/m 12,2 km/h (2 Bft) O-SO 121 0 min 0,000 mm 0,0 UV-I 0 W/m 8,2 C 12,4 C 16,1 km/h (3 Bft) 91,30 %
03.04.2018 20:41 15,2 C 7,2 C 63 % 1005,4 hPa 0,0 l/m 10,0 km/h (2 Bft) O-SO 121 0 min 0,000 mm 0,0 UV-I 0 W/m 8,2 C 13,3 C 12,9 km/h (3 Bft) 92,31 %
03.04.2018 20:42 15,1 C 7,2 C 64 % 1005,4 hPa 0,0 l/m 10,1 km/h (2 Bft) SO 129 0 min 0,000 mm 0,0 UV-I 0 W/m 8,3 C 13,2 C 12,9 km/h (3 Bft) 95,83 %
03.04.2018 20:43 14,9 C 7,2 C 64 % 1005,5 hPa 0,0 l/m 7,8 km/h (2 Bft) SO 131 0 min 0,000 mm 0,0 UV-I 0 W/m 8,2 C 14,1 C 11,3 km/h (2 Bft) 95,65 %
03.04.2018 20:44 14,9 C 7,2 C 64 % 1005,5 hPa 0,0 l/m 7,8 km/h (2 Bft) O-SO 117 0 min 0,000 mm 0,0 UV-I 0 W/m 8,2 C 14,1 C 11,3 km/h (2 Bft) 100,00 %
03.04.2018 20:45 14,8 C 7,2 C 65 % 1005,5 hPa 0,0 l/m 7,6 km/h (2 Bft) SO 124 0 min 0,000 mm 0,0 UV-I 0 W/m 8,3 C 14,1 C 11,3 km/h (2 Bft) 100,00 %
03.04.2018 20:46 14,6 C 7,2 C 65 % 1005,5 hPa 0,0 l/m 6,8 km/h (2 Bft) O-SO 119 0 min 0,000 mm 0,0 UV-I 0 W/m 8,1 C 14,4 C 8,0 km/h (2 Bft) 91,30 %
03.04.2018 20:48 14,3 C 7,2 C 67 % 1005,5 hPa 0,0 l/m 7,9 km/h (2 Bft) SO 124 0 min 0,000 mm 0,0 UV-I 0 W/m 8,3 C 13,4 C 12,9 km/h (3 Bft) 98,00 %
03.04.2018 20:49 14,3 C 7,2 C 67 % 1005,5 hPa 0,0 l/m 7,9 km/h (2 Bft) SO 124 0 min 0,000 mm 0,0 UV-I 0 W/m 8,3 C 13,4 C 11,3 km/h (2 Bft) 100,00 %
03.04.2018 20:50 14,3 C 7,2 C 67 % 1005,5 hPa 0,0 l/m 8,5 km/h (2 Bft) O-SO 120 0 min 0,000 mm 0,0 UV-I 0 W/m 8,3 C 13,1 C 12,9 km/h (3 Bft) 100,00 %
03.04.2018 20:51 14,3 C 7,2 C 66 % 1005,5 hPa 0,0 l/m 7,8 km/h (2 Bft) O-SO 121 0 min 0,000 mm 0,0 UV-I 0 W/m 8,0 C 13,5 C 11,3 km/h (2 Bft) 100,00 %
03.04.2018 20:52 14,3 C 7,2 C 67 % 1005,4 hPa 0,0 l/m 8,0 km/h (2 Bft) SO 142 0 min 0,000 mm 0,0 UV-I 0 W/m 8,3 C 13,4 C 11,3 km/h (2 Bft) 100,00 %
03.04.2018 20:53 14,3 C 7,2 C 67 % 1005,6 hPa 0,0 l/m 8,9 km/h (2 Bft) SO 134 0 min 0,000 mm 0,0 UV-I 0 W/m 8,3 C 12,9 C 14,5 km/h (3 Bft) 95,83 %
03.04.2018 20:54 14,2 C 7,2 C 68 % 1005,6 hPa 0,0 l/m 8,7 km/h (2 Bft) SO 136 0 min 0,000 mm 0,0 UV-I 0 W/m 8,4 C 12,9 C 11,3 km/h (2 Bft) 100,00 %
03.04.2018 20:55 14,2 C 7,2 C 68 % 1005,6 hPa 0,0 l/m 10,8 km/h (2 Bft) SO 143 0 min 0,000 mm 0,0 UV-I 0 W/m 8,4 C 11,9 C 12,9 km/h (3 Bft) 96,30 %
03.04.2018 20:56 14,1 C 7,2 C 68 % 1005,6 hPa 0,0 l/m 8,4 km/h (2 Bft) SO 146 0 min 0,000 mm 0,0 UV-I 0 W/m 8,3 C 12,9 C 11,3 km/h (2 Bft) 91,30 %
03.04.2018 20:57 13,9 C 7,2 C 68 % 1005,6 hPa 0,0 l/m 9,1 km/h (2 Bft) SO 132 0 min 0,000 mm 0,0 UV-I 0 W/m 8,1 C 12,4 C 12,9 km/h (3 Bft) 100,00 %
03.04.2018 20:58 13,8 C 7,2 C 69 % 1005,6 hPa 0,0 l/m 7,2 km/h (2 Bft) SO 127 0 min 0,000 mm 0,0 UV-I 0 W/m 8,2 C 13,3 C 12,9 km/h (3 Bft) 95,65 %
03.04.2018 20:59 13,8 C 7,2 C 69 % 1005,6 hPa 0,0 l/m 7,6 km/h (2 Bft) SO 134 0 min 0,000 mm 0,0 UV-I 0 W/m 8,2 C 13,1 C 11,3 km/h (2 Bft) 100,00 %
03.04.2018 21:00 13,8 C 7,2 C 70 % 1005,5 hPa 0,0 l/m 8,4 km/h (2 Bft) SO 132 0 min 0,000 mm 0,0 UV-I 0 W/m 8,4 C 12,6 C 12,9 km/h (3 Bft) 100,00 %
03.04.2018 21:01 13,8 C 7,2 C 70 % 1005,5 hPa 0,0 l/m 8,8 km/h (2 Bft) SO 131 0 min 0,051 mm 0,0 UV-I 0 W/m 8,4 C 12,4 C 11,3 km/h (2 Bft) 96,30 %
03.04.2018 21:02 13,8 C 7,2 C 70 % 1005,5 hPa 0,0 l/m 8,8 km/h (2 Bft) SO 133 0 min 0,000 mm 0,0 UV-I 0 W/m 8,4 C 12,4 C 11,3 km/h (2 Bft) 100,00 %
03.04.2018 21:03 13,8 C 7,2 C 69 % 1005,5 hPa 0,0 l/m 8,9 km/h (2 Bft) SO 146 0 min 0,000 mm 0,0 UV-I 0 W/m 8,2 C 12,3 C 11,3 km/h (2 Bft) 100,00 %
03.04.2018 21:04 13,9 C 7,2 C 69 % 1005,4 hPa 0,0 l/m 8,0 km/h (2 Bft) O-SO 122 0 min 0,000 mm 0,0 UV-I 0 W/m 8,3 C 12,9 C 11,3 km/h (2 Bft) 100,00 %
03.04.2018 21:05 13,8 C 7,2 C 69 % 1005,4 hPa 0,0 l/m 7,3 km/h (2 Bft) SO 138 0 min 0,000 mm 0,0 UV-I 0 W/m 8,2 C 13,3 C 8,0 km/h (2 Bft) 95,65 %
03.04.2018 21:06 13,8 C 7,2 C 69 % 1005,4 hPa 0,0 l/m 7,7 km/h (2 Bft) SO 133 0 min 0,000 mm 0,0 UV-I 0 W/m 8,2 C 13,0 C 12,9 km/h (3 Bft) 95,83 %
03.04.2018 21:07 13,8 C 7,2 C 69 % 1005,4 hPa 0,0 l/m 7,4 km/h (2 Bft) SO 126 0 min 0,000 mm 0,0 UV-I 0 W/m 8,2 C 13,2 C 11,3 km/h (2 Bft) 100,00 %
03.04.2018 21:08 13,7 C 7,2 C 70 % 1005,4 hPa 0,0 l/m 9,6 km/h (2 Bft) SO 137 0 min 0,000 mm 0,0 UV-I 0 W/m 8,3 C 11,9 C 12,9 km/h (3 Bft) 100,00 %
03.04.2018 21:09 13,8 C 7,2 C 69 % 1005,4 hPa 0,0 l/m 6,3 km/h (2 Bft) SO 130 0 min 0,000 mm 0,0 UV-I 0 W/m 8,2 C 13,8 C 9,7 km/h (2 Bft) 95,65 %
03.04.2018 21:10 13,8 C 7,2 C 69 % 1005,4 hPa 0,0 l/m 6,4 km/h (2 Bft) SO 133 0 min 0,000 mm 0,0 UV-I 0 W/m 8,2 C 13,8 C 12,9 km/h (3 Bft) 100,00 %
03.04.2018 21:11 13,8 C 7,2 C 69 % 1005,4 hPa 0,0 l/m 8,3 km/h (2 Bft) SO 141 0 min 0,000 mm 0,0 UV-I 0 W/m 8,2 C 12,7 C 12,9 km/h (3 Bft) 100,00 %
03.04.2018 21:12 13,9 C 7,2 C 69 % 1005,5 hPa 0,0 l/m 8,6 km/h (2 Bft) SO 134 0 min 0,000 mm 0,0 UV-I 0 W/m 8,3 C 12,6 C 11,3 km/h (2 Bft) 100,00 %
03.04.2018 21:14 13,8 C 7,2 C 70 % 1005,6 hPa 0,0 l/m 7,4 km/h (2 Bft) S-SO 148 0 min 0,000 mm 0,0 UV-I 0 W/m 8,4 C 13,2 C 12,9 km/h (3 Bft) 100,00 %
03.04.2018 21:15 13,8 C 7,2 C 70 % 1005,6 hPa 0,0 l/m 9,3 km/h (2 Bft) SO 132 0 min 0,000 mm 0,0 UV-I 0 W/m 8,4 C 12,1 C 12,9 km/h (3 Bft) 100,00 %
03.04.2018 21:16 13,8 C 7,2 C 70 % 1005,6 hPa 0,0 l/m 7,8 km/h (2 Bft) S-SO 165 0 min 0,000 mm 0,0 UV-I 0 W/m 8,4 C 13,0 C 9,7 km/h (2 Bft) 100,00 %
03.04.2018 21:17 13,8 C 7,2 C 70 % 1005,7 hPa 0,0 l/m 7,7 km/h (2 Bft) S-SO 152 0 min 0,000 mm 0,0 UV-I 0 W/m 8,4 C 13,0 C 12,9 km/h (3 Bft) 100,00 %
03.04.2018 21:19 13,8 C 7,2 C 70 % 1005,7 hPa 0,0 l/m 7,9 km/h (2 Bft) SO 138 0 min 0,000 mm 0,0 UV-I 0 W/m 8,4 C 12,9 C 12,9 km/h (3 Bft) 100,00 %
03.04.2018 21:20 13,8 C 7,2 C 70 % 1005,7 hPa 0,0 l/m 8,1 km/h (2 Bft) SO 130 0 min 0,000 mm 0,0 UV-I 0 W/m 8,4 C 12,8 C 11,3 km/h (2 Bft) 95,83 %
03.04.2018 21:21 13,7 C 7,2 C 70 % 1005,6 hPa 0,0 l/m 10,1 km/h (2 Bft) SO 130 0 min 0,000 mm 0,0 UV-I 0 W/m 8,3 C 11,6 C 12,9 km/h (3 Bft) 100,00 %
03.04.2018 21:22 13,7 C 7,2 C 70 % 1005,5 hPa 0,0 l/m 8,1 km/h (2 Bft) SO 138 0 min 0,000 mm 0,0 UV-I 0 W/m 8,3 C 12,7 C 11,3 km/h (2 Bft) 100,00 %
03.04.2018 21:23 13,7 C 7,2 C 70 % 1005,5 hPa 0,0 l/m 7,2 km/h (2 Bft) SO 133 0 min 0,000 mm 0,0 UV-I 0 W/m 8,3 C 13,2 C 11,3 km/h (2 Bft) 100,00 %
03.04.2018 21:24 13,8 C 7,2 C 69 % 1005,5 hPa 0,0 l/m 6,3 km/h (2 Bft) SO 126 0 min 0,000 mm 0,0 UV-I 0 W/m 8,2 C 13,8 C 9,7 km/h (2 Bft) 100,00 %
03.04.2018 21:25 13,8 C 7,2 C 69 % 1005,4 hPa 0,0 l/m 4,9 km/h (1 Bft) SO 129 0 min 0,000 mm 0,0 UV-I 0 W/m 8,2 C 13,8 C 6,4 km/h (2 Bft) 100,00 %
03.04.2018 21:26 13,9 C 7,2 C 69 % 1005,5 hPa 0,0 l/m 5,0 km/h (1 Bft) SO 134 0 min 0,000 mm 0,0 UV-I 0 W/m 8,3 C 13,9 C 8,0 km/h (2 Bft) 100,00 %
03.04.2018 21:27 13,9 C 7,2 C 69 % 1005,5 hPa 0,0 l/m 5,9 km/h (2 Bft) SO 138 0 min 0,000 mm 0,0 UV-I 0 W/m 8,3 C 13,9 C 8,0 km/h (2 Bft) 100,00 %
03.04.2018 21:28 14,0 C 7,2 C 68 % 1005,5 hPa 0,0 l/m 4,6 km/h (1 Bft) SO 130 0 min 0,000 mm 0,0 UV-I 0 W/m 8,2 C 14,0 C 6,4 km/h (2 Bft) 95,65 %
03.04.2018 21:29 14,0 C 7,2 C 68 % 1005,5 hPa 0,0 l/m 5,5 km/h (1 Bft) SO 143 0 min 0,000 mm 0,0 UV-I 0 W/m 8,2 C 14,0 C 8,0 km/h (2 Bft) 100,00 %
03.04.2018 21:30 14,1 C 7,2 C 68 % 1005,5 hPa 0,0 l/m 2,3 km/h (1 Bft) SO 143 0 min 0,000 mm 0,0 UV-I 0 W/m 8,3 C 14,1 C 3,2 km/h (1 Bft) 100,00 %
03.04.2018 21:31 14,0 C 7,2 C 68 % 1005,6 hPa 0,0 l/m 2,0 km/h (1 Bft) SO 143 0 min 0,000 mm 0,0 UV-I 0 W/m 8,2 C 14,0 C 3,2 km/h (1 Bft) 100,00 %
03.04.2018 21:32 13,9 C 7,2 C 68 % 1005,5 hPa 0,0 l/m 1,7 km/h (1 Bft) SO 143 0 min 0,000 mm 0,0 UV-I 0 W/m 8,1 C 13,9 C 3,2 km/h (1 Bft) 100,00 %
03.04.2018 21:33 13,9 C 7,2 C 69 % 1005,5 hPa 0,0 l/m 2,1 km/h (1 Bft) SO 143 0 min 0,000 mm 0,0 UV-I 0 W/m 8,3 C 13,9 C 3,2 km/h (1 Bft) 100,00 %
03.04.2018 21:34 13,8 C 7,2 C 69 % 1005,5 hPa 0,0 l/m 0,6 km/h (0 Bft) SO 143 0 min 0,000 mm 0,0 UV-I 0 W/m 8,2 C 13,8 C 1,6 km/h (1 Bft) 100,00 %
03.04.2018 21:35 13,8 C 7,2 C 69 % 1005,5 hPa 0,0 l/m 0,5 km/h (0 Bft) SO 143 0 min 0,000 mm 0,0 UV-I 0 W/m 8,2 C 13,8 C 1,6 km/h (1 Bft) 100,00 %
03.04.2018 21:36 13,8 C 7,2 C 69 % 1005,5 hPa 0,0 l/m 0,0 km/h (0 Bft) SO 143 0 min 0,000 mm 0,0 UV-I 0 W/m 8,2 C 13,8 C 0,0 km/h (0 Bft) 100,00 %
03.04.2018 21:38 13,7 C 7,2 C 69 % 1005,5 hPa 0,0 l/m 0,0 km/h (0 Bft) SO 143 0 min 0,000 mm 0,0 UV-I 0 W/m 8,1 C 13,7 C 0,0 km/h (0 Bft) 97,87 %
03.04.2018 21:39 13,7 C 7,2 C 70 % 1005,5 hPa 0,0 l/m 0,0 km/h (0 Bft) SO 143 0 min 0,000 mm 0,0 UV-I 0 W/m 8,3 C 13,7 C 0,0 km/h (0 Bft) 100,00 %
03.04.2018 21:40 13,6 C 7,2 C 70 % 1005,6 hPa 0,0 l/m 0,0 km/h (0 Bft) SO 143 0 min 0,000 mm 0,0 UV-I 0 W/m 8,2 C 13,6 C 0,0 km/h (0 Bft) 100,00 %
03.04.2018 21:41 13,6 C 7,2 C 71 % 1005,6 hPa 0,0 l/m 0,0 km/h (0 Bft) SO 143 0 min 0,000 mm 0,0 UV-I 0 W/m 8,4 C 13,6 C 0,0 km/h (0 Bft) 95,65 %
03.04.2018 21:43 13,4 C 7,2 C 72 % 1005,6 hPa 0,0 l/m 0,0 km/h (0 Bft) SO 143 0 min 0,000 mm 0,0 UV-I 0 W/m 8,5 C 13,4 C 0,0 km/h (0 Bft) 98,31 %
03.04.2018 21:44 13,3 C 7,2 C 73 % 1005,6 hPa 0,0 l/m 0,0 km/h (0 Bft) SO 143 0 min 0,000 mm 0,0 UV-I 0 W/m 8,6 C 13,3 C 0,0 km/h (0 Bft) 100,00 %
03.04.2018 21:45 13,1 C 7,2 C 74 % 1005,6 hPa 0,0 l/m 0,0 km/h (0 Bft) SO 143 0 min 0,000 mm 0,0 UV-I 0 W/m 8,6 C 13,1 C 0,0 km/h (0 Bft) 95,65 %
03.04.2018 21:46 13,1 C 7,2 C 74 % 1005,6 hPa 0,0 l/m 0,0 km/h (0 Bft) SO 143 0 min 0,000 mm 0,0 UV-I 0 W/m 8,6 C 13,1 C 0,0 km/h (0 Bft) 100,00 %
03.04.2018 21:47 13,1 C 7,2 C 74 % 1005,6 hPa 0,0 l/m 0,0 km/h (0 Bft) SO 143 0 min 0,000 mm 0,0 UV-I 0 W/m 8,6 C 13,1 C 0,0 km/h (0 Bft) 100,00 %
03.04.2018 21:48 13,1 C 7,2 C 74 % 1005,6 hPa 0,0 l/m 0,0 km/h (0 Bft) SO 143 0 min 0,000 mm 0,0 UV-I 0 W/m 8,6 C 13,1 C 0,0 km/h (0 Bft) 100,00 %
03.04.2018 21:49 13,1 C 7,2 C 74 % 1005,6 hPa 0,0 l/m 0,0 km/h (0 Bft) SO 143 0 min 0,000 mm 0,0 UV-I 0 W/m 8,6 C 13,1 C 0,0 km/h (0 Bft) 100,00 %
03.04.2018 21:50 13,1 C 7,2 C 74 % 1005,6 hPa 0,0 l/m 1,3 km/h (1 Bft) SO 143 0 min 0,000 mm 0,0 UV-I 0 W/m 8,6 C 13,1 C 3,2 km/h (1 Bft) 100,00 %
03.04.2018 21:51 13,0 C 7,2 C 74 % 1005,6 hPa 0,0 l/m 2,2 km/h (1 Bft) SO 143 0 min 0,000 mm 0,0 UV-I 0 W/m 8,5 C 13,0 C 4,8 km/h (1 Bft) 95,65 %
03.04.2018 21:52 12,9 C 7,2 C 74 % 1005,6 hPa 0,0 l/m 3,1 km/h (1 Bft) O-SO 117 0 min 0,000 mm 0,0 UV-I 0 W/m 8,4 C 12,9 C 4,8 km/h (1 Bft) 100,00 %
03.04.2018 21:53 12,9 C 7,2 C 74 % 1005,6 hPa 0,0 l/m 4,4 km/h (1 Bft) O-NO 71 0 min 0,000 mm 0,0 UV-I 0 W/m 8,4 C 12,9 C 6,4 km/h (2 Bft) 100,00 %
03.04.2018 21:54 12,9 C 7,2 C 75 % 1005,6 hPa 0,0 l/m 5,2 km/h (1 Bft) O-NO 67 0 min 0,000 mm 0,0 UV-I 0 W/m 8,6 C 12,9 C 6,4 km/h (2 Bft) 95,83 %
03.04.2018 21:55 12,8 C 7,2 C 75 % 1005,6 hPa 0,0 l/m 5,8 km/h (2 Bft) O-NO 60 0 min 0,000 mm 0,0 UV-I 0 W/m 8,5 C 12,8 C 6,4 km/h (2 Bft) 100,00 %
03.04.2018 21:56 12,7 C 7,2 C 76 % 1005,6 hPa 0,0 l/m 5,2 km/h (1 Bft) O-NO 60 0 min 0,000 mm 0,0 UV-I 0 W/m 8,6 C 12,7 C 6,4 km/h (2 Bft) 95,83 %
03.04.2018 21:57 12,7 C 7,2 C 76 % 1005,6 hPa 0,0 l/m 5,1 km/h (1 Bft) O-NO 60 0 min 0,000 mm 0,0 UV-I 0 W/m 8,6 C 12,7 C 6,4 km/h (2 Bft) 91,67 %
03.04.2018 21:58 12,7 C 7,2 C 75 % 1005,6 hPa 0,0 l/m 4,4 km/h (1 Bft) O-NO 60 0 min 0,000 mm 0,0 UV-I 0 W/m 8,4 C 12,7 C 4,8 km/h (1 Bft) 97,56 %
03.04.2018 21:59 12,8 C 7,2 C 75 % 1005,6 hPa 0,0 l/m 4,1 km/h (1 Bft) O-NO 60 0 min 0,000 mm 0,0 UV-I 0 W/m 8,5 C 12,8 C 4,8 km/h (1 Bft) 100,00 %
03.04.2018 22:00 12,8 C 7,2 C 74 % 1005,7 hPa 0,0 l/m 4,7 km/h (1 Bft) O-NO 60 0 min 0,000 mm 0,0 UV-I 0 W/m 8,3 C 12,8 C 6,4 km/h (2 Bft) 100,00 %
03.04.2018 22:01 12,9 C 7,2 C 74 % 1005,6 hPa 0,0 l/m 4,1 km/h (1 Bft) O-NO 60 0 min 0,026 mm 0,0 UV-I 0 W/m 8,4 C 12,9 C 6,4 km/h (2 Bft) 100,00 %
03.04.2018 22:02 13,0 C 7,2 C 73 % 1005,7 hPa 0,0 l/m 5,0 km/h (1 Bft) O-NO 60 0 min 0,000 mm 0,0 UV-I 0 W/m 8,3 C 13,0 C 6,4 km/h (2 Bft) 100,00 %
03.04.2018 22:03 13,1 C 7,2 C 73 % 1005,7 hPa 0,0 l/m 3,8 km/h (1 Bft) O-NO 60 0 min 0,000 mm 0,0 UV-I 0 W/m 8,4 C 13,1 C 6,4 km/h (2 Bft) 100,00 %
03.04.2018 22:04 13,1 C 7,2 C 72 % 1005,7 hPa 0,0 l/m 3,4 km/h (1 Bft) O-NO 60 0 min 0,000 mm 0,0 UV-I 0 W/m 8,2 C 13,1 C 4,8 km/h (1 Bft) 100,00 %
03.04.2018 22:05 13,2 C 7,2 C 72 % 1005,7 hPa 0,0 l/m 3,7 km/h (1 Bft) O-NO 60 0 min 0,000 mm 0,0 UV-I 0 W/m 8,3 C 13,2 C 4,8 km/h (1 Bft) 100,00 %
03.04.2018 22:06 13,2 C 7,2 C 72 % 1005,7 hPa 0,0 l/m 3,4 km/h (1 Bft) O-NO 60 0 min 0,000 mm 0,0 UV-I 0 W/m 8,3 C 13,2 C 4,8 km/h (1 Bft) 100,00 %
03.04.2018 22:07 13,2 C 7,2 C 72 % 1005,8 hPa 0,0 l/m 3,0 km/h (1 Bft) O-NO 60 0 min 0,000 mm 0,0 UV-I 0 W/m 8,3 C 13,2 C 4,8 km/h (1 Bft) 100,00 %
03.04.2018 22:10 13,1 C 7,2 C 73 % 1005,8 hPa 0,0 l/m 3,2 km/h (1 Bft) O-NO 67 0 min 0,000 mm 0,0 UV-I 0 W/m 8,4 C 13,1 C 4,8 km/h (1 Bft) 97,37 %
03.04.2018 22:15 12,6 C 7,2 C 75 % 1005,8 hPa 0,0 l/m 1,6 km/h (1 Bft) O-NO 67 0 min 0,000 mm 0,0 UV-I 0 W/m 8,3 C 12,6 C 4,8 km/h (1 Bft) 99,12 %
03.04.2018 22:20 12,2 C 7,2 C 77 % 1005,8 hPa 0,0 l/m 0,0 km/h (0 Bft) O-NO 67 0 min 0,000 mm 0,0 UV-I 0 W/m 8,3 C 12,2 C 1,6 km/h (1 Bft) 99,12 %
03.04.2018 22:25 11,7 C 7,2 C 80 % 1005,9 hPa 0,0 l/m 0,0 km/h (0 Bft) N 0 0 min 0,000 mm 0,0 UV-I 0 W/m 8,4 C 11,7 C 0,0 km/h (0 Bft) 100,00 %
03.04.2018 22:28 11,3 C 7,2 C 82 % 1005,9 hPa 0,0 l/m 1,1 km/h (1 Bft) O-SO 115 0 min 0,000 mm 0,0 UV-I 0 W/m 8,3 C 11,3 C 3,2 km/h (1 Bft) 98,38 %
03.04.2018 22:29 11,2 C 7,2 C 82 % 1005,9 hPa 0,0 l/m 3,6 km/h (1 Bft) O-SO 116 0 min 0,000 mm 0,0 UV-I 0 W/m 8,2 C 11,2 C 4,8 km/h (1 Bft) 92,31 %
03.04.2018 22:30 11,1 C 7,2 C 83 % 1005,9 hPa 0,0 l/m 1,5 km/h (1 Bft) O-SO 116 0 min 0,000 mm 0,0 UV-I 0 W/m 8,3 C 11,1 C 3,2 km/h (1 Bft) 100,00 %
03.04.2018 22:31 11,1 C 7,2 C 83 % 1005,8 hPa 0,0 l/m 2,1 km/h (1 Bft) O-SO 116 0 min 0,000 mm 0,0 UV-I 0 W/m 8,3 C 11,1 C 3,2 km/h (1 Bft) 95,65 %
03.04.2018 22:35 11,5 C 7,2 C 81 % 1005,9 hPa 0,0 l/m 1,6 km/h (1 Bft) O-SO 112 0 min 0,000 mm 0,0 UV-I 0 W/m 8,4 C 11,5 C 3,2 km/h (1 Bft) 98,25 %
03.04.2018 22:40 11,6 C 7,2 C 81 % 1006,1 hPa 0,0 l/m 0,0 km/h (0 Bft) O-SO 112 0 min 0,000 mm 0,0 UV-I 0 W/m 8,5 C 11,6 C 1,6 km/h (1 Bft) 100,00 %
03.04.2018 22:45 11,7 C 7,2 C 80 % 1006,1 hPa 0,0 l/m 0,0 km/h (0 Bft) O-SO 112 0 min 0,000 mm 0,0 UV-I 0 W/m 8,4 C 11,7 C 3,2 km/h (1 Bft) 100,00 %
03.04.2018 22:49 11,2 C 7,2 C 82 % 1006,1 hPa 0,0 l/m 2,3 km/h (1 Bft) S-SW 193 0 min 0,000 mm 0,0 UV-I 0 W/m 8,2 C 11,2 C 3,2 km/h (1 Bft) 95,65 %
03.04.2018 22:50 11,3 C 7,2 C 82 % 1006,1 hPa 0,0 l/m 4,5 km/h (1 Bft) S-SW 195 0 min 0,000 mm 0,0 UV-I 0 W/m 8,3 C 11,3 C 6,4 km/h (2 Bft) 100,00 %
03.04.2018 22:51 11,3 C 7,2 C 81 % 1006,1 hPa 0,0 l/m 4,6 km/h (1 Bft) S-SW 196 0 min 0,000 mm 0,0 UV-I 0 W/m 8,2 C 11,3 C 4,8 km/h (1 Bft) 95,65 %
03.04.2018 22:52 11,4 C 7,2 C 81 % 1006,1 hPa 0,0 l/m 3,9 km/h (1 Bft) S-SW 196 0 min 0,000 mm 0,0 UV-I 0 W/m 8,3 C 11,4 C 4,8 km/h (1 Bft) 95,83 %
03.04.2018 22:53 11,5 C 7,2 C 81 % 1006,1 hPa 0,0 l/m 3,8 km/h (1 Bft) S-SW 196 0 min 0,000 mm 0,0 UV-I 0 W/m 8,4 C 11,5 C 4,8 km/h (1 Bft) 100,00 %
03.04.2018 22:54 11,6 C 7,2 C 80 % 1006,1 hPa 0,0 l/m 4,8 km/h (1 Bft) S-SW 196 0 min 0,000 mm 0,0 UV-I 0 W/m 8,3 C 11,6 C 6,4 km/h (2 Bft) 100,00 %
03.04.2018 22:55 11,6 C 7,2 C 80 % 1006,1 hPa 0,0 l/m 3,6 km/h (1 Bft) S-SW 196 0 min 0,000 mm 0,0 UV-I 0 W/m 8,3 C 11,6 C 4,8 km/h (1 Bft) 100,00 %
03.04.2018 22:56 11,6 C 7,2 C 80 % 1006,0 hPa 0,0 l/m 3,1 km/h (1 Bft) S-SW 196 0 min 0,000 mm 0,0 UV-I 0 W/m 8,3 C 11,6 C 3,2 km/h (1 Bft) 100,00 %
03.04.2018 22:58 11,4 C 7,2 C 81 % 1006,0 hPa 0,0 l/m 2,1 km/h (1 Bft) S-SW 196 0 min 0,000 mm 0,0 UV-I 0 W/m 8,3 C 11,4 C 3,2 km/h (1 Bft) 100,00 %
03.04.2018 22:59 11,3 C 7,2 C 81 % 1006,0 hPa 0,0 l/m 1,7 km/h (1 Bft) S-SW 196 0 min 0,000 mm 0,0 UV-I 0 W/m 8,2 C 11,3 C 3,2 km/h (1 Bft) 100,00 %
03.04.2018 23:00 11,1 C 7,2 C 82 % 1006,0 hPa 0,0 l/m 2,0 km/h (1 Bft) S-SW 196 0 min 0,000 mm 0,0 UV-I 0 W/m 8,1 C 11,1 C 3,2 km/h (1 Bft) 100,00 %
03.04.2018 23:01 11,0 C 7,2 C 82 % 1006,0 hPa 0,0 l/m 2,6 km/h (1 Bft) S-SW 196 0 min 0,000 mm 0,0 UV-I 0 W/m 8,0 C 11,0 C 3,2 km/h (1 Bft) 95,45 %
03.04.2018 23:02 11,0 C 7,2 C 83 % 1006,0 hPa 0,0 l/m 3,2 km/h (1 Bft) S-SW 196 0 min 0,000 mm 0,0 UV-I 0 W/m 8,2 C 11,0 C 3,2 km/h (1 Bft) 100,00 %
03.04.2018 23:03 10,9 C 7,2 C 83 % 1006,1 hPa 0,0 l/m 3,4 km/h (1 Bft) S-SW 196 0 min 0,000 mm 0,0 UV-I 0 W/m 8,1 C 10,9 C 4,8 km/h (1 Bft) 100,00 %
03.04.2018 23:05 11,0 C 7,2 C 83 % 1006,2 hPa 0,0 l/m 3,2 km/h (1 Bft) S-SW 202 0 min 0,000 mm 0,0 UV-I 0 W/m 8,2 C 11,0 C 4,8 km/h (1 Bft) 96,49 %
03.04.2018 23:10 11,1 C 7,2 C 82 % 1006,2 hPa 0,0 l/m 3,2 km/h (1 Bft) S-SW 202 0 min 0,000 mm 0,0 UV-I 0 W/m 8,1 C 11,1 C 4,8 km/h (1 Bft) 96,49 %
03.04.2018 23:15 11,2 C 7,2 C 82 % 1006,3 hPa 0,0 l/m 3,2 km/h (1 Bft) S-SW 202 0 min 0,000 mm 0,0 UV-I 0 W/m 8,2 C 11,2 C 4,8 km/h (1 Bft) 97,37 %
03.04.2018 23:20 11,3 C 7,2 C 81 % 1006,3 hPa 0,0 l/m 1,6 km/h (1 Bft) S-SW 202 0 min 0,000 mm 0,0 UV-I 0 W/m 8,2 C 11,3 C 4,8 km/h (1 Bft) 94,74 %
03.04.2018 23:25 11,2 C 7,2 C 82 % 1006,2 hPa 0,0 l/m 0,0 km/h (0 Bft) S-SW 202 0 min 0,000 mm 0,0 UV-I 0 W/m 8,2 C 11,2 C 3,2 km/h (1 Bft) 92,98 %
03.04.2018 23:28 11,4 C 7,2 C 81 % 1006,2 hPa 0,0 l/m 0,0 km/h (0 Bft) S-SW 196 0 min 0,000 mm 0,0 UV-I 0 W/m 8,3 C 11,4 C 0,0 km/h (0 Bft) 100,00 %
03.04.2018 23:29 11,4 C 7,2 C 80 % 1006,2 hPa 0,0 l/m 1,9 km/h (1 Bft) S-SW 196 0 min 0,000 mm 0,0 UV-I 0 W/m 8,1 C 11,4 C 3,2 km/h (1 Bft) 100,00 %
03.04.2018 23:30 11,4 C 7,2 C 80 % 1006,3 hPa 0,0 l/m 1,6 km/h (1 Bft) S-SW 202 0 min 0,000 mm 0,0 UV-I 0 W/m 8,1 C 11,4 C 3,2 km/h (1 Bft) 93,86 %
03.04.2018 23:35 10,8 C 7,2 C 83 % 1006,2 hPa 0,0 l/m 1,6 km/h (1 Bft) S-SW 202 0 min 0,000 mm 0,0 UV-I 0 W/m 8,0 C 10,8 C 3,2 km/h (1 Bft) 95,61 %
03.04.2018 23:39 10,9 C 7,2 C 83 % 1006,3 hPa 0,0 l/m 0,0 km/h (0 Bft) S-SW 196 0 min 0,000 mm 0,0 UV-I 0 W/m 8,1 C 10,9 C 0,0 km/h (0 Bft) 99,13 %
03.04.2018 23:40 11,1 C 7,2 C 82 % 1006,3 hPa 0,0 l/m 0,0 km/h (0 Bft) S-SW 196 0 min 0,000 mm 0,0 UV-I 0 W/m 8,1 C 11,1 C 0,0 km/h (0 Bft) 96,88 %
03.04.2018 23:41 11,2 C 7,2 C 82 % 1006,3 hPa 0,0 l/m 0,0 km/h (0 Bft) S-SW 196 0 min 0,000 mm 0,0 UV-I 0 W/m 8,2 C 11,2 C 0,0 km/h (0 Bft) 95,83 %
03.04.2018 23:42 11,3 C 7,2 C 81 % 1006,3 hPa 0,0 l/m 0,0 km/h (0 Bft) S-SW 196 0 min 0,000 mm 0,0 UV-I 0 W/m 8,2 C 11,3 C 0,0 km/h (0 Bft) 100,00 %
03.04.2018 23:43 11,3 C 7,2 C 81 % 1006,3 hPa 0,0 l/m 0,0 km/h (0 Bft) S-SW 196 0 min 0,000 mm 0,0 UV-I 0 W/m 8,2 C 11,3 C 0,0 km/h (0 Bft) 100,00 %
03.04.2018 23:44 11,2 C 7,2 C 81 % 1006,3 hPa 0,0 l/m 0,0 km/h (0 Bft) S-SW 196 0 min 0,000 mm 0,0 UV-I 0 W/m 8,1 C 11,2 C 0,0 km/h (0 Bft) 95,83 %
03.04.2018 23:45 11,2 C 7,2 C 81 % 1006,3 hPa 0,0 l/m 0,0 km/h (0 Bft) S-SW 196 0 min 0,000 mm 0,0 UV-I 0 W/m 8,1 C 11,2 C 0,0 km/h (0 Bft) 100,00 %
03.04.2018 23:46 11,1 C 7,2 C 81 % 1006,4 hPa 0,0 l/m 0,0 km/h (0 Bft) S-SW 196 0 min 0,000 mm 0,0 UV-I 0 W/m 8,0 C 11,1 C 0,0 km/h (0 Bft) 95,83 %
03.04.2018 23:47 10,9 C 7,2 C 81 % 1006,3 hPa 0,0 l/m 0,0 km/h (0 Bft) S-SW 196 0 min 0,000 mm 0,0 UV-I 0 W/m 7,8 C 10,9 C 0,0 km/h (0 Bft) 95,65 %
03.04.2018 23:48 10,8 C 7,2 C 82 % 1006,3 hPa 0,0 l/m 0,0 km/h (0 Bft) S-SW 196 0 min 0,000 mm 0,0 UV-I 0 W/m 7,9 C 10,8 C 0,0 km/h (0 Bft) 91,67 %
03.04.2018 23:49 10,7 C 7,2 C 82 % 1006,3 hPa 0,0 l/m 0,0 km/h (0 Bft) S-SW 196 0 min 0,000 mm 0,0 UV-I 0 W/m 7,8 C 10,7 C 0,0 km/h (0 Bft) 100,00 %
03.04.2018 23:50 10,6 C 7,2 C 84 % 1006,3 hPa 0,0 l/m 0,0 km/h (0 Bft) S-SW 196 0 min 0,000 mm 0,0 UV-I 0 W/m 8,0 C 10,6 C 0,0 km/h (0 Bft) 96,30 %
03.04.2018 23:51 10,5 C 7,2 C 84 % 1006,3 hPa 0,0 l/m 0,0 km/h (0 Bft) S-SW 196 0 min 0,000 mm 0,0 UV-I 0 W/m 7,9 C 10,5 C 0,0 km/h (0 Bft) 100,00 %
03.04.2018 23:52 10,6 C 7,2 C 84 % 1006,2 hPa 0,0 l/m 0,0 km/h (0 Bft) S-SW 196 0 min 0,000 mm 0,0 UV-I 0 W/m 8,0 C 10,6 C 0,0 km/h (0 Bft) 95,83 %
03.04.2018 23:53 10,7 C 7,2 C 84 % 1006,2 hPa 0,0 l/m 0,0 km/h (0 Bft) S-SW 196 0 min 0,000 mm 0,0 UV-I 0 W/m 8,1 C 10,7 C 0,0 km/h (0 Bft) 86,96 %
03.04.2018 23:55 10,9 C 7,2 C 82 % 1006,2 hPa 0,0 l/m 0,0 km/h (0 Bft) N 0 0 min 0,000 mm 0,0 UV-I 0 W/m 7,9 C 10,9 C 0,0 km/h (0 Bft) 99,12 %
03.04.2018 23:56 10,9 C 7,2 C 82 % 1006,2 hPa 0,0 l/m 0,0 km/h (0 Bft) S-SW 196 0 min 0,000 mm 0,0 UV-I 0 W/m 7,9 C 10,9 C 0,0 km/h (0 Bft) 97,62 %
03.04.2018 23:58 10,8 C 7,2 C 82 % 1006,3 hPa 0,0 l/m 0,0 km/h (0 Bft) S-SW 196 0 min 0,000 mm 0,0 UV-I 0 W/m 7,9 C 10,8 C 0,0 km/h (0 Bft) 97,14 %
_ Min-Zeit 05:17 00:00 15:02 18:35 - 00:00 - - - - - - 04:18 07:06 00:00 12:48
Minimum _ 2,7 C 6,7 C 46 % 1004,9 hPa - 0,0 km/h (0 Bft) - - - - - - 1,4 C 0,7 C 0,0 km/h (0 Bft) 81,82 %
_ Max-Zeit 15:47 15:52 05:57 08:11 00:00 14:12 - - 08:23 14:00 13:18 13:19 13:22 16:55 15:35 00:00
Maximum _ 19,9 C 7,2 C 94 % 1010,0 hPa 0,0 l/m 17,4 km/h
N-NO (3 Bft)
- - 2 min 0,432 mm 3,4 UV-I 832 W/m 11,5 C 19,5 C 25,7 km/h
O (4 Bft)
100,00 %
Durchschnitt _ 11,4 C 6,9 C 73 % 1007,4 hPa #0,0 l/m 6,2 km/h (2 Bft) O - #7:55 h #3,150 mm 1,9 UV-I 360 W/m 6,3 C 10,6 C 8,5 km/h (2 Bft) 97,89 %